LiveATC.Net - Listen to live air traffic control over the Internet!
Airport/ARTCC Code
Frequency Search
(e.g., 124.400, 128.75)
Site-wide search
 


Browse Feeds
Top 50 Feeds
HF Oceanic Feeds
Coverage Map
Bad Weather Areas

LiveATC FAQ

Increase Coverage

Contact LiveATC.net
Press Inquiries

LiveATC on iPhone
LiveATC on Android

LiveATC Mobile
(Mobile browser)

ATC Audio Archives
Interesting Recordings

LiveATC Forums

Home Page
About LiveATC.net


Terms of Use
Privacy Policy

AIRMETs/SIGMETs

FAA Airport Status
NAS Status
Arrival Demand


Server Software By:
Icecast.org
Liquidsoap

Select an area of interest:
U.S. Feeds: Class B Airports | Class C Airports | Class D/Other Airports | ARTCC (Centers)
International Feeds: Canada | Europe | Oceania | Asia | South America | North/Central America | Africa
Misc Feeds: HF Feeds
Search by ICAO/IATA airport code:   (e.g., kbos, kjfk, lax, eham, etc.)


Currently Available Live Feeds: 3224
Status Updated: Tue Apr 23 2024 10:28:21 UTC


NOTICE

Unauthorized use prohibited. See LiveATC.net Terms of Service

U.S. Class C Airport Feeds

 

KABE App/Dep (Archives)
Allentown, Pennsylvania, United States

Feed Status: UP
Listen in your browser - HTML5 player(in browser, HTML5)
Click here to listen with your own player(launches your MP3 player)

KABE 230951Z 00000KT 10SM CLR 01/M03 A3015 RMK AO2 SLP211 T00111028 $

KABE Airport Info (Airnav.com)

KABE Flight Activity (Flightaware)

Listeners: 0 out of 2299 total

Allentown Approach/Departure (Above 3000'): 124.450
Allentown Approach/Departure (Below 3000'): 119.650

KABE App/Dep (Above 3000') (Archives)
Allentown, Pennsylvania, United States

Feed Status: UP
Listen in your browser - HTML5 player(in browser, HTML5)
Click here to listen with your own player(launches your MP3 player)

KABE 230951Z 00000KT 10SM CLR 01/M03 A3015 RMK AO2 SLP211 T00111028 $

KABE Airport Info (Airnav.com)

KABE Flight Activity (Flightaware)

Listeners: 0 out of 2299 total

Allentown Approach/Departure (Above 3000'): 124.450

KABE App/Dep (Below 3000') (Archives)
Allentown, Pennsylvania, United States

Feed Status: UP
Listen in your browser - HTML5 player(in browser, HTML5)
Click here to listen with your own player(launches your MP3 player)

KABE 230951Z 00000KT 10SM CLR 01/M03 A3015 RMK AO2 SLP211 T00111028 $

KABE Airport Info (Airnav.com)

KABE Flight Activity (Flightaware)

Listeners: 0 out of 2299 total

Allentown Approach/Departure (Below 3000'): 119.650

KABE ATIS (Archives)
Allentown, Pennsylvania, United States

Feed Status: UP
Listen in your browser - HTML5 player(in browser, HTML5)
Click here to listen with your own player(launches your MP3 player)

KABE 230951Z 00000KT 10SM CLR 01/M03 A3015 RMK AO2 SLP211 T00111028 $

KABE Airport Info (Airnav.com)

KABE Flight Activity (Flightaware)

Listeners: 0 out of 2299 total

Allentown ATIS: 126.975

KABE Clearance Delivery (Archives)
Allentown, Pennsylvania, United States

Feed Status: UP
Listen in your browser - HTML5 player(in browser, HTML5)
Click here to listen with your own player(launches your MP3 player)

KABE 230951Z 00000KT 10SM CLR 01/M03 A3015 RMK AO2 SLP211 T00111028 $

KABE Airport Info (Airnav.com)

KABE Flight Activity (Flightaware)

Listeners: 0 out of 2299 total

Allentown Clearance Delivery: 124.050

KABE Del/Gnd/Twr (Archives)
Allentown, Pennsylvania, United States

Feed Status: UP
Listen in your browser - HTML5 player(in browser, HTML5)
Click here to listen with your own player(launches your MP3 player)

KABE 230951Z 00000KT 10SM CLR 01/M03 A3015 RMK AO2 SLP211 T00111028 $

KABE Airport Info (Airnav.com)

KABE Flight Activity (Flightaware)

Listeners: 0 out of 2299 total

Allentown Clearance Delivery: 124.050
Allentown Ground: 121.900
Allentown Tower: 120.500

KABE Del/Gnd/Twr/App (Archives)
Allentown, Pennsylvania, United States

Feed Status: UP
Listen in your browser - HTML5 player(in browser, HTML5)
Click here to listen with your own player(launches your MP3 player)

KABE 230951Z 00000KT 10SM CLR 01/M03 A3015 RMK AO2 SLP211 T00111028 $

KABE Airport Info (Airnav.com)

KABE Flight Activity (Flightaware)

Listeners: 0 out of 2299 total

Allentown Approach/Departure (Above 3000'): 124.450
Allentown Approach/Departure (Below 3000'): 119.650
Allentown Clearance Delivery: 124.050
Allentown Ground: 121.900
Allentown Tower: 120.500

KABE Ground (Archives)
Allentown, Pennsylvania, United States

Feed Status: UP
Listen in your browser - HTML5 player(in browser, HTML5)
Click here to listen with your own player(launches your MP3 player)

KABE 230951Z 00000KT 10SM CLR 01/M03 A3015 RMK AO2 SLP211 T00111028 $

KABE Airport Info (Airnav.com)

KABE Flight Activity (Flightaware)

Listeners: 0 out of 2299 total

Allentown Ground: 121.900

KABE Tower (Archives)
Allentown, Pennsylvania, United States

Feed Status: UP
Listen in your browser - HTML5 player(in browser, HTML5)
Click here to listen with your own player(launches your MP3 player)

KABE 230951Z 00000KT 10SM CLR 01/M03 A3015 RMK AO2 SLP211 T00111028 $

KABE Airport Info (Airnav.com)

KABE Flight Activity (Flightaware)

Listeners: 0 out of 2299 total

Allentown Tower: 120.500

KABE Twr/App/Dep (Archives)
Allentown, Pennsylvania, United States

Feed Status: UP
Listen in your browser - HTML5 player(in browser, HTML5)
Click here to listen with your own player(launches your MP3 player)

KABE 230951Z 00000KT 10SM CLR 01/M03 A3015 RMK AO2 SLP211 T00111028 $

KABE Airport Info (Airnav.com)

KABE Flight Activity (Flightaware)

Listeners: 0 out of 2299 total

Allentown Approach/Departure (Above 3000'): 124.450
Allentown Approach/Departure (Below 3000'): 119.650
Allentown Tower: 120.500

KABQ App/Dep (Main) (Archives)
Albuquerque, New Mexico, United States

Feed Status: UP
Listen in your browser - HTML5 player(in browser, HTML5)
Click here to listen with your own player(launches your MP3 player)

KABQ 230952Z 13007KT 10SM FEW140 FEW250 14/M03 A3001 RMK AO2 SLP089 T01441028 $

KABQ Airport Info (Airnav.com)

KABQ Flight Activity (Flightaware)

Listeners: 1 out of 2299 total

Albuquerque Approach/Departure (S of V12): 123.900

KABQ App/Dep (Other) (Archives)
Albuquerque, New Mexico, United States

Feed Status: UP
Listen in your browser - HTML5 player(in browser, HTML5)
Click here to listen with your own player(launches your MP3 player)

KABQ 230952Z 13007KT 10SM FEW140 FEW250 14/M03 A3001 RMK AO2 SLP089 T01441028 $

KABQ Airport Info (Airnav.com)

KABQ Flight Activity (Flightaware)

Listeners: 0 out of 2299 total

Albuquerque Approach/Departure (N of V12): 127.400

KABQ Del/Gnd (Archives)
Albuquerque, New Mexico, United States

Feed Status: UP
Listen in your browser - HTML5 player(in browser, HTML5)
Click here to listen with your own player(launches your MP3 player)

KABQ 230952Z 13007KT 10SM FEW140 FEW250 14/M03 A3001 RMK AO2 SLP089 T01441028 $

KABQ Airport Info (Airnav.com)

KABQ Flight Activity (Flightaware)

Listeners: 0 out of 2299 total

Albuquerque Clearance Delivery: 119.200
Albuquerque Ground: 121.900

KABQ Tower (Archives)
Albuquerque, New Mexico, United States

Feed Status: UP
Listen in your browser - HTML5 player(in browser, HTML5)
Click here to listen with your own player(launches your MP3 player)

KABQ 230952Z 13007KT 10SM FEW140 FEW250 14/M03 A3001 RMK AO2 SLP089 T01441028 $

KABQ Airport Info (Airnav.com)

KABQ Flight Activity (Flightaware)

Listeners: 0 out of 2299 total

Albuquerque Tower: 120.300

KABQ Tower #2 (Archives)
Albuquerque, New Mexico, United States

Feed Status: UP
Listen in your browser - HTML5 player(in browser, HTML5)
Click here to listen with your own player(launches your MP3 player)

KABQ 230952Z 13007KT 10SM FEW140 FEW250 14/M03 A3001 RMK AO2 SLP089 T01441028 $

KABQ Airport Info (Airnav.com)

KABQ Flight Activity (Flightaware)

Listeners: 0 out of 2299 total

Albuquerque Tower: 120.300

KABQ Twr/App/ZAB (Archives)
Albuquerque, New Mexico, United States

Feed Status: UP
Listen in your browser - HTML5 player(in browser, HTML5)
Click here to listen with your own player(launches your MP3 player)

KABQ 230952Z 13007KT 10SM FEW140 FEW250 14/M03 A3001 RMK AO2 SLP089 T01441028 $

KABQ Airport Info (Airnav.com)

KABQ Flight Activity (Flightaware)

Listeners: 5 out of 2299 total

Albuquerque Approach (South): 126.300
Albuquerque Approach/Departure (N of V12): 127.400
Albuquerque Approach/Departure (S of V12): 123.900
Albuquerque Clearance Delivery: 119.200
Albuquerque Tower: 120.300
Albuquerque Tower (South): 123.775
Albuquerque UNICOM: 122.950
ZAB Albuquerque Center Sector 16 SAN-L: 132.800
ZAB Albuquerque Center Sector 17 LAVA-L: 124.325
ZAB Albuquerque Center Sector 94 CNX-LH: 133.650

KACY App/Dep (Archives)
Atlantic City, New Jersey, United States

Feed Status: UP
Listen in your browser - HTML5 player(in browser, HTML5)
Click here to listen with your own player(launches your MP3 player)

KACY 230954Z 00000KT 10SM CLR 01/M01 A3017

KACY Airport Info (Airnav.com)

KACY Flight Activity (Flightaware)

Listeners: 1 out of 2299 total

Atlantic City Approach/Departure: 124.600
Atlantic City Approach/Departure: 134.250
Atlantic City Approach/Departure: 385.500
Atlantic City Approach/Departure: 327.125

KACY ATIS (Archives)
Atlantic City, New Jersey, United States

Feed Status: UP
Listen in your browser - HTML5 player(in browser, HTML5)
Click here to listen with your own player(launches your MP3 player)

KACY 230954Z 00000KT 10SM CLR 01/M01 A3017

KACY Airport Info (Airnav.com)

KACY Flight Activity (Flightaware)

Listeners: 0 out of 2299 total

Atlantic City ATIS: 125.725

KACY Clearance Delivery (Archives)
Atlantic City, New Jersey, United States

Feed Status: UP
Listen in your browser - HTML5 player(in browser, HTML5)
Click here to listen with your own player(launches your MP3 player)

KACY 230954Z 00000KT 10SM CLR 01/M01 A3017

KACY Airport Info (Airnav.com)

KACY Flight Activity (Flightaware)

Listeners: 0 out of 2299 total

Atlantic City Clearance: 127.850

KACY GIANT KILLER (Archives)
Atlantic City, New Jersey, United States

Feed Status: UP
Listen in your browser - HTML5 player(in browser, HTML5)
Click here to listen with your own player(launches your MP3 player)

KACY 230954Z 00000KT 10SM CLR 01/M01 A3017

KACY Airport Info (Airnav.com)

KACY Flight Activity (Flightaware)

Listeners: 0 out of 2299 total

GIANT KILLER Common Area (Air-Air): 337.225
GIANT KILLER W-105/W-106 Check In/Out: 135.225
GIANT KILLER W-105/W-106 Check In/Out: 338.100
GIANT KILLER W-105/W-106 Common Area: 305.250
GIANT KILLER W-107 Check In/Out: 135.725
GIANT KILLER W-107 Check In/Out: 255.000
GIANT KILLER W-107 Common Area: 339.725
GIANT KILLER W-386 Common Area (A through F): 312.200
GIANT KILLER W-386 Common Area (G through J): 350.050
GIANT KILLER W-386 Common Area (K) and W-387 Common Area (All): 346.600
GIANT KILLER W-386/W-387 Check In/Out: 118.125
GIANT KILLER W-386/W-387 Check In/Out (Primary): 238.100
GIANT KILLER W-386/W-387 Check In/Out (Secondary): 249.800

KACY Ground (Archives)
Atlantic City, New Jersey, United States

Feed Status: UP
Listen in your browser - HTML5 player(in browser, HTML5)
Click here to listen with your own player(launches your MP3 player)

KACY 230954Z 00000KT 10SM CLR 01/M01 A3017

KACY Airport Info (Airnav.com)

KACY Flight Activity (Flightaware)

Listeners: 0 out of 2299 total

Atlantic City Ground: 121.900

KACY Tower (Archives)
Atlantic City, New Jersey, United States

Feed Status: UP
Listen in your browser - HTML5 player(in browser, HTML5)
Click here to listen with your own player(launches your MP3 player)

KACY 230954Z 00000KT 10SM CLR 01/M01 A3017

KACY Airport Info (Airnav.com)

KACY Flight Activity (Flightaware)

Listeners: 0 out of 2299 total

Atlantic City Tower: 120.300

KALB Approach/Departure (Archives)
Albany, New York, United States

Feed Status: UP
Listen in your browser - HTML5 player(in browser, HTML5)
Click here to listen with your own player(launches your MP3 player)

KALB 230951Z 00000KT 10SM CLR 01/M04 A3014 RMK AO2 SLP209 T00111044

KALB Airport Info (Airnav.com)

KALB Flight Activity (Flightaware)

Listeners: 0 out of 2299 total

Albany Approach/Departure: 132.825
Albany Approach/Departure: 118.050
Albany Approach/Departure: 127.150

KALB ATIS (Archives)
Albany, New York, United States

Feed Status: UP
Listen in your browser - HTML5 player(in browser, HTML5)
Click here to listen with your own player(launches your MP3 player)

KALB 230951Z 00000KT 10SM CLR 01/M04 A3014 RMK AO2 SLP209 T00111044

KALB Airport Info (Airnav.com)

KALB Flight Activity (Flightaware)

Listeners: 0 out of 2299 total

Albany ATIS: 120.450

KALB Ground (Archives)
Albany, New York, United States

Feed Status: UP
Listen in your browser - HTML5 player(in browser, HTML5)
Click here to listen with your own player(launches your MP3 player)

KALB 230951Z 00000KT 10SM CLR 01/M04 A3014 RMK AO2 SLP209 T00111044

KALB Airport Info (Airnav.com)

KALB Flight Activity (Flightaware)

Listeners: 0 out of 2299 total

Albany Ground: 121.700

KALB Ground/Tower (Archives)
Albany, New York, United States

Feed Status: UP
Listen in your browser - HTML5 player(in browser, HTML5)
Click here to listen with your own player(launches your MP3 player)

KALB 230951Z 00000KT 10SM CLR 01/M04 A3014 RMK AO2 SLP209 T00111044

KALB Airport Info (Airnav.com)

KALB Flight Activity (Flightaware)

Listeners: 0 out of 2299 total

Albany Ground: 121.700
Albany Tower: 119.500

KALB Tower (Archives)
Albany, New York, United States

Feed Status: UP
Listen in your browser - HTML5 player(in browser, HTML5)
Click here to listen with your own player(launches your MP3 player)

KALB 230951Z 00000KT 10SM CLR 01/M04 A3014 RMK AO2 SLP209 T00111044

KALB Airport Info (Airnav.com)

KALB Flight Activity (Flightaware)

Listeners: 0 out of 2299 total

Albany Tower: 119.500

KAMA Twr/App/Center (Archives)
Amarillo, Texas, United States

Feed Status: UP
Listen in your browser - HTML5 player(in browser, HTML5)
Click here to listen with your own player(launches your MP3 player)

KAMA 230953Z AUTO 23018G29KT 10SM CLR 14/08 A2986 RMK AO2 PK WND 22029/0948 SLP066 T01390083

KAMA Airport Info (Airnav.com)

KAMA Flight Activity (Flightaware)

Listeners: 3 out of 2299 total

Albuquerque Center: 127.850
Amarillo Approach: 119.500
Amarillo Tower: 118.300

KAUG App/Center (Archives)
Augusta, Maine, United States

Feed Status: UP
Listen in your browser - HTML5 player(in browser, HTML5)
Click here to listen with your own player(launches your MP3 player)

KAUG 230953Z AUTO 17003KT 10SM CLR 01/M06 A3017 RMK AO2 SLP221 T00061056

KAUG Airport Info (Airnav.com)

KAUG Flight Activity (Flightaware)

Listeners: 1 out of 2299 total

Boston Center (Sector 02 Augusta High): 134.950
Emergency/Guard: 121.500
Portland Approach (Augusta): 128.350

KAUS App/Dep #1 (Archives)
Austin, Texas, United States

Feed Status: UP
Listen in your browser - HTML5 player(in browser, HTML5)
Click here to listen with your own player(launches your MP3 player)

KAUS 230953Z 00000KT 10SM CLR 11/11 A3005 RMK AO2 SLP174 T01110106

KAUS Airport Info (Airnav.com)

KAUS Flight Activity (Flightaware)

Listeners: 1 out of 2299 total

Austin Approach (Final): 125.325
Austin Approach (West): 119.000
Austin Approach/Departure (East): 127.225
Austin Approach/Departure (SE): 118.150
Austin Approach/Departure (South): 120.875

KAUS App/Dep (East) #1 (Archives)
Austin, Texas, United States

Feed Status: UP
Listen in your browser - HTML5 player(in browser, HTML5)
Click here to listen with your own player(launches your MP3 player)

KAUS 230953Z 00000KT 10SM CLR 11/11 A3005 RMK AO2 SLP174 T01110106

KAUS Airport Info (Airnav.com)

KAUS Flight Activity (Flightaware)

Listeners: 0 out of 2299 total

Austin Approach/Departure (East): 127.225

KAUS App/Dep (SE) (Archives)
Austin, Texas, United States

Feed Status: UP
Listen in your browser - HTML5 player(in browser, HTML5)
Click here to listen with your own player(launches your MP3 player)

KAUS 230953Z 00000KT 10SM CLR 11/11 A3005 RMK AO2 SLP174 T01110106

KAUS Airport Info (Airnav.com)

KAUS Flight Activity (Flightaware)

Listeners: 0 out of 2299 total

Austin Approach/Departure (SE): 118.150

KAUS App/Dep (South) #1 (Archives)
Austin, Texas, United States

Feed Status: UP
Listen in your browser - HTML5 player(in browser, HTML5)
Click here to listen with your own player(launches your MP3 player)

KAUS 230953Z 00000KT 10SM CLR 11/11 A3005 RMK AO2 SLP174 T01110106

KAUS Airport Info (Airnav.com)

KAUS Flight Activity (Flightaware)

Listeners: 0 out of 2299 total

Austin Approach/Departure (South): 120.875

KAUS App/Dep (West) #1 (Archives)
Austin, Texas, United States

Feed Status: UP
Listen in your browser - HTML5 player(in browser, HTML5)
Click here to listen with your own player(launches your MP3 player)

KAUS 230953Z 00000KT 10SM CLR 11/11 A3005 RMK AO2 SLP174 T01110106

KAUS Airport Info (Airnav.com)

KAUS Flight Activity (Flightaware)

Listeners: 0 out of 2299 total

Austin Approach (West): 119.000

KAUS ATIS (Archives)
Austin, Texas, United States

Feed Status: UP
Listen in your browser - HTML5 player(in browser, HTML5)
Click here to listen with your own player(launches your MP3 player)

KAUS 230953Z 00000KT 10SM CLR 11/11 A3005 RMK AO2 SLP174 T01110106

KAUS Airport Info (Airnav.com)

KAUS Flight Activity (Flightaware)

Listeners: 0 out of 2299 total

Austin ATIS: 124.400

KAUS Clearance Delivery #1 (Archives)
Austin, Texas, United States

Feed Status: UP
Listen in your browser - HTML5 player(in browser, HTML5)
Click here to listen with your own player(launches your MP3 player)

KAUS 230953Z 00000KT 10SM CLR 11/11 A3005 RMK AO2 SLP174 T01110106

KAUS Airport Info (Airnav.com)

KAUS Flight Activity (Flightaware)

Listeners: 0 out of 2299 total

Austin Clearance Delivery: 125.500

KAUS FBO (Atlantic Aviation) (Archives)
Austin, Texas, United States

Feed Status: UP
Listen in your browser - HTML5 player(in browser, HTML5)
Click here to listen with your own player(launches your MP3 player)

KAUS 230953Z 00000KT 10SM CLR 11/11 A3005 RMK AO2 SLP174 T01110106

KAUS Airport Info (Airnav.com)

KAUS Flight Activity (Flightaware)

Listeners: 0 out of 2299 total

Atlantic Aviation FBO: 130.225

KAUS FBO (Millionair) (Archives)
Austin, Texas, United States

Feed Status: UP
Listen in your browser - HTML5 player(in browser, HTML5)
Click here to listen with your own player(launches your MP3 player)

KAUS 230953Z 00000KT 10SM CLR 11/11 A3005 RMK AO2 SLP174 T01110106

KAUS Airport Info (Airnav.com)

KAUS Flight Activity (Flightaware)

Listeners: 0 out of 2299 total

Millionair FBO: 130.600

KAUS FBO (Signature) (Archives)
Austin, Texas, United States

Feed Status: UP
Listen in your browser - HTML5 player(in browser, HTML5)
Click here to listen with your own player(launches your MP3 player)

KAUS 230953Z 00000KT 10SM CLR 11/11 A3005 RMK AO2 SLP174 T01110106

KAUS Airport Info (Airnav.com)

KAUS Flight Activity (Flightaware)

Listeners: 0 out of 2299 total

Signature Aviation FBO: 130.375

KAUS Ground #1 (Archives)
Austin, Texas, United States

Feed Status: UP
Listen in your browser - HTML5 player(in browser, HTML5)
Click here to listen with your own player(launches your MP3 player)

KAUS 230953Z 00000KT 10SM CLR 11/11 A3005 RMK AO2 SLP174 T01110106

KAUS Airport Info (Airnav.com)

KAUS Flight Activity (Flightaware)

Listeners: 0 out of 2299 total

Austin Ground: 121.900

KAUS Ground (Secondary) #1 (Archives)
Austin, Texas, United States

Feed Status: UP
Listen in your browser - HTML5 player(in browser, HTML5)
Click here to listen with your own player(launches your MP3 player)

KAUS 230953Z 00000KT 10SM CLR 11/11 A3005 RMK AO2 SLP174 T01110106

KAUS Airport Info (Airnav.com)

KAUS Flight Activity (Flightaware)

Listeners: 0 out of 2299 total

KAUS Ground (Secondary) #1: 121.700

KAUS Helicopter (Archives)
Austin, Texas, United States

Feed Status: UP
Listen in your browser - HTML5 player(in browser, HTML5)
Click here to listen with your own player(launches your MP3 player)

KAUS 230953Z 00000KT 10SM CLR 11/11 A3005 RMK AO2 SLP174 T01110106

KAUS Airport Info (Airnav.com)

KAUS Flight Activity (Flightaware)

Listeners: 0 out of 2299 total

KAUS Helicopter: 119.850

KAUS Tower #1 (Archives)
Austin, Texas, United States

Feed Status: UP
Listen in your browser - HTML5 player(in browser, HTML5)
Click here to listen with your own player(launches your MP3 player)

KAUS 230953Z 00000KT 10SM CLR 11/11 A3005 RMK AO2 SLP174 T01110106

KAUS Airport Info (Airnav.com)

KAUS Flight Activity (Flightaware)

Listeners: 0 out of 2299 total

Austin Tower: 121.000

KAUS Tower (Emergency) (Archives)
Austin, Texas, United States

Feed Status: UP
Listen in your browser - HTML5 player(in browser, HTML5)
Click here to listen with your own player(launches your MP3 player)

KAUS 230953Z 00000KT 10SM CLR 11/11 A3005 RMK AO2 SLP174 T01110106

KAUS Airport Info (Airnav.com)

KAUS Flight Activity (Flightaware)

Listeners: 0 out of 2299 total

Austin Tower (Emergency): 128.350

KAUS Tower (Secondary) #1 (Archives)
Austin, Texas, United States

Feed Status: UP
Listen in your browser - HTML5 player(in browser, HTML5)
Click here to listen with your own player(launches your MP3 player)

KAUS 230953Z 00000KT 10SM CLR 11/11 A3005 RMK AO2 SLP174 T01110106

KAUS Airport Info (Airnav.com)

KAUS Flight Activity (Flightaware)

Listeners: 0 out of 2299 total

KAUS Tower (Secondary) #1: 118.225

KAVL Approach/Departure (Archives)
Asheville, North Carolina, United States

Feed Status: UP
Listen in your browser - HTML5 player(in browser, HTML5)
Click here to listen with your own player(launches your MP3 player)

KAVL 230954Z AUTO 00000KT 10SM CLR 01/M01 A3020 RMK AO2 SLP221 T00111006

KAVL Airport Info (Airnav.com)

KAVL Flight Activity (Flightaware)

Listeners: 0 out of 2299 total

Asheville Approach/Departure: 125.800
Asheville Approach/Departure: 124.650

KAVL ATIS (Archives)
Asheville, North Carolina, United States

Feed Status: UP
Listen in your browser - HTML5 player(in browser, HTML5)
Click here to listen with your own player(launches your MP3 player)

KAVL 230954Z AUTO 00000KT 10SM CLR 01/M01 A3020 RMK AO2 SLP221 T00111006

KAVL Airport Info (Airnav.com)

KAVL Flight Activity (Flightaware)

Listeners: 0 out of 2299 total

KAVL ATIS: 120.100

KAVL Gnd/Twr (Archives)
Asheville, North Carolina, United States

Feed Status: UP
Listen in your browser - HTML5 player(in browser, HTML5)
Click here to listen with your own player(launches your MP3 player)

KAVL 230954Z AUTO 00000KT 10SM CLR 01/M01 A3020 RMK AO2 SLP221 T00111006

KAVL Airport Info (Airnav.com)

KAVL Flight Activity (Flightaware)

Listeners: 0 out of 2299 total

Asheville Ground: 121.900
Asheville Tower: 121.100

KAVL Gnd/Twr/App (Archives)
Asheville, North Carolina, United States

Feed Status: UP
Listen in your browser - HTML5 player(in browser, HTML5)
Click here to listen with your own player(launches your MP3 player)

KAVL 230954Z AUTO 00000KT 10SM CLR 01/M01 A3020 RMK AO2 SLP221 T00111006

KAVL Airport Info (Airnav.com)

KAVL Flight Activity (Flightaware)

Listeners: 0 out of 2299 total

Asheville Approach/Departure: 124.650
Asheville Approach/Departure: 125.800
Asheville Ground: 121.900
Asheville Tower/CTAF: 121.100
Signature Aviation (FBO): 130.275

KAVL Ground (Archives)
Asheville, North Carolina, United States

Feed Status: UP
Listen in your browser - HTML5 player(in browser, HTML5)
Click here to listen with your own player(launches your MP3 player)

KAVL 230954Z AUTO 00000KT 10SM CLR 01/M01 A3020 RMK AO2 SLP221 T00111006

KAVL Airport Info (Airnav.com)

KAVL Flight Activity (Flightaware)

Listeners: 0 out of 2299 total

Asheville Ground: 121.900

KAVL Tower (Archives)
Asheville, North Carolina, United States

Feed Status: UP
Listen in your browser - HTML5 player(in browser, HTML5)
Click here to listen with your own player(launches your MP3 player)

KAVL 230954Z AUTO 00000KT 10SM CLR 01/M01 A3020 RMK AO2 SLP221 T00111006

KAVL Airport Info (Airnav.com)

KAVL Flight Activity (Flightaware)

Listeners: 0 out of 2299 total

Asheville Tower: 121.100

KBTL/KAZO Gnd/Twr/App
Kalamazoo, Michigan, United States

Feed Status: DOWN
Offline since: 2024-04-10 13:37:39 UTC

KBTL Airport Info (Airnav.com)

Battle Creek Ground: 121.700
Battle Creek Tower: 126.825
Kalamazoo Approach/Departure: 119.200
Kalamazoo Ground: 121.900
Kalamazoo Tower: 118.300

KBDL Approach/ANG (Archives)
Windsor Locks, Connecticut, United States

Feed Status: UP
Listen in your browser - HTML5 player(in browser, HTML5)
Click here to listen with your own player(launches your MP3 player)

KBDL 230951Z 00000KT 10SM FEW250 01/M04 A3016 RMK AO2 SLP215 T00111039

KBDL Airport Info (Airnav.com)

KBDL Flight Activity (Flightaware)

Listeners: 0 out of 2299 total

Bradley Approach (South): 127.800
Bradley Approach (South): 269.325
Bradley Approach (Spare): 127.225
Bradley Approach/Departure (North): 125.350
Bradley Approach/Departure (North): 281.500
Bradley Approach/Departure (West): 123.950
Bradley Approach/Departure (West): 290.550
Bradley Departure (South): 327.100
Bradley Departure (South): 323.200
CT ANG FURY Ops: 41.900
CT ANG FURY Ops: 139.200
CT ANG FURY Ops: 139.400
CT ANG FURY Ops: 243.900
CT ANG FURY Ops: 265.600
CT ANG SHARK Ops: 138.550
CT ANG SHARK Ops: 349.700
Emergency/Guard: 121.500
Emergency/Guard: 243.000

KBDL ATIS (Archives)
Windsor Locks, Connecticut, United States

Feed Status: UP
Listen in your browser - HTML5 player(in browser, HTML5)
Click here to listen with your own player(launches your MP3 player)

KBDL 230951Z 00000KT 10SM FEW250 01/M04 A3016 RMK AO2 SLP215 T00111039

KBDL Airport Info (Airnav.com)

KBDL Flight Activity (Flightaware)

Listeners: 0 out of 2299 total

Bradley ATIS: 118.150

KBDL Del/Gnd (Archives)
Windsor Locks, Connecticut, United States

Feed Status: UP
Listen in your browser - HTML5 player(in browser, HTML5)
Click here to listen with your own player(launches your MP3 player)

KBDL 230951Z 00000KT 10SM FEW250 01/M04 A3016 RMK AO2 SLP215 T00111039

KBDL Airport Info (Airnav.com)

KBDL Flight Activity (Flightaware)

Listeners: 0 out of 2299 total

Bradley Clearance Delivery: 121.750
Bradley Ground: 121.900
Emergency/Guard: 121.500

KBDL Tower (Archives)
Windsor Locks, Connecticut, United States

Feed Status: UP
Listen in your browser - HTML5 player(in browser, HTML5)
Click here to listen with your own player(launches your MP3 player)

KBDL 230951Z 00000KT 10SM FEW250 01/M04 A3016 RMK AO2 SLP215 T00111039

KBDL Airport Info (Airnav.com)

KBDL Flight Activity (Flightaware)

Listeners: 1 out of 2299 total

Bradley Tower: 120.300

KBDL Twr/App (Archives)
Windsor Locks, Connecticut, United States

Feed Status: UP
Listen in your browser - HTML5 player(in browser, HTML5)
Click here to listen with your own player(launches your MP3 player)

KBDL 230951Z 00000KT 10SM FEW250 01/M04 A3016 RMK AO2 SLP215 T00111039

KBDL Airport Info (Airnav.com)

KBDL Flight Activity (Flightaware)

Listeners: 2 out of 2299 total

Bradley Approach (South): 127.800
Bradley Approach (South): 269.325
Bradley Approach (Spare): 127.225
Bradley Approach/Departure (North): 125.350
Bradley Approach/Departure (North): 281.500
Bradley Approach/Departure (West): 290.550
Bradley Approach/Departure (West): 123.950
Bradley Tower: 120.300
CT ANG FURY Ops: 41.900
CT ANG FURY Ops: 265.600
CT ANG FURY Ops: 243.900
CT ANG FURY Ops: 139.400
CT ANG FURY Ops: 139.200
CT ANG SHARK Ops: 349.700
CT ANG SHARK Ops: 138.550
Emergency/Guard: 243.000
Emergency/Guard: 121.500

KBGR App/Dep (Archives)
Bangor, Maine, United States

Feed Status: UP
Listen in your browser - HTML5 player(in browser, HTML5)
Click here to listen with your own player(launches your MP3 player)

KBGR 230953Z 21004KT 10SM FEW200 00/M07 A3018 RMK AO2 SLP220 T00001067

KBGR Airport Info (Airnav.com)

KBGR Flight Activity (Flightaware)

Listeners: 0 out of 2299 total

Bangor Approach: 118.925
Bangor Approach: 124.500
Bangor Approach: 133.600
Bangor Approach: 239.300

KBGR ATIS (Archives)
Bangor, Maine, United States

Feed Status: UP
Listen in your browser - HTML5 player(in browser, HTML5)
Click here to listen with your own player(launches your MP3 player)

KBGR 230953Z 21004KT 10SM FEW200 00/M07 A3018 RMK AO2 SLP220 T00001067

KBGR Airport Info (Airnav.com)

KBGR Flight Activity (Flightaware)

Listeners: 0 out of 2299 total

Bangor ATIS: 127.750

KBGR Del/Gnd/Twr (Archives)
Bangor, Maine, United States

Feed Status: UP
Listen in your browser - HTML5 player(in browser, HTML5)
Click here to listen with your own player(launches your MP3 player)

KBGR 230953Z 21004KT 10SM FEW200 00/M07 A3018 RMK AO2 SLP220 T00001067

KBGR Airport Info (Airnav.com)

KBGR Flight Activity (Flightaware)

Listeners: 0 out of 2299 total

Bangor Clearance Delivery: 135.900
Bangor Ground: 121.900
Bangor Tower: 120.700

KBHM Del/Gnd/Twr/App (Archives)
Birmingham, Alabama, United States

Feed Status: UP
Listen in your browser - HTML5 player(in browser, HTML5)
Click here to listen with your own player(launches your MP3 player)

KBHM 230953Z 00000KT 10SM CLR 06/03 A3020 RMK AO2 SLP223 T00610028

KBHM Airport Info (Airnav.com)

KBHM Flight Activity (Flightaware)

Listeners: 1 out of 2299 total

Birmingham Approach/Departure: 127.675
Birmingham Approach/Departure: 123.800
Birmingham Clearance Delivery: 125.675
Birmingham Ground: 121.700
Birmingham Tower: 118.250
Birmingham Tower: 119.900

KBIL Approach (West) (Archives)
Billings, Montana, United States

Feed Status: UP
Listen in your browser - HTML5 player(in browser, HTML5)
Click here to listen with your own player(launches your MP3 player)

KBIL 230953Z 23009KT 10SM CLR 04/M10 A3006 RMK AO2 SLP181 T00391100

KBIL Airport Info (Airnav.com)

KBIL Flight Activity (Flightaware)

Listeners: 1 out of 2299 total

Billing Approach (West): 120.500

KBIL Ground (Archives)
Billings, Montana, United States

Feed Status: UP
Listen in your browser - HTML5 player(in browser, HTML5)
Click here to listen with your own player(launches your MP3 player)

KBIL 230953Z 23009KT 10SM CLR 04/M10 A3006 RMK AO2 SLP181 T00391100

KBIL Airport Info (Airnav.com)

KBIL Flight Activity (Flightaware)

Listeners: 0 out of 2299 total

Billings Ground: 121.900

KBIL Tower (Archives)
Billings, Montana, United States

Feed Status: UP
Listen in your browser - HTML5 player(in browser, HTML5)
Click here to listen with your own player(launches your MP3 player)

KBIL 230953Z 23009KT 10SM CLR 04/M10 A3006 RMK AO2 SLP181 T00391100

KBIL Airport Info (Airnav.com)

KBIL Flight Activity (Flightaware)

Listeners: 2 out of 2299 total

Billings Tower: 127.200

KBNA App/Dep (Archives)
Nashville, Tennessee, United States

Feed Status: UP
Listen in your browser - HTML5 player(in browser, HTML5)
Click here to listen with your own player(launches your MP3 player)

KBNA 230953Z 17007KT 10SM FEW250 06/02 A3014 RMK AO2 SLP204 T00610022 $

KBNA Airport Info (Airnav.com)

KBNA Flight Activity (Flightaware)

Listeners: 0 out of 2299 total

Nashville App/Dep (East): 118.400
Nashville App/Dep (West): 119.350
Nashville Approach (Final): 124.750

KBNA App/Dep (East) (Archives)
Nashville, Tennessee, United States

Feed Status: UP
Listen in your browser - HTML5 player(in browser, HTML5)
Click here to listen with your own player(launches your MP3 player)

KBNA 230953Z 17007KT 10SM FEW250 06/02 A3014 RMK AO2 SLP204 T00610022 $

KBNA Airport Info (Airnav.com)

KBNA Flight Activity (Flightaware)

Listeners: 0 out of 2299 total

Nashville App/Dep (East): 118.400

KBNA Gnd/Twr (Archives)
Nashville, Tennessee, United States

Feed Status: UP
Listen in your browser - HTML5 player(in browser, HTML5)
Click here to listen with your own player(launches your MP3 player)

KBNA 230953Z 17007KT 10SM FEW250 06/02 A3014 RMK AO2 SLP204 T00610022 $

KBNA Airport Info (Airnav.com)

KBNA Flight Activity (Flightaware)

Listeners: 0 out of 2299 total

Nashville Ground: 121.900
Nashville Tower: 118.600

KBOI Del/Gnd (Archives)
Boise, Idaho, United States

Feed Status: UP
Listen in your browser - HTML5 player(in browser, HTML5)
Click here to listen with your own player(launches your MP3 player)

KBOI 230953Z 13004KT 10SM CLR 05/M03 A2995 RMK AO2 SLP138 T00501028

KBOI Airport Info (Airnav.com)

KBOI Flight Activity (Flightaware)

Listeners: 0 out of 2299 total

Boise Clearance Delivery: 125.900
Boise Ground: 121.700

KBOI Twr/App (Archives)
Boise, Idaho, United States

Feed Status: UP
Listen in your browser - HTML5 player(in browser, HTML5)
Click here to listen with your own player(launches your MP3 player)

KBOI 230953Z 13004KT 10SM CLR 05/M03 A2995 RMK AO2 SLP138 T00501028

KBOI Airport Info (Airnav.com)

KBOI Flight Activity (Flightaware)

Listeners: 0 out of 2299 total

Boise Approach/Departure (North): 126.900
Boise Approach/Departure (South): 119.600
Boise Tower: 118.100

KBTR/KHZR/L38 Del/Gnd/Twr/App/CTAF
Baton Rouge, Louisiana, United States

Feed Status: DOWN
Offline since: 2023-10-29 21:18:22 UTC

KBTR 230953Z AUTO 00000KT 10SM CLR 08/07 A3013 RMK AO2 SLP203 T00830067

KBTR Airport Info (Airnav.com)

Baton Rouge Approach/Departure (East): 126.500
Baton Rouge Approach/Departure (Military): 278.300
Baton Rouge Approach/Departure (West): 120.300
Baton Rouge Clearance Delivery: 119.400
Baton Rouge Ground: 121.900
Baton Rouge Tower (Military): 257.800
Baton Rouge Tower/CTAF: 118.450
Baton Rouge UNICOM: 122.950
Houston Center (App/Dep when Approach closed): 338.250
Houston Center (App/Dep when Approach closed): 126.350
Louisiana Regional L38 CTAF: 123.000
United Airlines: 129.925

KBTV App/Dep (Archives)
Burlington, Vermont, United States

Feed Status: UP
Listen in your browser - HTML5 player(in browser, HTML5)
Click here to listen with your own player(launches your MP3 player)

KBTV 230954Z 19009KT 10SM CLR 06/M06 A3006 RMK AO2 SLP181 T00561061

KBTV Airport Info (Airnav.com)

KBTV Flight Activity (Flightaware)

Listeners: 0 out of 2299 total

Burlington Approach/Departure: 278.800
Burlington Approach/Departure: 121.100

KBTV ATIS (Archives)
Burlington, Vermont, United States

Feed Status: UP
Listen in your browser - HTML5 player(in browser, HTML5)
Click here to listen with your own player(launches your MP3 player)

KBTV 230954Z 19009KT 10SM CLR 06/M06 A3006 RMK AO2 SLP181 T00561061

KBTV Airport Info (Airnav.com)

KBTV Flight Activity (Flightaware)

Listeners: 0 out of 2299 total

Burlington ATIS: 123.800

KBTV Del/Gnd/Twr (Archives)
Burlington, Vermont, United States

Feed Status: UP
Listen in your browser - HTML5 player(in browser, HTML5)
Click here to listen with your own player(launches your MP3 player)

KBTV 230954Z 19009KT 10SM CLR 06/M06 A3006 RMK AO2 SLP181 T00561061

KBTV Airport Info (Airnav.com)

KBTV Flight Activity (Flightaware)

Listeners: 0 out of 2299 total

Burlington Clearance Delivery: 119.150
Burlington Ground: 126.300
Burlington Ground: 348.600
Burlington Tower: 118.300
Burlington Tower: 257.800

KBTV Del/Gnd/Twr/App #1 (Archives)
Burlington, Vermont, United States

Feed Status: UP
Listen in your browser - HTML5 player(in browser, HTML5)
Click here to listen with your own player(launches your MP3 player)

KBTV 230954Z 19009KT 10SM CLR 06/M06 A3006 RMK AO2 SLP181 T00561061

KBTV Airport Info (Airnav.com)

KBTV Flight Activity (Flightaware)

Listeners: 0 out of 2299 total

Burlington Approach/Departure: 278.800
Burlington Approach/Departure: 121.100
Burlington Clearance Delivery: 119.150
Burlington Ground: 126.300
Burlington Ground: 348.600
Burlington Tower: 257.800
Burlington Tower: 118.300

KBTV Del/Gnd/Twr/App #2 (Archives)
Burlington, Vermont, United States

Feed Status: UP
Listen in your browser - HTML5 player(in browser, HTML5)
Click here to listen with your own player(launches your MP3 player)

KBTV 230954Z 19009KT 10SM CLR 06/M06 A3006 RMK AO2 SLP181 T00561061

KBTV Airport Info (Airnav.com)

KBTV Flight Activity (Flightaware)

Listeners: 0 out of 2299 total

Burlington Clearance Delivery: 119.150
Burlington Ground: 126.300
Burlington Tower: 118.300

KBUF Gnd/Twr/App (Archives)
Buffalo, New York, United States

Feed Status: UP
Listen in your browser - HTML5 player(in browser, HTML5)
Click here to listen with your own player(launches your MP3 player)

KBUF 230954Z 20009KT 10SM CLR 08/M02 A2998 RMK AO2 SLP154 T00831022 $

KBUF Airport Info (Airnav.com)

KBUF Flight Activity (Flightaware)

Listeners: 2 out of 2299 total

Buffalo Approach: 126.500
Buffalo Approach: 126.150
Buffalo Ground: 133.200
Buffalo Tower: 120.500

KBUR Gnd/Twr/App
Burbank, California, United States

Feed Status: DOWN
Offline since: 2023-05-09 00:37:05 UTC

KBUR 230953Z 17005KT 4SM BR SCT014 OVC019 14/12 A2994 RMK AO2 SLP129 T01390117

KBUR Airport Info (Airnav.com)

KBUR Ground: 123.900
KBUR Tower: 118.700
SOCAL Approach (Moorpark Sector): 128.750
SOCAL Approach (Valley Sector): 124.600
SOCAL Approach (Woodland Sector): 134.200

KBUR Ground/Tower (Archives)
Burbank, California, United States

Feed Status: UP
Listen in your browser - HTML5 player(in browser, HTML5)
Click here to listen with your own player(launches your MP3 player)

KBUR 230953Z 17005KT 4SM BR SCT014 OVC019 14/12 A2994 RMK AO2 SLP129 T01390117

KBUR Airport Info (Airnav.com)

KBUR Flight Activity (Flightaware)

Listeners: 0 out of 2299 total

KBUR Ground: 123.900
KBUR Tower: 118.700

KCAK App/Dep (Archives)
Akron, Ohio, United States

Feed Status: UP
Listen in your browser - HTML5 player(in browser, HTML5)
Click here to listen with your own player(launches your MP3 player)

KCAK 230951Z 19007KT 10SM OVC180 07/M03 A3003 RMK AO2 SLP171 T00721033

KCAK Airport Info (Airnav.com)

KCAK Flight Activity (Flightaware)

Listeners: 0 out of 2299 total

Cleveland Approach (Final): 126.400
Cleveland Approach/Departure: 118.600
Cleveland Approach/Departure: 125.500
Cleveland Approach/Departure (backup): 127.050

KCAK ATIS (Archives)
Akron, Ohio, United States

Feed Status: UP
Listen in your browser - HTML5 player(in browser, HTML5)
Click here to listen with your own player(launches your MP3 player)

KCAK 230951Z 19007KT 10SM OVC180 07/M03 A3003 RMK AO2 SLP171 T00721033

KCAK Airport Info (Airnav.com)

KCAK Flight Activity (Flightaware)

Listeners: 0 out of 2299 total

Akron-Canton ATIS: 121.050

KCAK Del/Gnd/Twr (Archives)
Akron, Ohio, United States

Feed Status: UP
Listen in your browser - HTML5 player(in browser, HTML5)
Click here to listen with your own player(launches your MP3 player)

KCAK 230951Z 19007KT 10SM OVC180 07/M03 A3003 RMK AO2 SLP171 T00721033

KCAK Airport Info (Airnav.com)

KCAK Flight Activity (Flightaware)

Listeners: 0 out of 2299 total

Akron-Canton Clearance: 132.050
Akron-Canton Ground: 121.700
Akron-Canton Tower: 134.750
Emergency/Guard: 121.500

KCHA Twr/App (Archives)
Chattanooga, Tennessee, United States

Feed Status: UP
Listen in your browser - HTML5 player(in browser, HTML5)
Click here to listen with your own player(launches your MP3 player)

KCHA 230953Z 00000KT 10SM SCT250 06/03 A3019 RMK AO2 SLP220 T00610033

KCHA Airport Info (Airnav.com)

KCHA Flight Activity (Flightaware)

Listeners: 0 out of 2299 total

Chattanooga Approach/Departure: 119.200
Chattanooga Approach/Departure: 125.100
Chattanooga Tower: 118.300

KCHS Gnd/Twr/App (Archives)
Charleston, South Carolina, United States

Feed Status: UP
Listen in your browser - HTML5 player(in browser, HTML5)
Click here to listen with your own player(launches your MP3 player)

KCHS 230956Z 32004KT 10SM CLR 06/04 A3021 RMK AO2 SLP228 T00610039

KCHS Airport Info (Airnav.com)

KCHS Flight Activity (Flightaware)

Listeners: 5 out of 2299 total

Charleston Approach/Departure: 306.925
Charleston Approach/Departure: 120.700
Charleston Approach/Departure: 379.925
Charleston Approach/Departure: 119.300
Charleston Ground: 121.900
Charleston Ground: 348.600
Charleston Tower: 239.000
Charleston Tower: 126.000
Emergency/Guard: 121.500
Emergency/Guard: 243.000

KCID Gnd/Twr/App/KIOW (Archives)
Cedar Rapids, Iowa, United States

Feed Status: UP
Listen in your browser - HTML5 player(in browser, HTML5)
Click here to listen with your own player(launches your MP3 player)

KCID 230952Z 22007KT 10SM CLR 09/04 A2974 RMK AO2 SLP071 T00940039

KCID Airport Info (Airnav.com)

KCID Flight Activity (Flightaware)

Listeners: 1 out of 2299 total

Cedar Rapids Approach (091-269): 119.700
Cedar Rapids Approach (270-090): 134.050
Cedar Rapids Clearance Delivery: 125.450
Cedar Rapids Ground (0500-2330): 121.600
Cedar Rapids Tower (0500-2330): 118.700
UNICOM C17 (Marion) and surrounding area: 122.700
UNICOM IA24 Green Castle: 122.900
UNICOM KIOW (Iowa City) and surrounding area: 122.800

KCMH App/Dep (118.0) (Archives)
Columbus, Ohio, United States

Feed Status: UP
Listen in your browser - HTML5 player(in browser, HTML5)
Click here to listen with your own player(launches your MP3 player)

KCMH 230951Z 19007KT 10SM BKN170 09/00 A3004 RMK AO2 SLP174 T00890000 $

KCMH Airport Info (Airnav.com)

KCMH Flight Activity (Flightaware)

Listeners: 0 out of 2299 total

Columbus Approach (Backup): 118.000

KCMH App/Dep (118.2) (Archives)
Columbus, Ohio, United States

Feed Status: UP
Listen in your browser - HTML5 player(in browser, HTML5)
Click here to listen with your own player(launches your MP3 player)

KCMH 230951Z 19007KT 10SM BKN170 09/00 A3004 RMK AO2 SLP174 T00890000 $

KCMH Airport Info (Airnav.com)

KCMH Flight Activity (Flightaware)

Listeners: 0 out of 2299 total

Columbus Approach (Backup): 118.200

KCMH App/Dep (119.65) (Archives)
Columbus, Ohio, United States

Feed Status: UP
Listen in your browser - HTML5 player(in browser, HTML5)
Click here to listen with your own player(launches your MP3 player)

KCMH 230951Z 19007KT 10SM BKN170 09/00 A3004 RMK AO2 SLP174 T00890000 $

KCMH Airport Info (Airnav.com)

KCMH Flight Activity (Flightaware)

Listeners: 0 out of 2299 total

Columbus Approach (Backup): 119.650

KCMH App/Dep (120.2) (Archives)
Columbus, Ohio, United States

Feed Status: UP
Listen in your browser - HTML5 player(in browser, HTML5)
Click here to listen with your own player(launches your MP3 player)

KCMH 230951Z 19007KT 10SM BKN170 09/00 A3004 RMK AO2 SLP174 T00890000 $

KCMH Airport Info (Airnav.com)

KCMH Flight Activity (Flightaware)

Listeners: 0 out of 2299 total

Columbus Approach (North Satellite): 120.200

KCMH App/Dep (125.95) (Archives)
Columbus, Ohio, United States

Feed Status: UP
Listen in your browser - HTML5 player(in browser, HTML5)
Click here to listen with your own player(launches your MP3 player)

KCMH 230951Z 19007KT 10SM BKN170 09/00 A3004 RMK AO2 SLP174 T00890000 $

KCMH Airport Info (Airnav.com)

KCMH Flight Activity (Flightaware)

Listeners: 0 out of 2299 total

Columbus Approach/Departure (North): 125.950

KCMH App/Dep (132.3) (Archives)
Columbus, Ohio, United States

Feed Status: UP
Listen in your browser - HTML5 player(in browser, HTML5)
Click here to listen with your own player(launches your MP3 player)

KCMH 230951Z 19007KT 10SM BKN170 09/00 A3004 RMK AO2 SLP174 T00890000 $

KCMH Airport Info (Airnav.com)

KCMH Flight Activity (Flightaware)

Listeners: 0 out of 2299 total


KCMH App/Dep (134.0) (Archives)
Columbus, Ohio, United States

Feed Status: UP
Listen in your browser - HTML5 player(in browser, HTML5)
Click here to listen with your own player(launches your MP3 player)

KCMH 230951Z 19007KT 10SM BKN170 09/00 A3004 RMK AO2 SLP174 T00890000 $

KCMH Airport Info (Airnav.com)

KCMH Flight Activity (Flightaware)

Listeners: 1 out of 2299 total

Columbus Approach (South): 134.000

KCMH App/Dep (South/UHF)
Columbus, Ohio, United States

Feed Status: DOWN
Offline since: 2024-01-16 18:27:05 UTC

KCMH 230951Z 19007KT 10SM BKN170 09/00 A3004 RMK AO2 SLP174 T00890000 $

KCMH Airport Info (Airnav.com)

Columbus Approach/Departure (South/Mil): 279.600

KCMH ATIS #1 (Archives)
Columbus, Ohio, United States

Feed Status: UP
Listen in your browser - HTML5 player(in browser, HTML5)
Click here to listen with your own player(launches your MP3 player)

KCMH 230951Z 19007KT 10SM BKN170 09/00 A3004 RMK AO2 SLP174 T00890000 $

KCMH Airport Info (Airnav.com)

KCMH Flight Activity (Flightaware)

Listeners: 0 out of 2299 total

Columbus ATIS: 124.600

KCMH ATIS #2 (Archives)
Columbus, Ohio, United States

Feed Status: UP
Listen in your browser - HTML5 player(in browser, HTML5)
Click here to listen with your own player(launches your MP3 player)

KCMH 230951Z 19007KT 10SM BKN170 09/00 A3004 RMK AO2 SLP174 T00890000 $

KCMH Airport Info (Airnav.com)

KCMH Flight Activity (Flightaware)

Listeners: 0 out of 2299 total

Columbus ATIS: 124.600

KCMH Clearance Delivery #1 (Archives)
Columbus, Ohio, United States

Feed Status: UP
Listen in your browser - HTML5 player(in browser, HTML5)
Click here to listen with your own player(launches your MP3 player)

KCMH 230951Z 19007KT 10SM BKN170 09/00 A3004 RMK AO2 SLP174 T00890000 $

KCMH Airport Info (Airnav.com)

KCMH Flight Activity (Flightaware)

Listeners: 0 out of 2299 total

Columbus Clearance Delivery: 126.300

KCMH Clearance Delivery #2 (Archives)
Columbus, Ohio, United States

Feed Status: UP
Listen in your browser - HTML5 player(in browser, HTML5)
Click here to listen with your own player(launches your MP3 player)

KCMH 230951Z 19007KT 10SM BKN170 09/00 A3004 RMK AO2 SLP174 T00890000 $

KCMH Airport Info (Airnav.com)

KCMH Flight Activity (Flightaware)

Listeners: 0 out of 2299 total

Columbus Clearance Delivery: 126.300

KCMH De-Ice (Archives)
Columbus, Ohio, United States

Feed Status: UP
Listen in your browser - HTML5 player(in browser, HTML5)
Click here to listen with your own player(launches your MP3 player)

KCMH 230951Z 19007KT 10SM BKN170 09/00 A3004 RMK AO2 SLP174 T00890000 $

KCMH Airport Info (Airnav.com)

KCMH Flight Activity (Flightaware)

Listeners: 0 out of 2299 total

Columbus De-Ice: 122.775

KCMH Del/Gnd/Twr (Archives)
Columbus, Ohio, United States

Feed Status: UP
Listen in your browser - HTML5 player(in browser, HTML5)
Click here to listen with your own player(launches your MP3 player)

KCMH 230951Z 19007KT 10SM BKN170 09/00 A3004 RMK AO2 SLP174 T00890000 $

KCMH Airport Info (Airnav.com)

KCMH Flight Activity (Flightaware)

Listeners: 1 out of 2299 total

Columbus Clearance Delivery: 126.300
Columbus Ground: 121.900
Columbus Tower: 132.700
Columbus Tower: 257.800

KCMH Emergency/Guard #1 (Archives)
Columbus, Ohio, United States

Feed Status: UP
Listen in your browser - HTML5 player(in browser, HTML5)
Click here to listen with your own player(launches your MP3 player)

KCMH 230951Z 19007KT 10SM BKN170 09/00 A3004 RMK AO2 SLP174 T00890000 $

KCMH Airport Info (Airnav.com)

KCMH Flight Activity (Flightaware)

Listeners: 0 out of 2299 total

Emergency/Guard: 121.500

KCMH Emergency/Guard #2 (Archives)
Columbus, Ohio, United States

Feed Status: UP
Listen in your browser - HTML5 player(in browser, HTML5)
Click here to listen with your own player(launches your MP3 player)

KCMH 230951Z 19007KT 10SM BKN170 09/00 A3004 RMK AO2 SLP174 T00890000 $

KCMH Airport Info (Airnav.com)

KCMH Flight Activity (Flightaware)

Listeners: 0 out of 2299 total

Emergency/Guard: 121.500

KCMH Ground #1 (Archives)
Columbus, Ohio, United States

Feed Status: UP
Listen in your browser - HTML5 player(in browser, HTML5)
Click here to listen with your own player(launches your MP3 player)

KCMH 230951Z 19007KT 10SM BKN170 09/00 A3004 RMK AO2 SLP174 T00890000 $

KCMH Airport Info (Airnav.com)

KCMH Flight Activity (Flightaware)

Listeners: 0 out of 2299 total

Columbus Ground: 121.900

KCMH Ground #2 (Archives)
Columbus, Ohio, United States

Feed Status: UP
Listen in your browser - HTML5 player(in browser, HTML5)
Click here to listen with your own player(launches your MP3 player)

KCMH 230951Z 19007KT 10SM BKN170 09/00 A3004 RMK AO2 SLP174 T00890000 $

KCMH Airport Info (Airnav.com)

KCMH Flight Activity (Flightaware)

Listeners: 0 out of 2299 total

Columbus Ground: 121.900

KCMH Tower #1 (Archives)
Columbus, Ohio, United States

Feed Status: UP
Listen in your browser - HTML5 player(in browser, HTML5)
Click here to listen with your own player(launches your MP3 player)

KCMH 230951Z 19007KT 10SM BKN170 09/00 A3004 RMK AO2 SLP174 T00890000 $

KCMH Airport Info (Airnav.com)

KCMH Flight Activity (Flightaware)

Listeners: 0 out of 2299 total

Columbus Tower: 132.700

KCMH Tower #2 (Archives)
Columbus, Ohio, United States

Feed Status: UP
Listen in your browser - HTML5 player(in browser, HTML5)
Click here to listen with your own player(launches your MP3 player)

KCMH 230951Z 19007KT 10SM BKN170 09/00 A3004 RMK AO2 SLP174 T00890000 $

KCMH Airport Info (Airnav.com)

KCMH Flight Activity (Flightaware)

Listeners: 0 out of 2299 total

Columbus Tower: 132.700
Columbus Tower: 257.800

KCMH Twr/App/Dep (Archives)
Columbus, Ohio, United States

Feed Status: UP
Listen in your browser - HTML5 player(in browser, HTML5)
Click here to listen with your own player(launches your MP3 player)

KCMH 230951Z 19007KT 10SM BKN170 09/00 A3004 RMK AO2 SLP174 T00890000 $

KCMH Airport Info (Airnav.com)

KCMH Flight Activity (Flightaware)

Listeners: 1 out of 2299 total

Columbus Approach: 125.950
Columbus Approach (Backup): 118.000
Columbus Approach (Backup): 118.200
Columbus Approach (Backup): 119.650
Columbus Approach (South Satellite): 132.300
Columbus Approach (South): 134.000
Columbus Approach/Departure (North): 125.950
Columbus Tower: 132.700
Columbus Tower: 257.800

KCMI Del/Gnd/Twr/App/Misc (Archives)
Champaign/Urbana, Illinois, United States

Feed Status: UP
Listen in your browser - HTML5 player(in browser, HTML5)
Click here to listen with your own player(launches your MP3 player)

KCMI 230953Z AUTO 20015KT 10SM SCT070 12/02 A2991 RMK AO2 SLP126 T01220022

KCMI Airport Info (Airnav.com)

KCMI Flight Activity (Flightaware)

Listeners: 0 out of 2299 total

C16 Frasca Airport CTAF: 123.000
Champaign Approach/Departure (North): 121.350
Champaign Approach/Departure (South): 132.850
Champaign Clearance Delivery (Chicago Center, after hours): 128.750
Champaign Departure (Secondary): 133.975
Champaign Ground: 121.800
Champaign Tower: 120.400
Champaign UNICOM: 122.950

KCOS Gnd/Twr/App/Dep (Archives)
Colorado Springs, Colorado, United States

Feed Status: UP
Listen in your browser - HTML5 player(in browser, HTML5)
Click here to listen with your own player(launches your MP3 player)

KCOS 230954Z 01012KT 10SM FEW250 11/M02 A2997 RMK AO2 SLP077 T01061022

KCOS Airport Info (Airnav.com)

KCOS Flight Activity (Flightaware)

Listeners: 1 out of 2299 total

Springs Approach/Departure: 120.600
Springs Approach/Departure (East): 124.000
Springs Ground: 121.700
Springs Tower: 119.900
Springs Tower (East): 133.150

KCRP App/Dep (Archives)
Corpus Christi, Texas, United States

Feed Status: UP
Listen in your browser - HTML5 player(in browser, HTML5)
Click here to listen with your own player(launches your MP3 player)

KCRP 230951Z 10003KT 10SM FEW030 OVC065 19/17 A3004 RMK AO2 SLP171 T01940167

KCRP Airport Info (Airnav.com)

KCRP Flight Activity (Flightaware)

Listeners: 0 out of 2299 total

Corpus Christi Approach: 120.900
Corpus Christi Approach: 124.800
Corpus Christi Approach: 125.400

KCRP Del/Gnd/Twr (Archives)
Corpus Christi, Texas, United States

Feed Status: UP
Listen in your browser - HTML5 player(in browser, HTML5)
Click here to listen with your own player(launches your MP3 player)

KCRP 230951Z 10003KT 10SM FEW030 OVC065 19/17 A3004 RMK AO2 SLP171 T01940167

KCRP Airport Info (Airnav.com)

KCRP Flight Activity (Flightaware)

Listeners: 0 out of 2299 total

Corpus Christi Clearance Delivery: 118.550
Corpus Christi Ground: 121.900
Corpus Christi Tower: 119.400

KCRW Tower/Approach (Archives)
Charleston, West Virginia, United States

Feed Status: UP
Listen in your browser - HTML5 player(in browser, HTML5)
Click here to listen with your own player(launches your MP3 player)

KCRW 230954Z 00000KT 10SM CLR 02/M01 A3013 RMK AO2 SLP201 T00221006

KCRW Airport Info (Airnav.com)

KCRW Flight Activity (Flightaware)

Listeners: 2 out of 2299 total

Charleston Approach/Departure: 128.500
Charleston Approach/Departure (North): 124.100
Charleston Approach/Departure (South): 119.200
Charleston Clearance Delivery: 118.550
Charleston Ground: 121.800
Charleston Tower: 125.700
Emergency/Guard: 121.500

KDAB App/Dep (Archives)
Daytona Beach, Florida, United States

Feed Status: UP
Listen in your browser - HTML5 player(in browser, HTML5)
Click here to listen with your own player(launches your MP3 player)

KDAB 230953Z 00000KT 10SM FEW048 12/09 A3013 RMK AO2 SLP203 T01220094

KDAB Airport Info (Airnav.com)

KDAB Flight Activity (Flightaware)

Listeners: 1 out of 2299 total

Daytona Approach (East/Low): 123.900
Daytona Approach (North/High): 118.850
Daytona Approach (South/High): 127.075
Daytona Approach (West 8000-10000'): 125.725
Daytona Approach (West SFC-3500): 126.550
Daytona Approach/Departure (South): 125.350

KDAB App/Dep (All) (Archives)
Daytona Beach, Florida, United States

Feed Status: UP
Listen in your browser - HTML5 player(in browser, HTML5)
Click here to listen with your own player(launches your MP3 player)

KDAB 230953Z 00000KT 10SM FEW048 12/09 A3013 RMK AO2 SLP203 T01220094

KDAB Airport Info (Airnav.com)

KDAB Flight Activity (Flightaware)

Listeners: 1 out of 2299 total

Daytona Approach (East/Low): 123.900
Daytona Approach (North/High): 118.850
Daytona Approach (North/Low): 125.800
Daytona Approach (South/High): 127.075
Daytona Approach (West 8000-10000'): 125.725
Daytona Approach (West SFC-3500): 126.550
Daytona Approach/Departure (South): 125.350

KDAB Approach (North/Low) (Archives)
Daytona Beach, Florida, United States

Feed Status: UP
Listen in your browser - HTML5 player(in browser, HTML5)
Click here to listen with your own player(launches your MP3 player)

KDAB 230953Z 00000KT 10SM FEW048 12/09 A3013 RMK AO2 SLP203 T01220094

KDAB Airport Info (Airnav.com)

KDAB Flight Activity (Flightaware)

Listeners: 0 out of 2299 total

Daytona Approach (North/Low): 125.800

KDAB ATIS (Archives)
Daytona Beach, Florida, United States

Feed Status: UP
Listen in your browser - HTML5 player(in browser, HTML5)
Click here to listen with your own player(launches your MP3 player)

KDAB 230953Z 00000KT 10SM FEW048 12/09 A3013 RMK AO2 SLP203 T01220094

KDAB Airport Info (Airnav.com)

KDAB Flight Activity (Flightaware)

Listeners: 0 out of 2299 total

Daytona Beach ATIS: 132.875

KDAB Clearance/Ground (Archives)
Daytona Beach, Florida, United States

Feed Status: UP
Listen in your browser - HTML5 player(in browser, HTML5)
Click here to listen with your own player(launches your MP3 player)

KDAB 230953Z 00000KT 10SM FEW048 12/09 A3013 RMK AO2 SLP203 T01220094

KDAB Airport Info (Airnav.com)

KDAB Flight Activity (Flightaware)

Listeners: 0 out of 2299 total

Daytona Clearance: 119.300
Daytona Ground: 121.900

KDAB Tower (120.7) (Archives)
Daytona Beach, Florida, United States

Feed Status: UP
Listen in your browser - HTML5 player(in browser, HTML5)
Click here to listen with your own player(launches your MP3 player)

KDAB 230953Z 00000KT 10SM FEW048 12/09 A3013 RMK AO2 SLP203 T01220094

KDAB Airport Info (Airnav.com)

KDAB Flight Activity (Flightaware)

Listeners: 0 out of 2299 total

Daytona Tower (Primary 7L/25R): 120.700

KDAB Tower (Both) (Archives)
Daytona Beach, Florida, United States

Feed Status: UP
Listen in your browser - HTML5 player(in browser, HTML5)
Click here to listen with your own player(launches your MP3 player)

KDAB 230953Z 00000KT 10SM FEW048 12/09 A3013 RMK AO2 SLP203 T01220094

KDAB Airport Info (Airnav.com)

KDAB Flight Activity (Flightaware)

Listeners: 0 out of 2299 total

Daytona Tower (Primary 7L/25R): 120.700
Daytona Tower (Secondary 7R/25L): 118.100

KDAY Del/Gnd/Twr/App (Archives)
Dayton, Ohio, United States

Feed Status: UP
Listen in your browser - HTML5 player(in browser, HTML5)
Click here to listen with your own player(launches your MP3 player)

KDAY 230956Z 21011KT 10SM BKN150 11/01 A3001 RMK AO2 SLP162 T01060011

KDAY Airport Info (Airnav.com)

KDAY Flight Activity (Flightaware)

Listeners: 0 out of 2299 total

Aero Enroute Dayton: 129.200
Aero Enroute Dayton: 129.150
Aero Enroute Dayton: 131.025
Air-To-Air: 123.450
Air-to-Air: 122.750
Columbus Approach/Departure (Backup): 118.000
Columbus Approach/Departure (Backup): 370.875
Columbus Approach/Departure (Backup): 269.225
Columbus Approach/Departure (Backup): 127.225
Columbus Approach/Departure (Backup): 353.700
Columbus Approach/Departure (Northeast): 323.150
Columbus Approach/Departure (Northeast): 118.425
Columbus Approach/Departure (South Satellite): 327.125
Columbus Approach/Departure (South Satellite): 126.500
Columbus Approach/Departure (Southeast): 118.850
Columbus Approach/Departure (Southeast): 269.275
Columbus Approach/Departure (West): 305.200
Columbus Approach/Departure (West): 134.450
Dayton Clearance Delivery: 121.750
Dayton Ground: 121.900
Dayton Heli-to-Heli: 123.025
Dayton Tower: 257.700
Dayton Tower: 119.900
Emergency/Guard: 243.000
Emergency/Guard: 121.500
UNICOM: 122.950

KDMA/KTUS Twr/Ops/ZAB
Tucson, Arizona, United States

Feed Status: DOWN
Offline since: 2024-04-11 13:39:22 UTC

KTUS 230953Z 00000KT 10SM CLR 17/01 A2993 RMK AO2 SLP091 T01720006 $

KTUS Airport Info (Airnav.com)

357FS Ops: 139.725
358FS Ops: 138.500
Albuquerque Center (Sector 47 Silver City/Low/UHF): 327.150
Albuquerque Center (Sector 90 San Simon/High/UHF): 281.500
AWACS: 364.200
BigFoot: 234.800
BigFoot: 271.000
Davis-Monthan AFB: 253.500
Tucson 162FW SOS IOPS: 392.200
Tucson Tower (UHF): 257.800

KTUS Del/Gnd/Twr/App/KDMA (Archives)
Tucson, Arizona, United States

Feed Status: UP
Listen in your browser - HTML5 player(in browser, HTML5)
Click here to listen with your own player(launches your MP3 player)

KTUS 230953Z 00000KT 10SM CLR 17/01 A2993 RMK AO2 SLP091 T01720006 $

KTUS Airport Info (Airnav.com)

KTUS Flight Activity (Flightaware)

Listeners: 0 out of 2299 total

KDMA Tower: 118.850
Tucson Approach (alt): 124.000
Tucson Approach (East/South): 125.100
Tucson Approach (Mil): 269.550
Tucson Approach (North): 119.400
Tucson Approach (Practice Areas): 125.900
Tucson Clearance Delivery: 126.650
Tucson Ground: 120.025
Tucson Tower: 118.300
Tucson Tower (alt): 119.000

KDSM App/Dep (Archives)
Des Moines, Iowa, United States

Feed Status: UP
Listen in your browser - HTML5 player(in browser, HTML5)
Click here to listen with your own player(launches your MP3 player)

KDSM 230954Z 23005KT 10SM FEW075 BKN150 BKN200 09/04 A2977 RMK AO2 SLP079 T00940044

KDSM Airport Info (Airnav.com)

KDSM Flight Activity (Flightaware)

Listeners: 1 out of 2299 total

Des Moines Approach/Departure: 123.900

KDSM ATIS (Archives)
Des Moines, Iowa, United States

Feed Status: UP
Listen in your browser - HTML5 player(in browser, HTML5)
Click here to listen with your own player(launches your MP3 player)

KDSM 230954Z 23005KT 10SM FEW075 BKN150 BKN200 09/04 A2977 RMK AO2 SLP079 T00940044

KDSM Airport Info (Airnav.com)

KDSM Flight Activity (Flightaware)

Listeners: 0 out of 2299 total

Des Moines ATIS: 119.550

KDSM Ground (Archives)
Des Moines, Iowa, United States

Feed Status: UP
Listen in your browser - HTML5 player(in browser, HTML5)
Click here to listen with your own player(launches your MP3 player)

KDSM 230954Z 23005KT 10SM FEW075 BKN150 BKN200 09/04 A2977 RMK AO2 SLP079 T00940044

KDSM Airport Info (Airnav.com)

KDSM Flight Activity (Flightaware)

Listeners: 0 out of 2299 total

Des Moines Ground: 121.900

KDSM Tower (Archives)
Des Moines, Iowa, United States

Feed Status: UP
Listen in your browser - HTML5 player(in browser, HTML5)
Click here to listen with your own player(launches your MP3 player)

KDSM 230954Z 23005KT 10SM FEW075 BKN150 BKN200 09/04 A2977 RMK AO2 SLP079 T00940044

KDSM Airport Info (Airnav.com)

KDSM Flight Activity (Flightaware)

Listeners: 0 out of 2299 total

Des Moines Tower: 118.300

KELP App/Dep (North) (Archives)
El Paso, Texas, United States

Feed Status: UP
Listen in your browser - HTML5 player(in browser, HTML5)
Click here to listen with your own player(launches your MP3 player)

KELP 230951Z 00000KT 10SM FEW120 FEW250 19/05 A2996 RMK AO2 SLP075 T01940050

KELP Airport Info (Airnav.com)

KELP Flight Activity (Flightaware)

Listeners: 0 out of 2299 total

El Paso Approach/Departure (North): 124.250

KELP Approach (Archives)
El Paso, Texas, United States

Feed Status: UP
Listen in your browser - HTML5 player(in browser, HTML5)
Click here to listen with your own player(launches your MP3 player)

KELP 230951Z 00000KT 10SM FEW120 FEW250 19/05 A2996 RMK AO2 SLP075 T01940050

KELP Airport Info (Airnav.com)

KELP Flight Activity (Flightaware)

Listeners: 0 out of 2299 total

El Paso Approach/Departure: 119.150

KELP Gnd/Twr/App/Dep (Archives)
El Paso, Texas, United States

Feed Status: UP
Listen in your browser - HTML5 player(in browser, HTML5)
Click here to listen with your own player(launches your MP3 player)

KELP 230951Z 00000KT 10SM FEW120 FEW250 19/05 A2996 RMK AO2 SLP075 T01940050

KELP Airport Info (Airnav.com)

KELP Flight Activity (Flightaware)

Listeners: 0 out of 2299 total

El Paso Approach/Departure: 119.150
El Paso Approach/Departure: 124.250
El Paso Ground: 121.900
El Paso Tower: 118.300
El Paso Tower: 126.050

KELP Ground (Archives)
El Paso, Texas, United States

Feed Status: UP
Listen in your browser - HTML5 player(in browser, HTML5)
Click here to listen with your own player(launches your MP3 player)

KELP 230951Z 00000KT 10SM FEW120 FEW250 19/05 A2996 RMK AO2 SLP075 T01940050

KELP Airport Info (Airnav.com)

KELP Flight Activity (Flightaware)

Listeners: 0 out of 2299 total

El Paso Ground: 121.900

KELP Tower (Archives)
El Paso, Texas, United States

Feed Status: UP
Listen in your browser - HTML5 player(in browser, HTML5)
Click here to listen with your own player(launches your MP3 player)

KELP 230951Z 00000KT 10SM FEW120 FEW250 19/05 A2996 RMK AO2 SLP075 T01940050

KELP Airport Info (Airnav.com)

KELP Flight Activity (Flightaware)

Listeners: 0 out of 2299 total

El Paso Tower: 118.300

KEVV Del/Gnd/Twr/App (Archives)
Evansville, Indiana, United States

Feed Status: UP
Listen in your browser - HTML5 player(in browser, HTML5)
Click here to listen with your own player(launches your MP3 player)

KEVV 230954Z AUTO 19006KT 10SM CLR 10/03 A3005 RMK AO2 SLP175 T01000028

KEVV Airport Info (Airnav.com)

KEVV Flight Activity (Flightaware)

Listeners: 0 out of 2299 total

Evansville Approach: 124.025
Evansville Approach: 127.350
Evansville Clearance Delivery : 126.600
Evansville Ground : 121.900
Evansville Tower: 118.700

KFAT App/Dep (Archives)
Fresno, California, United States

Feed Status: UP
Listen in your browser - HTML5 player(in browser, HTML5)
Click here to listen with your own player(launches your MP3 player)

KFAT 230953Z 33006KT 10SM FEW080 FEW200 15/09 A2983 RMK AO2 SLP097 T01500089

KFAT Airport Info (Airnav.com)

KFAT Flight Activity (Flightaware)

Listeners: 0 out of 2299 total

Fresno Approach/Departure: 118.500
Fresno Approach/Departure: 132.350
Fresno Approach/Departure (IFR pickup KFCH): 119.000
Fresno Approach/Departure (North): 119.600

KFAT ATIS (Archives)
Fresno, California, United States

Feed Status: UP
Listen in your browser - HTML5 player(in browser, HTML5)
Click here to listen with your own player(launches your MP3 player)

KFAT 230953Z 33006KT 10SM FEW080 FEW200 15/09 A2983 RMK AO2 SLP097 T01500089

KFAT Airport Info (Airnav.com)

KFAT Flight Activity (Flightaware)

Listeners: 0 out of 2299 total

Fresno ATIS: 121.350

KFAT Del/Gnd/Twr (Archives)
Fresno, California, United States

Feed Status: UP
Listen in your browser - HTML5 player(in browser, HTML5)
Click here to listen with your own player(launches your MP3 player)

KFAT 230953Z 33006KT 10SM FEW080 FEW200 15/09 A2983 RMK AO2 SLP097 T01500089

KFAT Airport Info (Airnav.com)

KFAT Flight Activity (Flightaware)

Listeners: 0 out of 2299 total

Fresno Clearance Delivery: 124.350
Fresno Ground: 121.700
Fresno Ground (UHF): 348.600
Fresno Tower: 118.200
Fresno Tower (backup): 128.100
Fresno Tower (UHF): 251.100

KFAT Del/Gnd/Twr/App (Archives)
Fresno, California, United States

Feed Status: UP
Listen in your browser - HTML5 player(in browser, HTML5)
Click here to listen with your own player(launches your MP3 player)

KFAT 230953Z 33006KT 10SM FEW080 FEW200 15/09 A2983 RMK AO2 SLP097 T01500089

KFAT Airport Info (Airnav.com)

KFAT Flight Activity (Flightaware)

Listeners: 0 out of 2299 total

Fresno Approach/Departure: 132.350
Fresno Approach/Departure: 118.500
Fresno Approach/Departure (IFR pickup KFCH): 119.000
Fresno Approach/Departure (North): 119.600
Fresno Clearance Delivery: 124.350
Fresno Ground: 121.700
Fresno Ground (UHF): 348.600
Fresno Tower: 118.200
Fresno Tower (backup): 128.100
Fresno Tower (UHF): 251.100

KFAY App/Dep (Archives)
Fayetteville, North Carolina, United States

Feed Status: UP
Listen in your browser - HTML5 player(in browser, HTML5)
Click here to listen with your own player(launches your MP3 player)

KFAY 230953Z 25004KT 10SM CLR 06/03 A3019 RMK AO2 SLP219 T00560033

KFAY Airport Info (Airnav.com)

KFAY Flight Activity (Flightaware)

Listeners: 1 out of 2299 total

Fayetteville Approach/Departure (North): 125.175
Fayetteville Approach/Departure (South): 133.000
Fayetteville Approach/Departure (Spare): 127.800

KFAY ATIS (Archives)
Fayetteville, North Carolina, United States

Feed Status: UP
Listen in your browser - HTML5 player(in browser, HTML5)
Click here to listen with your own player(launches your MP3 player)

KFAY 230953Z 25004KT 10SM CLR 06/03 A3019 RMK AO2 SLP219 T00560033

KFAY Airport Info (Airnav.com)

KFAY Flight Activity (Flightaware)

Listeners: 0 out of 2299 total

Fayetteville ATIS: 121.250

KFAY Emergency/Guard (Archives)
Fayetteville, North Carolina, United States

Feed Status: UP
Listen in your browser - HTML5 player(in browser, HTML5)
Click here to listen with your own player(launches your MP3 player)

KFAY 230953Z 25004KT 10SM CLR 06/03 A3019 RMK AO2 SLP219 T00560033

KFAY Airport Info (Airnav.com)

KFAY Flight Activity (Flightaware)

Listeners: 0 out of 2299 total

Emergency/Guard: 121.500

KFAY Ground (Archives)
Fayetteville, North Carolina, United States

Feed Status: UP
Listen in your browser - HTML5 player(in browser, HTML5)
Click here to listen with your own player(launches your MP3 player)

KFAY 230953Z 25004KT 10SM CLR 06/03 A3019 RMK AO2 SLP219 T00560033

KFAY Airport Info (Airnav.com)

KFAY Flight Activity (Flightaware)

Listeners: 0 out of 2299 total

Fayetteville Ground: 121.700

KFAY Tower (Archives)
Fayetteville, North Carolina, United States

Feed Status: UP
Listen in your browser - HTML5 player(in browser, HTML5)
Click here to listen with your own player(launches your MP3 player)

KFAY 230953Z 25004KT 10SM CLR 06/03 A3019 RMK AO2 SLP219 T00560033

KFAY Airport Info (Airnav.com)

KFAY Flight Activity (Flightaware)

Listeners: 0 out of 2299 total

Fayetteville Tower: 118.300

KFLL App (Final) (Archives)
Fort Lauderdale, Florida, United States

Feed Status: UP
Listen in your browser - HTML5 player(in browser, HTML5)
Click here to listen with your own player(launches your MP3 player)

KFLL 230953Z 03009KT 10SM FEW030 BKN041 24/17 A3003 RMK AO2 SLP169 T02390167 $

KFLL Airport Info (Airnav.com)

KFLL Flight Activity (Flightaware)

Listeners: 0 out of 2299 total

Miami Approach (KFLL Final): 133.725

KFLL ATIS (Archives)
Fort Lauderdale, Florida, United States

Feed Status: UP
Listen in your browser - HTML5 player(in browser, HTML5)
Click here to listen with your own player(launches your MP3 player)

KFLL 230953Z 03009KT 10SM FEW030 BKN041 24/17 A3003 RMK AO2 SLP169 T02390167 $

KFLL Airport Info (Airnav.com)

KFLL Flight Activity (Flightaware)

Listeners: 0 out of 2299 total

KFLL ATIS: 135.000

KFLL Clearance Delivery (Archives)
Fort Lauderdale, Florida, United States

Feed Status: UP
Listen in your browser - HTML5 player(in browser, HTML5)
Click here to listen with your own player(launches your MP3 player)

KFLL 230953Z 03009KT 10SM FEW030 BKN041 24/17 A3003 RMK AO2 SLP169 T02390167 $

KFLL Airport Info (Airnav.com)

KFLL Flight Activity (Flightaware)

Listeners: 0 out of 2299 total

KFLL Clearance Delivery: 128.400

KFLL Departure (Archives)
Fort Lauderdale, Florida, United States

Feed Status: UP
Listen in your browser - HTML5 player(in browser, HTML5)
Click here to listen with your own player(launches your MP3 player)

KMIA 230953Z VRB04KT 10SM FEW037 BKN055 21/17 A3005 RMK AO2 SLP174 T02060167 $

KMIA Airport Info (Airnav.com)

KMIA Flight Activity (Flightaware)

Listeners: 0 out of 2299 total

Miami Departure (FLL): 126.050

KFLL Ground (Archives)
Fort Lauderdale, Florida, United States

Feed Status: UP
Listen in your browser - HTML5 player(in browser, HTML5)
Click here to listen with your own player(launches your MP3 player)

KFLL 230953Z 03009KT 10SM FEW030 BKN041 24/17 A3003 RMK AO2 SLP169 T02390167 $

KFLL Airport Info (Airnav.com)

KFLL Flight Activity (Flightaware)

Listeners: 0 out of 2299 total

KFLL Ground: 121.700
KFLL Ground: 121.400

KFLL Ground (Main) (Archives)
Fort Lauderdale, Florida, United States

Feed Status: UP
Listen in your browser - HTML5 player(in browser, HTML5)
Click here to listen with your own player(launches your MP3 player)

KFLL 230953Z 03009KT 10SM FEW030 BKN041 24/17 A3003 RMK AO2 SLP169 T02390167 $

KFLL Airport Info (Airnav.com)

KFLL Flight Activity (Flightaware)

Listeners: 0 out of 2299 total

KFLL Ground: 121.400

KFLL Ground (Secondary) (Archives)
Fort Lauderdale, Florida, United States

Feed Status: UP
Listen in your browser - HTML5 player(in browser, HTML5)
Click here to listen with your own player(launches your MP3 player)

KFLL 230953Z 03009KT 10SM FEW030 BKN041 24/17 A3003 RMK AO2 SLP169 T02390167 $

KFLL Airport Info (Airnav.com)

KFLL Flight Activity (Flightaware)

Listeners: 0 out of 2299 total

KFLL Ground: 121.700

KFLL Ramp (Archives)
Fort Lauderdale, Florida, United States

Feed Status: UP
Listen in your browser - HTML5 player(in browser, HTML5)
Click here to listen with your own player(launches your MP3 player)

KFLL 230953Z 03009KT 10SM FEW030 BKN041 24/17 A3003 RMK AO2 SLP169 T02390167 $

KFLL Airport Info (Airnav.com)

KFLL Flight Activity (Flightaware)

Listeners: 0 out of 2299 total

Fort Lauderdale Ramp (North): 118.175
Fort Lauderdale Ramp (South): 129.875

KFLL Tower (Archives)
Fort Lauderdale, Florida, United States

Feed Status: UP
Listen in your browser - HTML5 player(in browser, HTML5)
Click here to listen with your own player(launches your MP3 player)

KFLL 230953Z 03009KT 10SM FEW030 BKN041 24/17 A3003 RMK AO2 SLP169 T02390167 $

KFLL Airport Info (Airnav.com)

KFLL Flight Activity (Flightaware)

Listeners: 1 out of 2299 total

KFLL Tower (Rwy 10LR/28RL): 119.300
KFLL Tower (Secondary): 120.200

KFLL Tower (Main) (Archives)
Fort Lauderdale, Florida, United States

Feed Status: UP
Listen in your browser - HTML5 player(in browser, HTML5)
Click here to listen with your own player(launches your MP3 player)

KFLL 230953Z 03009KT 10SM FEW030 BKN041 24/17 A3003 RMK AO2 SLP169 T02390167 $

KFLL Airport Info (Airnav.com)

KFLL Flight Activity (Flightaware)

Listeners: 0 out of 2299 total

KFLL Tower (Rwy 10LR/28RL): 119.300

KFLL Tower (Secondary) (Archives)
Fort Lauderdale, Florida, United States

Feed Status: UP
Listen in your browser - HTML5 player(in browser, HTML5)
Click here to listen with your own player(launches your MP3 player)

KFLL 230953Z 03009KT 10SM FEW030 BKN041 24/17 A3003 RMK AO2 SLP169 T02390167 $

KFLL Airport Info (Airnav.com)

KFLL Flight Activity (Flightaware)

Listeners: 0 out of 2299 total

KFLL Tower (Secondary): 120.200

KFNT App/Dep (Archives)
Flint, Michigan, United States

Feed Status: UP
Listen in your browser - HTML5 player(in browser, HTML5)
Click here to listen with your own player(launches your MP3 player)

KFNT 230953Z AUTO 19007KT 10SM BKN110 12/02 A2981 RMK AO2 SLP093 T01170017

KFNT Airport Info (Airnav.com)

KFNT Flight Activity (Flightaware)

Listeners: 2 out of 2299 total

Great Lakes Approach: 118.800

KFNT Tower (Archives)
Flint, Michigan, United States

Feed Status: UP
Listen in your browser - HTML5 player(in browser, HTML5)
Click here to listen with your own player(launches your MP3 player)

KFNT 230953Z AUTO 19007KT 10SM BKN110 12/02 A2981 RMK AO2 SLP093 T01170017

KFNT Airport Info (Airnav.com)

KFNT Flight Activity (Flightaware)

Listeners: 0 out of 2299 total

Flint Tower: 126.300

KFWA App/Dep (Archives)
Fort Wayne, Indiana, United States

Feed Status: UP
Listen in your browser - HTML5 player(in browser, HTML5)
Click here to listen with your own player(launches your MP3 player)

KFWA 230954Z 21013KT 10SM FEW070 BKN130 11/01 A2992 RMK AO2 SLP131 T01060011

KFWA Airport Info (Airnav.com)

KFWA Flight Activity (Flightaware)

Listeners: 0 out of 2299 total

Fort Wayne Approach/Departure: 127.200
Fort Wayne Approach/Departure: 132.150
Fort Wayne Approach/Departure: 135.325

KFWA ATIS (Archives)
Fort Wayne, Indiana, United States

Feed Status: UP
Listen in your browser - HTML5 player(in browser, HTML5)
Click here to listen with your own player(launches your MP3 player)

KFWA 230954Z 21013KT 10SM FEW070 BKN130 11/01 A2992 RMK AO2 SLP131 T01060011

KFWA Airport Info (Airnav.com)

KFWA Flight Activity (Flightaware)

Listeners: 0 out of 2299 total

Fort Wayne ATIS: 121.250

KFWA Del/Ground (Archives)
Fort Wayne, Indiana, United States

Feed Status: UP
Listen in your browser - HTML5 player(in browser, HTML5)
Click here to listen with your own player(launches your MP3 player)

KFWA 230954Z 21013KT 10SM FEW070 BKN130 11/01 A2992 RMK AO2 SLP131 T01060011

KFWA Airport Info (Airnav.com)

KFWA Flight Activity (Flightaware)

Listeners: 0 out of 2299 total

Fort Wayne Clearance Delivery: 124.750
Fort Wayne Ground: 121.900

KFWA Emergency/Guard (Archives)
Fort Wayne, Indiana, United States

Feed Status: UP
Listen in your browser - HTML5 player(in browser, HTML5)
Click here to listen with your own player(launches your MP3 player)

KFWA 230954Z 21013KT 10SM FEW070 BKN130 11/01 A2992 RMK AO2 SLP131 T01060011

KFWA Airport Info (Airnav.com)

KFWA Flight Activity (Flightaware)

Listeners: 0 out of 2299 total

Emergency/Guard: 121.500

KFWA Tower (Archives)
Fort Wayne, Indiana, United States

Feed Status: UP
Listen in your browser - HTML5 player(in browser, HTML5)
Click here to listen with your own player(launches your MP3 player)

KFWA 230954Z 21013KT 10SM FEW070 BKN130 11/01 A2992 RMK AO2 SLP131 T01060011

KFWA Airport Info (Airnav.com)

KFWA Flight Activity (Flightaware)

Listeners: 0 out of 2299 total

Fort Wayne Tower: 119.100

KGEG Del/Gnd/Twr/App (Archives)
Spokane, Washington, United States

Feed Status: UP
Listen in your browser - HTML5 player(in browser, HTML5)
Click here to listen with your own player(launches your MP3 player)

KGEG 230953Z 36004KT 10SM FEW140 SCT250 05/M03 A3006 RMK AO2 SLP182 T00501033

KGEG Airport Info (Airnav.com)

KGEG Flight Activity (Flightaware)

Listeners: 3 out of 2299 total

Air to Air: 123.950
Emergency/Guard: 121.500
Seattle Handoff: 126.100
Spokane Approach/Departure: 123.750
Spokane Approach/Departure: 133.350
Spokane Clearance Delivery: 127.550
Spokane Ground: 121.900
Spokane Tower: 118.300

KGRB App/Dep (Archives)
Green Bay, Wisconsin, United States

Feed Status: UP
Listen in your browser - HTML5 player(in browser, HTML5)
Click here to listen with your own player(launches your MP3 player)

KGRB 230953Z AUTO 19004KT 10SM OVC110 10/04 A2959 RMK AO2 SLP021 T01000039

KGRB Airport Info (Airnav.com)

KGRB Flight Activity (Flightaware)

Listeners: 0 out of 2299 total

Green Bay Approach/Departure: 119.400

KGRB ATIS (Archives)
Green Bay, Wisconsin, United States

Feed Status: UP
Listen in your browser - HTML5 player(in browser, HTML5)
Click here to listen with your own player(launches your MP3 player)

KGRB 230953Z AUTO 19004KT 10SM OVC110 10/04 A2959 RMK AO2 SLP021 T01000039

KGRB Airport Info (Airnav.com)

KGRB Flight Activity (Flightaware)

Listeners: 0 out of 2299 total

Green Bay ATIS: 124.100

KGRB Gnd/Twr (Archives)
Green Bay, Wisconsin, United States

Feed Status: UP
Listen in your browser - HTML5 player(in browser, HTML5)
Click here to listen with your own player(launches your MP3 player)

KGRB 230953Z AUTO 19004KT 10SM OVC110 10/04 A2959 RMK AO2 SLP021 T01000039

KGRB Airport Info (Airnav.com)

KGRB Flight Activity (Flightaware)

Listeners: 1 out of 2299 total

Green Bay Ground: 121.900
Green Bay Tower: 118.700

KGRR App/Dep (Archives)
Grand Rapids, Michigan, United States

Feed Status: UP
Listen in your browser - HTML5 player(in browser, HTML5)
Click here to listen with your own player(launches your MP3 player)

KGRR 230953Z 19011KT 10SM -RA OVC075 11/03 A2977 RMK AO2 RAB21E33B52 SLP081 P0000 T01110033

KGRR Airport Info (Airnav.com)

KGRR Flight Activity (Flightaware)

Listeners: 0 out of 2299 total

Grand Rapids Approach (North): 124.600
Grand Rapids Approach (South): 128.400

KGRR App/Dep (North) (Archives)
Grand Rapids, Michigan, United States

Feed Status: UP
Listen in your browser - HTML5 player(in browser, HTML5)
Click here to listen with your own player(launches your MP3 player)

KGRR 230953Z 19011KT 10SM -RA OVC075 11/03 A2977 RMK AO2 RAB21E33B52 SLP081 P0000 T01110033

KGRR Airport Info (Airnav.com)

KGRR Flight Activity (Flightaware)

Listeners: 0 out of 2299 total

Grand Rapids Approach (North): 124.600

KGRR App/Dep (South) (Archives)
Grand Rapids, Michigan, United States

Feed Status: UP
Listen in your browser - HTML5 player(in browser, HTML5)
Click here to listen with your own player(launches your MP3 player)

KGRR 230953Z 19011KT 10SM -RA OVC075 11/03 A2977 RMK AO2 RAB21E33B52 SLP081 P0000 T01110033

KGRR Airport Info (Airnav.com)

KGRR Flight Activity (Flightaware)

Listeners: 0 out of 2299 total

Grand Rapids Approach (South): 128.400

KGRR Clearance Delivery (Archives)
Grand Rapids, Michigan, United States

Feed Status: UP
Listen in your browser - HTML5 player(in browser, HTML5)
Click here to listen with your own player(launches your MP3 player)

KGRR 230953Z 19011KT 10SM -RA OVC075 11/03 A2977 RMK AO2 RAB21E33B52 SLP081 P0000 T01110033

KGRR Airport Info (Airnav.com)

KGRR Flight Activity (Flightaware)

Listeners: 0 out of 2299 total

Grand Rapids Clearance Delivery: 119.300

KGRR Del/Gnd/Twr (Archives)
Grand Rapids, Michigan, United States

Feed Status: UP
Listen in your browser - HTML5 player(in browser, HTML5)
Click here to listen with your own player(launches your MP3 player)

KGRR 230953Z 19011KT 10SM -RA OVC075 11/03 A2977 RMK AO2 RAB21E33B52 SLP081 P0000 T01110033

KGRR Airport Info (Airnav.com)

KGRR Flight Activity (Flightaware)

Listeners: 0 out of 2299 total

Grand Rapids Clearance Delivery: 119.300
Grand Rapids Ground: 121.800
Grand Rapids Tower: 135.650

KGRR Del/Gnd/Twr/App (Archives)
Grand Rapids, Michigan, United States

Feed Status: UP
Listen in your browser - HTML5 player(in browser, HTML5)
Click here to listen with your own player(launches your MP3 player)

KGRR 230953Z 19011KT 10SM -RA OVC075 11/03 A2977 RMK AO2 RAB21E33B52 SLP081 P0000 T01110033

KGRR Airport Info (Airnav.com)

KGRR Flight Activity (Flightaware)

Listeners: 0 out of 2299 total

Grand Rapids Approach (North): 124.600
Grand Rapids Approach (South): 128.400
Grand Rapids Clearance Delivery: 119.300
Grand Rapids Ground: 121.800
Grand Rapids Tower: 135.650

KGRR Emergency/Guard (Archives)
Grand Rapids, Michigan, United States

Feed Status: UP
Listen in your browser - HTML5 player(in browser, HTML5)
Click here to listen with your own player(launches your MP3 player)

KGRR 230953Z 19011KT 10SM -RA OVC075 11/03 A2977 RMK AO2 RAB21E33B52 SLP081 P0000 T01110033

KGRR Airport Info (Airnav.com)

KGRR Flight Activity (Flightaware)

Listeners: 0 out of 2299 total

Emergency/Guard: 121.500

KGRR Gnd/Twr/App (Archives)
Grand Rapids, Michigan, United States

Feed Status: UP
Listen in your browser - HTML5 player(in browser, HTML5)
Click here to listen with your own player(launches your MP3 player)

KGRR 230953Z 19011KT 10SM -RA OVC075 11/03 A2977 RMK AO2 RAB21E33B52 SLP081 P0000 T01110033

KGRR Airport Info (Airnav.com)

KGRR Flight Activity (Flightaware)

Listeners: 0 out of 2299 total

Grand Rapids Approach (North): 124.600
Grand Rapids Approach (South): 128.400
Grand Rapids Ground: 121.800
Grand Rapids Tower: 135.650

KGRR Ground (Archives)
Grand Rapids, Michigan, United States

Feed Status: UP
Listen in your browser - HTML5 player(in browser, HTML5)
Click here to listen with your own player(launches your MP3 player)

KGRR 230953Z 19011KT 10SM -RA OVC075 11/03 A2977 RMK AO2 RAB21E33B52 SLP081 P0000 T01110033

KGRR Airport Info (Airnav.com)

KGRR Flight Activity (Flightaware)

Listeners: 0 out of 2299 total

Grand Rapids Ground: 121.800

KGRR Tower (Archives)
Grand Rapids, Michigan, United States

Feed Status: UP
Listen in your browser - HTML5 player(in browser, HTML5)
Click here to listen with your own player(launches your MP3 player)

KGRR 230953Z 19011KT 10SM -RA OVC075 11/03 A2977 RMK AO2 RAB21E33B52 SLP081 P0000 T01110033

KGRR Airport Info (Airnav.com)

KGRR Flight Activity (Flightaware)

Listeners: 0 out of 2299 total

Grand Rapids Tower: 135.650

KGSO Approach/Departure (Archives)
Greensboro, North Carolina, United States

Feed Status: UP
Listen in your browser - HTML5 player(in browser, HTML5)
Click here to listen with your own player(launches your MP3 player)

KGSO 230954Z 22005KT 10SM SCT250 04/02 A3017 RMK AO2 SLP217 T00390022

KGSO Airport Info (Airnav.com)

KGSO Flight Activity (Flightaware)

Listeners: 1 out of 2299 total

Greensboro Approach/Departure (South): 126.600
Greensboro Approach/Departure (West): 124.350

KGSO Approach/Departure (South) (Archives)
Greensboro, North Carolina, United States

Feed Status: UP
Listen in your browser - HTML5 player(in browser, HTML5)
Click here to listen with your own player(launches your MP3 player)

KGSO 230954Z 22005KT 10SM SCT250 04/02 A3017 RMK AO2 SLP217 T00390022

KGSO Airport Info (Airnav.com)

KGSO Flight Activity (Flightaware)

Listeners: 0 out of 2299 total

Greensboro Approach/Departure (South): 126.600

KGSO Approach/Departure (West) (Archives)
Greensboro, North Carolina, United States

Feed Status: UP
Listen in your browser - HTML5 player(in browser, HTML5)
Click here to listen with your own player(launches your MP3 player)

KGSO 230954Z 22005KT 10SM SCT250 04/02 A3017 RMK AO2 SLP217 T00390022

KGSO Airport Info (Airnav.com)

KGSO Flight Activity (Flightaware)

Listeners: 0 out of 2299 total

Greensboro Approach/Departure (West): 124.350

KGSO ATIS (Archives)
Greensboro, North Carolina, United States

Feed Status: UP
Listen in your browser - HTML5 player(in browser, HTML5)
Click here to listen with your own player(launches your MP3 player)

KGSO 230954Z 22005KT 10SM SCT250 04/02 A3017 RMK AO2 SLP217 T00390022

KGSO Airport Info (Airnav.com)

KGSO Flight Activity (Flightaware)

Listeners: 0 out of 2299 total

Greensboro ATIS: 128.550

KGSO Del/Gnd (Archives)
Greensboro, North Carolina, United States

Feed Status: UP
Listen in your browser - HTML5 player(in browser, HTML5)
Click here to listen with your own player(launches your MP3 player)

KGSO 230954Z 22005KT 10SM SCT250 04/02 A3017 RMK AO2 SLP217 T00390022

KGSO Airport Info (Airnav.com)

KGSO Flight Activity (Flightaware)

Listeners: 0 out of 2299 total

Greensboro Clearance Delivery: 121.750
Greensboro Ground: 121.900

KGSO Tower (Archives)
Greensboro, North Carolina, United States

Feed Status: UP
Listen in your browser - HTML5 player(in browser, HTML5)
Click here to listen with your own player(launches your MP3 player)

KGSO 230954Z 22005KT 10SM SCT250 04/02 A3017 RMK AO2 SLP217 T00390022

KGSO Airport Info (Airnav.com)

KGSO Flight Activity (Flightaware)

Listeners: 1 out of 2299 total

Greensboro Tower: 119.100

KGSP App/Dep (East) (Archives)
Greer, South Carolina, United States

Feed Status: UP
Listen in your browser - HTML5 player(in browser, HTML5)
Click here to listen with your own player(launches your MP3 player)

KGMU 230953Z AUTO 00000KT 10SM CLR 07/05 A3019 RMK AO2 SLP222 T00720050

KGMU Airport Info (Airnav.com)

KGMU Flight Activity (Flightaware)

Listeners: 0 out of 2299 total

Greer Approach (East): 119.400

KGSP App/Dep (West) (Archives)
Greer, South Carolina, United States

Feed Status: UP
Listen in your browser - HTML5 player(in browser, HTML5)
Click here to listen with your own player(launches your MP3 player)

KGMU 230953Z AUTO 00000KT 10SM CLR 07/05 A3019 RMK AO2 SLP222 T00720050

KGMU Airport Info (Airnav.com)

KGMU Flight Activity (Flightaware)

Listeners: 0 out of 2299 total

Greer Approach (West): 118.800

KGSP ATIS (Archives)
Greer, South Carolina, United States

Feed Status: UP
Listen in your browser - HTML5 player(in browser, HTML5)
Click here to listen with your own player(launches your MP3 player)

KGMU 230953Z AUTO 00000KT 10SM CLR 07/05 A3019 RMK AO2 SLP222 T00720050

KGMU Airport Info (Airnav.com)

KGMU Flight Activity (Flightaware)

Listeners: 0 out of 2299 total

Greer ATIS: 134.250

KGSP Tower (Archives)
Greer, South Carolina, United States

Feed Status: UP
Listen in your browser - HTML5 player(in browser, HTML5)
Click here to listen with your own player(launches your MP3 player)

KGMU 230953Z AUTO 00000KT 10SM CLR 07/05 A3019 RMK AO2 SLP222 T00720050

KGMU Airport Info (Airnav.com)

KGMU Flight Activity (Flightaware)

Listeners: 0 out of 2299 total

Greer Tower: 120.100

KHSV App/Dep (Archives)
Huntsville, Alabama, United States

Feed Status: UP
Listen in your browser - HTML5 player(in browser, HTML5)
Click here to listen with your own player(launches your MP3 player)

KHSV 230953Z AUTO 00000KT 10SM CLR 04/04 A3017 RMK AO2 SLP214 T00440039

KHSV Airport Info (Airnav.com)

KHSV Flight Activity (Flightaware)

Listeners: 0 out of 2299 total

Huntsville Approach (180-359): 118.050
Huntsville Approach (360-179): 125.600
Huntsville Approach (ASR): 118.750

KHSV ATIS (Archives)
Huntsville, Alabama, United States

Feed Status: UP
Listen in your browser - HTML5 player(in browser, HTML5)
Click here to listen with your own player(launches your MP3 player)

KHSV 230953Z AUTO 00000KT 10SM CLR 04/04 A3017 RMK AO2 SLP214 T00440039

KHSV Airport Info (Airnav.com)

KHSV Flight Activity (Flightaware)

Listeners: 0 out of 2299 total

Huntsville ATIS: 121.250

KHSV Del/Gnd (Archives)
Huntsville, Alabama, United States

Feed Status: UP
Listen in your browser - HTML5 player(in browser, HTML5)
Click here to listen with your own player(launches your MP3 player)

KHSV 230953Z AUTO 00000KT 10SM CLR 04/04 A3017 RMK AO2 SLP214 T00440039

KHSV Airport Info (Airnav.com)

KHSV Flight Activity (Flightaware)

Listeners: 0 out of 2299 total

Huntsville Clearance: 120.350
Huntsville Ground: 121.900

KHSV Gnd/Twr (Archives)
Huntsville, Alabama, United States

Feed Status: UP
Listen in your browser - HTML5 player(in browser, HTML5)
Click here to listen with your own player(launches your MP3 player)

KHSV 230953Z AUTO 00000KT 10SM CLR 04/04 A3017 RMK AO2 SLP214 T00440039

KHSV Airport Info (Airnav.com)

KHSV Flight Activity (Flightaware)

Listeners: 0 out of 2299 total

Huntsville Ground: 121.900
Huntsville Tower: 127.600

KHSV Gnd/Twr/App/Dep (Archives)
Huntsville, Alabama, United States

Feed Status: UP
Listen in your browser - HTML5 player(in browser, HTML5)
Click here to listen with your own player(launches your MP3 player)

KHSV 230953Z AUTO 00000KT 10SM CLR 04/04 A3017 RMK AO2 SLP214 T00440039

KHSV Airport Info (Airnav.com)

KHSV Flight Activity (Flightaware)

Listeners: 1 out of 2299 total

Huntsville Approach (180-359): 118.050
Huntsville Approach (360-179): 125.600
Huntsville Approach (ASR): 118.750
Huntsville Ground: 121.900
Huntsville Tower: 127.600

KBTR/KHZR/L38 Del/Gnd/Twr/App/CTAF
New Roads, Louisiana, United States

Feed Status: DOWN
Offline since: 2023-10-29 21:18:22 UTC

KBTR 230953Z AUTO 00000KT 10SM CLR 08/07 A3013 RMK AO2 SLP203 T00830067

KBTR Airport Info (Airnav.com)

Baton Rouge Approach/Departure (East): 126.500
Baton Rouge Approach/Departure (Military): 278.300
Baton Rouge Approach/Departure (West): 120.300
Baton Rouge Clearance Delivery: 119.400
Baton Rouge Ground: 121.900
Baton Rouge Tower (Military): 257.800
Baton Rouge Tower/CTAF: 118.450
Baton Rouge UNICOM: 122.950
Houston Center (App/Dep when Approach closed): 338.250
Houston Center (App/Dep when Approach closed): 126.350
Louisiana Regional L38 CTAF: 123.000
United Airlines: 129.925

KICT App/Dep (All) (Archives)
Wichita, Kansas, United States

Feed Status: UP
Listen in your browser - HTML5 player(in browser, HTML5)
Click here to listen with your own player(launches your MP3 player)

KICT 230953Z 18014KT 10SM FEW160 BKN250 12/07 A2977 RMK AO2 SLP074 T01220072

KICT Airport Info (Airnav.com)

KICT Flight Activity (Flightaware)

Listeners: 2 out of 2299 total

Wichita Approach: 125.500
Wichita Approach (East): 134.850
Wichita Approach (West): 126.700

KICT Approach (East) (Archives)
Wichita, Kansas, United States

Feed Status: UP
Listen in your browser - HTML5 player(in browser, HTML5)
Click here to listen with your own player(launches your MP3 player)

KICT 230953Z 18014KT 10SM FEW160 BKN250 12/07 A2977 RMK AO2 SLP074 T01220072

KICT Airport Info (Airnav.com)

KICT Flight Activity (Flightaware)

Listeners: 1 out of 2299 total

Wichita Approach (East): 134.850

KICT Approach (West) (Archives)
Wichita, Kansas, United States

Feed Status: UP
Listen in your browser - HTML5 player(in browser, HTML5)
Click here to listen with your own player(launches your MP3 player)

KICT 230953Z 18014KT 10SM FEW160 BKN250 12/07 A2977 RMK AO2 SLP074 T01220072

KICT Airport Info (Airnav.com)

KICT Flight Activity (Flightaware)

Listeners: 2 out of 2299 total

Wichita Approach (West): 126.700

KICT Approach 125.5 (Archives)
Wichita, Kansas, United States

Feed Status: UP
Listen in your browser - HTML5 player(in browser, HTML5)
Click here to listen with your own player(launches your MP3 player)

KICT 230953Z 18014KT 10SM FEW160 BKN250 12/07 A2977 RMK AO2 SLP074 T01220072

KICT Airport Info (Airnav.com)

KICT Flight Activity (Flightaware)

Listeners: 1 out of 2299 total

Wichita Approach: 125.500

KICT ATIS (Archives)
Wichita, Kansas, United States

Feed Status: UP
Listen in your browser - HTML5 player(in browser, HTML5)
Click here to listen with your own player(launches your MP3 player)

KICT 230953Z 18014KT 10SM FEW160 BKN250 12/07 A2977 RMK AO2 SLP074 T01220072

KICT Airport Info (Airnav.com)

KICT Flight Activity (Flightaware)

Listeners: 1 out of 2299 total

Wichita ATIS: 125.150

KICT Ground/Tower (Archives)
Wichita, Kansas, United States

Feed Status: UP
Listen in your browser - HTML5 player(in browser, HTML5)
Click here to listen with your own player(launches your MP3 player)

KICT 230953Z 18014KT 10SM FEW160 BKN250 12/07 A2977 RMK AO2 SLP074 T01220072

KICT Airport Info (Airnav.com)

KICT Flight Activity (Flightaware)

Listeners: 1 out of 2299 total

Wichita Ground: 121.900
Wichita Tower: 118.200

KIND App/Dep (Archives)
Indianapolis, Indiana, United States

Feed Status: UP
Listen in your browser - HTML5 player(in browser, HTML5)
Click here to listen with your own player(launches your MP3 player)

KIND 230954Z 20008KT 10SM FEW200 BKN250 09/02 A2998 RMK AO2 SLP152 T00890017

KIND Airport Info (Airnav.com)

KIND Flight Activity (Flightaware)

Listeners: 0 out of 2299 total

Indy Approach: 121.100
Indy Approach (East): 127.150
Indy Approach (Final East): 123.950
Indy Approach (IC): 128.175
Indy Approach (West): 124.650
Indy Departure (East): 124.950
Indy Departure (West): 119.050

KIND Ground (Archives)
Indianapolis, Indiana, United States

Feed Status: UP
Listen in your browser - HTML5 player(in browser, HTML5)
Click here to listen with your own player(launches your MP3 player)

KIND 230954Z 20008KT 10SM FEW200 BKN250 09/02 A2998 RMK AO2 SLP152 T00890017

KIND Airport Info (Airnav.com)

KIND Flight Activity (Flightaware)

Listeners: 0 out of 2299 total

Indianapolis Ground: 121.900

KIND Tower (Archives)
Indianapolis, Indiana, United States

Feed Status: UP
Listen in your browser - HTML5 player(in browser, HTML5)
Click here to listen with your own player(launches your MP3 player)

KIND 230954Z 20008KT 10SM FEW200 BKN250 09/02 A2998 RMK AO2 SLP152 T00890017

KIND Airport Info (Airnav.com)

KIND Flight Activity (Flightaware)

Listeners: 0 out of 2299 total

Indianapolis Tower (Primary): 120.900

KCID Gnd/Twr/App/KIOW (Archives)
Iowa City, Iowa, United States

Feed Status: UP
Listen in your browser - HTML5 player(in browser, HTML5)
Click here to listen with your own player(launches your MP3 player)

KCID 230952Z 22007KT 10SM CLR 09/04 A2974 RMK AO2 SLP071 T00940039

KCID Airport Info (Airnav.com)

KCID Flight Activity (Flightaware)

Listeners: 1 out of 2299 total

Cedar Rapids Approach (091-269): 119.700
Cedar Rapids Approach (270-090): 134.050
Cedar Rapids Clearance Delivery: 125.450
Cedar Rapids Ground (0500-2330): 121.600
Cedar Rapids Tower (0500-2330): 118.700
UNICOM C17 (Marion) and surrounding area: 122.700
UNICOM IA24 Green Castle: 122.900
UNICOM KIOW (Iowa City) and surrounding area: 122.800

KISP (NY Approach) (Archives)
Islip, New York, United States

Feed Status: UP
Listen in your browser - HTML5 player(in browser, HTML5)
Click here to listen with your own player(launches your MP3 player)

KISP 230956Z 00000KT 10SM FEW250 02/01 A3017 RMK AO2 SLP215 T00220006

KISP Airport Info (Airnav.com)

KISP Flight Activity (Flightaware)

Listeners: 1 out of 2299 total

New York Approach/Departure (Islip): 120.050

KISP Tower (Archives)
Islip, New York, United States

Feed Status: UP
Listen in your browser - HTML5 player(in browser, HTML5)
Click here to listen with your own player(launches your MP3 player)

KISP 230956Z 00000KT 10SM FEW250 02/01 A3017 RMK AO2 SLP215 T00220006

KISP Airport Info (Airnav.com)

KISP Flight Activity (Flightaware)

Listeners: 6 out of 2299 total

Islip Tower: 119.300

KJAN Gnd/Twr/App/Dep (Archives)
Jackson, Mississippi, United States

Feed Status: UP
Listen in your browser - HTML5 player(in browser, HTML5)
Click here to listen with your own player(launches your MP3 player)

KJAN 230954Z 00000KT 10SM CLR 07/05 A3014 RMK AO2 SLP205 T00670050

KJAN Airport Info (Airnav.com)

KJAN Flight Activity (Flightaware)

Listeners: 0 out of 2299 total

Jackson Approach/Departure: 123.900
Jackson Approach/Departure: 125.250
Jackson Ground: 121.700
Jackson Tower: 120.900

KJAX Approach/Departure #1 (Archives)
Jacksonville, Florida, United States

Feed Status: UP
Listen in your browser - HTML5 player(in browser, HTML5)
Click here to listen with your own player(launches your MP3 player)

KJAX 230956Z 00000KT 10SM FEW050 10/08 A3017 RMK AO2 SLP216 T01000083

KJAX Airport Info (Airnav.com)

KJAX Flight Activity (Flightaware)

Listeners: 0 out of 2299 total

Jacksonville Approach/Departure: 127.000
Jacksonville Approach/Departure: 124.900
Jacksonville Approach/Departure: 123.800
Jacksonville Approach/Departure: 120.750
Jacksonville Approach/Departure: 118.000
Jacksonville Approach/Departure: 119.000
Jacksonville Approach/Departure: 127.775
Jacksonville Approach/Departure: 132.775

KJAX Approach/Departure #2 (Archives)
Jacksonville, Florida, United States

Feed Status: UP
Listen in your browser - HTML5 player(in browser, HTML5)
Click here to listen with your own player(launches your MP3 player)

KJAX 230956Z 00000KT 10SM FEW050 10/08 A3017 RMK AO2 SLP216 T01000083

KJAX Airport Info (Airnav.com)

KJAX Flight Activity (Flightaware)

Listeners: 0 out of 2299 total

Jacksonville Approach/Departure: 118.000
Jacksonville Approach/Departure: 119.000
Jacksonville Approach/Departure: 120.750
Jacksonville Approach/Departure: 124.900
Jacksonville Approach/Departure: 123.800
Jacksonville Approach/Departure: 127.000
Jacksonville Approach/Departure: 127.775
Jacksonville Approach/Departure: 132.775

KJAX ATIS (Archives)
Jacksonville, Florida, United States

Feed Status: UP
Listen in your browser - HTML5 player(in browser, HTML5)
Click here to listen with your own player(launches your MP3 player)

KJAX 230956Z 00000KT 10SM FEW050 10/08 A3017 RMK AO2 SLP216 T01000083

KJAX Airport Info (Airnav.com)

KJAX Flight Activity (Flightaware)

Listeners: 0 out of 2299 total

Jacksonville D-ATIS: 125.850

KJAX Del/Gnd/Twr (Archives)
Jacksonville, Florida, United States

Feed Status: UP
Listen in your browser - HTML5 player(in browser, HTML5)
Click here to listen with your own player(launches your MP3 player)

KJAX 230956Z 00000KT 10SM FEW050 10/08 A3017 RMK AO2 SLP216 T01000083

KJAX Airport Info (Airnav.com)

KJAX Flight Activity (Flightaware)

Listeners: 0 out of 2299 total

Jacksonville Clearance Delivery: 119.500
Jacksonville Ground: 121.900
Jacksonville Tower: 118.300

KJAX Gnd/Twr (Archives)
Jacksonville, Florida, United States

Feed Status: UP
Listen in your browser - HTML5 player(in browser, HTML5)
Click here to listen with your own player(launches your MP3 player)

KJAX 230956Z 00000KT 10SM FEW050 10/08 A3017 RMK AO2 SLP216 T01000083

KJAX Airport Info (Airnav.com)

KJAX Flight Activity (Flightaware)

Listeners: 0 out of 2299 total

Jacksonville Ground: 121.900
Jacksonville Tower: 118.300

KJPX CTAF/Tower (Archives)
East Hampton, New York, United States

Feed Status: UP
Listen in your browser - HTML5 player(in browser, HTML5)
Click here to listen with your own player(launches your MP3 player)

KHTO Airport Info (Airnav.com)

KHTO Flight Activity (Flightaware)

Listeners: 0 out of 2299 total

East Hampton CTAF/Tower: 125.225

KLAN Del/Gnd/Twr/App (Archives)
Lansing, Michigan, United States

Feed Status: UP
Listen in your browser - HTML5 player(in browser, HTML5)
Click here to listen with your own player(launches your MP3 player)

KLAN 230953Z 20010KT 10SM -RA OVC065 10/03 A2981 RMK AO2 RAB10 SLP094 P0000 T01000033

KLAN Airport Info (Airnav.com)

KLAN Flight Activity (Flightaware)

Listeners: 0 out of 2299 total

CTAF/UNICOM (K60G): 122.900
CTAF/UNICOM (KTEW/4D0): 122.700
Emergency/Guard: 121.500
Great Lakes Approach: 127.300
Great Lakes Approach/Departure (North): 133.475
Great Lakes Approach/Departure (South): 118.650
Lansing Clearance Delivery: 123.675
Lansing Ground: 121.900
Lansing Tower: 119.900
Lansing UNICOM: 122.950

KLBB Gnd/Twr/App (Archives)
Lubbock, Texas, United States

Feed Status: UP
Listen in your browser - HTML5 player(in browser, HTML5)
Click here to listen with your own player(launches your MP3 player)

KLBB 230953Z 22011KT 10SM CLR 14/09 A2992 RMK AO2 SLP095 T01390089

KLBB Airport Info (Airnav.com)

KLBB Flight Activity (Flightaware)

Listeners: 1 out of 2299 total

Emergency/Guard: 121.500
Hub City Aviation: 123.500
Lubbock Approach/Departure: 119.200
Lubbock Ground: 121.900
Lubbock Tower: 120.500

KCMH App/Dep (134.0) (Archives)
Columbus, Ohio, United States

Feed Status: UP
Listen in your browser - HTML5 player(in browser, HTML5)
Click here to listen with your own player(launches your MP3 player)

KCMH 230951Z 19007KT 10SM BKN170 09/00 A3004 RMK AO2 SLP174 T00890000 $

KCMH Airport Info (Airnav.com)

KCMH Flight Activity (Flightaware)

Listeners: 1 out of 2299 total

Columbus Approach (South): 134.000

KCMH App/Dep (South/UHF)
Columbus, Ohio, United States

Feed Status: DOWN
Offline since: 2024-01-16 18:27:05 UTC

KCMH 230951Z 19007KT 10SM BKN170 09/00 A3004 RMK AO2 SLP174 T00890000 $

KCMH Airport Info (Airnav.com)

Columbus Approach/Departure (South/Mil): 279.600

KLEX Gnd/Twr/App/Dep (Archives)
Lexington, Kentucky, United States

Feed Status: UP
Listen in your browser - HTML5 player(in browser, HTML5)
Click here to listen with your own player(launches your MP3 player)

KLEX 230954Z 17006KT 10SM CLR 08/01 A3011 RMK AO2 SLP193 T00780006

KLEX Airport Info (Airnav.com)

KLEX Flight Activity (Flightaware)

Listeners: 0 out of 2299 total

Lexington Approach: 120.150
Lexington Approach: 120.750
Lexington Ground: 121.900
Lexington Tower: 119.100

KLNK Approach (Archives)
Lincoln, Nebraska, United States

Feed Status: UP
Listen in your browser - HTML5 player(in browser, HTML5)
Click here to listen with your own player(launches your MP3 player)

KLNK 230954Z AUTO 34005KT 10SM BKN110 12/04 A2983 RMK AO2 SLP094 T01220044

KLNK Airport Info (Airnav.com)

KLNK Flight Activity (Flightaware)

Listeners: 0 out of 2299 total

Lincoln Approach: 124.000

KLNK ATIS (Archives)
Lincoln, Nebraska, United States

Feed Status: UP
Listen in your browser - HTML5 player(in browser, HTML5)
Click here to listen with your own player(launches your MP3 player)

KLNK 230954Z AUTO 34005KT 10SM BKN110 12/04 A2983 RMK AO2 SLP094 T01220044

KLNK Airport Info (Airnav.com)

KLNK Flight Activity (Flightaware)

Listeners: 0 out of 2299 total

Lincoln ATIS: 118.050

KLNK Ground (Archives)
Lincoln, Nebraska, United States

Feed Status: UP
Listen in your browser - HTML5 player(in browser, HTML5)
Click here to listen with your own player(launches your MP3 player)

KLNK 230954Z AUTO 34005KT 10SM BKN110 12/04 A2983 RMK AO2 SLP094 T01220044

KLNK Airport Info (Airnav.com)

KLNK Flight Activity (Flightaware)

Listeners: 0 out of 2299 total

Lincoln Ground: 121.900

KLNK Tower (Archives)
Lincoln, Nebraska, United States

Feed Status: UP
Listen in your browser - HTML5 player(in browser, HTML5)
Click here to listen with your own player(launches your MP3 player)

KLNK 230954Z AUTO 34005KT 10SM BKN110 12/04 A2983 RMK AO2 SLP094 T01220044

KLNK Airport Info (Airnav.com)

KLNK Flight Activity (Flightaware)

Listeners: 0 out of 2299 total

Lincoln Tower: 118.500

KLNK Twr/App (Archives)
Lincoln, Nebraska, United States

Feed Status: UP
Listen in your browser - HTML5 player(in browser, HTML5)
Click here to listen with your own player(launches your MP3 player)

KLNK 230954Z AUTO 34005KT 10SM BKN110 12/04 A2983 RMK AO2 SLP094 T01220044

KLNK Airport Info (Airnav.com)

KLNK Flight Activity (Flightaware)

Listeners: 0 out of 2299 total

Lincoln Approach: 124.000
Lincoln Tower: 118.500

Chicago App/Dep (S. Sat Sector 1) (Archives)
Chicago, Illinois, United States

Feed Status: UP
Listen in your browser - HTML5 player(in browser, HTML5)
Click here to listen with your own player(launches your MP3 player)

KMDW 230953Z 22015G22KT 10SM SCT110 OVC250 14/01 A2978 RMK AO2 SLP079 T01440011 $

KMDW Airport Info (Airnav.com)

KMDW Flight Activity (Flightaware)

Listeners: 0 out of 2299 total

Chicago Approach/Departure (South Satellite Sector 1): 128.200

Chicago App/Dep (S. Sat Sector 2) (Archives)
Chicago, Illinois, United States

Feed Status: UP
Listen in your browser - HTML5 player(in browser, HTML5)
Click here to listen with your own player(launches your MP3 player)

KMDW 230953Z 22015G22KT 10SM SCT110 OVC250 14/01 A2978 RMK AO2 SLP079 T01440011 $

KMDW Airport Info (Airnav.com)

KMDW Flight Activity (Flightaware)

Listeners: 0 out of 2299 total

Chicago Approach/Departure (South Satellite Sector 2): 119.350

Chicago Approach (MDW/LOT) (Archives)
Chicago, Illinois, United States

Feed Status: UP
Listen in your browser - HTML5 player(in browser, HTML5)
Click here to listen with your own player(launches your MP3 player)

KMDW 230953Z 22015G22KT 10SM SCT110 OVC250 14/01 A2978 RMK AO2 SLP079 T01440011 $

KMDW Airport Info (Airnav.com)

KMDW Flight Activity (Flightaware)

Listeners: 0 out of 2299 total

Chicago Approach/Departure (South Satellite Sector 1): 128.200
Chicago Approach/Departure (South Satellite Sector 2): 119.350

KMDW App/Dep (Archives)
Chicago, Illinois, United States

Feed Status: UP
Listen in your browser - HTML5 player(in browser, HTML5)
Click here to listen with your own player(launches your MP3 player)

KORD 230951Z 21013G21KT 10SM SCT080 BKN250 13/02 A2975 RMK AO2 SLP072 T01330017

KORD Airport Info (Airnav.com)

KORD Flight Activity (Flightaware)

Listeners: 1 out of 2299 total

Chicago Approach/Departure (South Satellite Sector 1): 128.200
Chicago Approach/Departure (South Satellite Sector 2): 119.350

KMDW ATIS (Archives)
Chicago, Illinois, United States

Feed Status: UP
Listen in your browser - HTML5 player(in browser, HTML5)
Click here to listen with your own player(launches your MP3 player)

KMDW 230953Z 22015G22KT 10SM SCT110 OVC250 14/01 A2978 RMK AO2 SLP079 T01440011 $

KMDW Airport Info (Airnav.com)

KMDW Flight Activity (Flightaware)

Listeners: 0 out of 2299 total

Midway ATIS: 132.750

KMDW Clearance/Metering (Archives)
Chicago, Illinois, United States

Feed Status: UP
Listen in your browser - HTML5 player(in browser, HTML5)
Click here to listen with your own player(launches your MP3 player)

KMDW 230953Z 22015G22KT 10SM SCT110 OVC250 14/01 A2978 RMK AO2 SLP079 T01440011 $

KMDW Airport Info (Airnav.com)

KMDW Flight Activity (Flightaware)

Listeners: 0 out of 2299 total

Midway Clearance Delivery/Metering: 124.625

KMDW Ground #1 (Archives)
Chicago, Illinois, United States

Feed Status: UP
Listen in your browser - HTML5 player(in browser, HTML5)
Click here to listen with your own player(launches your MP3 player)

KMDW 230953Z 22015G22KT 10SM SCT110 OVC250 14/01 A2978 RMK AO2 SLP079 T01440011 $

KMDW Airport Info (Airnav.com)

KMDW Flight Activity (Flightaware)

Listeners: 0 out of 2299 total

Midway Ground: 118.075

KMDW Ground #2 (Archives)
Chicago, Illinois, United States

Feed Status: UP
Listen in your browser - HTML5 player(in browser, HTML5)
Click here to listen with your own player(launches your MP3 player)

KMDW 230953Z 22015G22KT 10SM SCT110 OVC250 14/01 A2978 RMK AO2 SLP079 T01440011 $

KMDW Airport Info (Airnav.com)

KMDW Flight Activity (Flightaware)

Listeners: 0 out of 2299 total

Midway Ground: 118.075

KMDW Ground/Tower (Archives)
Chicago, Illinois, United States

Feed Status: UP
Listen in your browser - HTML5 player(in browser, HTML5)
Click here to listen with your own player(launches your MP3 player)

KMDW 230953Z 22015G22KT 10SM SCT110 OVC250 14/01 A2978 RMK AO2 SLP079 T01440011 $

KMDW Airport Info (Airnav.com)

KMDW Flight Activity (Flightaware)

Listeners: 0 out of 2299 total

Midway Ground: 118.075
Midway Tower: 135.200

KMDW Ground/Tower (Archives)
Chicago, Illinois, United States

Feed Status: UP
Listen in your browser - HTML5 player(in browser, HTML5)
Click here to listen with your own player(launches your MP3 player)

KMDW 230953Z 22015G22KT 10SM SCT110 OVC250 14/01 A2978 RMK AO2 SLP079 T01440011 $

KMDW Airport Info (Airnav.com)

KMDW Flight Activity (Flightaware)

Listeners: 0 out of 2299 total

Midway Ground: 118.075
Midway Tower: 135.200

KMDW Tower #1 (Archives)
Chicago, Illinois, United States

Feed Status: UP
Listen in your browser - HTML5 player(in browser, HTML5)
Click here to listen with your own player(launches your MP3 player)

KMDW 230953Z 22015G22KT 10SM SCT110 OVC250 14/01 A2978 RMK AO2 SLP079 T01440011 $

KMDW Airport Info (Airnav.com)

KMDW Flight Activity (Flightaware)

Listeners: 4 out of 2299 total

Midway Tower: 135.200

KMDW Tower #2 (Archives)
Chicago, Illinois, United States

Feed Status: UP
Listen in your browser - HTML5 player(in browser, HTML5)
Click here to listen with your own player(launches your MP3 player)

KMDW 230953Z 22015G22KT 10SM SCT110 OVC250 14/01 A2978 RMK AO2 SLP079 T01440011 $

KMDW Airport Info (Airnav.com)

KMDW Flight Activity (Flightaware)

Listeners: 0 out of 2299 total

Midway Tower: 135.200

KMGY App/Dep (Archives)
Dayton, Ohio, United States

Feed Status: UP
Listen in your browser - HTML5 player(in browser, HTML5)
Click here to listen with your own player(launches your MP3 player)

KMGY 230953Z AUTO 19007KT 10SM CLR 08/01 A3003 RMK AO2 SLP168 T00780011

KMGY Airport Info (Airnav.com)

KMGY Flight Activity (Flightaware)

Listeners: 0 out of 2299 total

Dayton Approach/Departure: 118.850

NORCAL App (EXPO/127.4) (Archives)
Sacramento, California, United States

Feed Status: UP
Listen in your browser - HTML5 player(in browser, HTML5)
Click here to listen with your own player(launches your MP3 player)

KMHR 230955Z AUTO 18011KT 10SM BKN090 12/09 A2982 RMK A01

KMHR Airport Info (Airnav.com)

KMHR Flight Activity (Flightaware)

Listeners: 0 out of 2299 total

NORCAL Approach (EXPO Sector): 127.400

KMHT App/Dep (Fitzy Sector) (Archives)
Manchester, New Hampshire, United States

Feed Status: UP
Listen in your browser - HTML5 player(in browser, HTML5)
Click here to listen with your own player(launches your MP3 player)

KMHT 230953Z 00000KT 10SM CLR M01/M04 A3015 RMK AO2 SLP226 T10111039

KMHT Airport Info (Airnav.com)

KMHT Flight Activity (Flightaware)

Listeners: 0 out of 2299 total

Boston Approach (Fitzy Sector): 124.900

KMHT ATIS #1
Manchester, New Hampshire, United States

Feed Status: DOWN
Offline since: 2024-04-23 09:00:05 UTC

KMHT 230953Z 00000KT 10SM CLR M01/M04 A3015 RMK AO2 SLP226 T10111039

KMHT Airport Info (Airnav.com)

Manchester ATIS: 119.550

KMHT ATIS #2 (Archives)
Manchester, New Hampshire, United States

Feed Status: UP
Listen in your browser - HTML5 player(in browser, HTML5)
Click here to listen with your own player(launches your MP3 player)

KMHT 230953Z 00000KT 10SM CLR M01/M04 A3015 RMK AO2 SLP226 T10111039

KMHT Airport Info (Airnav.com)

KMHT Flight Activity (Flightaware)

Listeners: 0 out of 2299 total

Manchester ATIS: 119.550

KMHT Boston App/Dep #1 (Archives)
Manchester, New Hampshire, United States

Feed Status: UP
Listen in your browser - HTML5 player(in browser, HTML5)
Click here to listen with your own player(launches your MP3 player)

KMHT 230953Z 00000KT 10SM CLR M01/M04 A3015 RMK AO2 SLP226 T10111039

KMHT Airport Info (Airnav.com)

KMHT Flight Activity (Flightaware)

Listeners: 1 out of 2299 total

Boston Approach (backup): 125.825
Boston Approach (Fitzy Sector): 124.900
Boston Approach (MHT/West Sector): 134.750
Boston Approach (Tommy Sector): 127.350

KMHT Boston App/Dep #2 (Archives)
Manchester, New Hampshire, United States

Feed Status: UP
Listen in your browser - HTML5 player(in browser, HTML5)
Click here to listen with your own player(launches your MP3 player)

KMHT 230953Z 00000KT 10SM CLR M01/M04 A3015 RMK AO2 SLP226 T10111039

KMHT Airport Info (Airnav.com)

KMHT Flight Activity (Flightaware)

Listeners: 0 out of 2299 total

Boston Approach (Fitzy Sector): 124.900
Boston Approach (MHT/West Sector): 134.750
Boston Approach (Tommy Sector): 127.350

KMHT Boston App/Dep #3 (Archives)
Manchester, New Hampshire, United States

Feed Status: UP
Listen in your browser - HTML5 player(in browser, HTML5)
Click here to listen with your own player(launches your MP3 player)

KASH 230956Z AUTO 00000KT 10SM CLR M02/M02 A3018 RMK AO2 SLP225 T10171022

KASH Airport Info (Airnav.com)

KASH Flight Activity (Flightaware)

Listeners: 0 out of 2299 total

Boston Approach (Fitzy Sector): 124.900

KMHT Boston App/Dep #3 (Archives)
Manchester, New Hampshire, United States

Feed Status: UP
Listen in your browser - HTML5 player(in browser, HTML5)
Click here to listen with your own player(launches your MP3 player)

KMHT 230953Z 00000KT 10SM CLR M01/M04 A3015 RMK AO2 SLP226 T10111039

KMHT Airport Info (Airnav.com)

KMHT Flight Activity (Flightaware)

Listeners: 0 out of 2299 total

Boston Approach (Fitzy Sector): 124.900
Boston Approach (MHT/West Sector): 134.750
Boston Approach (Tommy Sector): 127.350

KMHT Del/Gnd/Twr (Archives)
Manchester, New Hampshire, United States

Feed Status: UP
Listen in your browser - HTML5 player(in browser, HTML5)
Click here to listen with your own player(launches your MP3 player)

KMHT 230953Z 00000KT 10SM CLR M01/M04 A3015 RMK AO2 SLP226 T10111039

KMHT Airport Info (Airnav.com)

KMHT Flight Activity (Flightaware)

Listeners: 0 out of 2299 total

Airport Response 01: 158.730
Airport Response 02: 158.340
Airport Response 03: 159.720
Manchester Clearance Delivery: 135.900
Manchester Ground: 121.900
Manchester Tower: 121.300

KMHT Del/Gnd/Twr #2 (Archives)
Manchester, New Hampshire, United States

Feed Status: UP
Listen in your browser - HTML5 player(in browser, HTML5)
Click here to listen with your own player(launches your MP3 player)

KMHT 230953Z 00000KT 10SM CLR M01/M04 A3015 RMK AO2 SLP226 T10111039

KMHT Airport Info (Airnav.com)

KMHT Flight Activity (Flightaware)

Listeners: 0 out of 2299 total

Manchester Clearance Delivery: 135.900
Manchester Ground: 121.900
Manchester Tower: 121.300

KMHT Del/Gnd/Twr/App (Archives)
Manchester, New Hampshire, United States

Feed Status: UP
Listen in your browser - HTML5 player(in browser, HTML5)
Click here to listen with your own player(launches your MP3 player)

KMHT 230953Z 00000KT 10SM CLR M01/M04 A3015 RMK AO2 SLP226 T10111039

KMHT Airport Info (Airnav.com)

KMHT Flight Activity (Flightaware)

Listeners: 1 out of 2299 total

Airport Response 01: 158.730
Airport Response 02: 158.340
Airport Response 03: 159.720
Boston Approach (backup): 125.825
Boston Approach (Fitzy Sector): 124.900
Boston Approach (MHT/West Sector): 134.750
Emergency/Guard: 121.500
Manchester Clearance Delivery: 135.900
Manchester Ground: 121.900
Manchester Tower: 121.300

KMHT Ground (Archives)
Manchester, New Hampshire, United States

Feed Status: UP
Listen in your browser - HTML5 player(in browser, HTML5)
Click here to listen with your own player(launches your MP3 player)

KMHT 230953Z 00000KT 10SM CLR M01/M04 A3015 RMK AO2 SLP226 T10111039

KMHT Airport Info (Airnav.com)

KMHT Flight Activity (Flightaware)

Listeners: 0 out of 2299 total

Manchester Ground: 121.900

KMHT Tower #1 (Archives)
Manchester, New Hampshire, United States

Feed Status: UP
Listen in your browser - HTML5 player(in browser, HTML5)
Click here to listen with your own player(launches your MP3 player)

KMHT 230953Z 00000KT 10SM CLR M01/M04 A3015 RMK AO2 SLP226 T10111039

KMHT Airport Info (Airnav.com)

KMHT Flight Activity (Flightaware)

Listeners: 0 out of 2299 total

Manchester Tower: 121.300

KMHT Tower #2 (Archives)
Manchester, New Hampshire, United States

Feed Status: UP
Listen in your browser - HTML5 player(in browser, HTML5)
Click here to listen with your own player(launches your MP3 player)

KMHT 230953Z 00000KT 10SM CLR M01/M04 A3015 RMK AO2 SLP226 T10111039

KMHT Airport Info (Airnav.com)

KMHT Flight Activity (Flightaware)

Listeners: 0 out of 2299 total

Manchester Tower: 121.300

KMHT Tower #3
Manchester, New Hampshire, United States

Feed Status: DOWN
Offline since: 2024-04-23 06:42:05 UTC

KMHT 230953Z 00000KT 10SM CLR M01/M04 A3015 RMK AO2 SLP226 T10111039

KMHT Airport Info (Airnav.com)

Manchester Tower: 121.300

KMKE Approach/Departure (Archives)
Milwaukee, Wisconsin, United States

Feed Status: UP
Listen in your browser - HTML5 player(in browser, HTML5)
Click here to listen with your own player(launches your MP3 player)

KMKE 230952Z 23015G23KT 10SM BKN250 13/02 A2967 RMK AO2 PK WND 23028/0935 SLP047 T01330017

KMKE Airport Info (Airnav.com)

KMKE Flight Activity (Flightaware)

Listeners: 0 out of 2299 total

Milwaukee Approach: 118.000
Milwaukee Approach: 125.350
Milwaukee Approach: 126.500

KMKE Ground (Archives)
Milwaukee, Wisconsin, United States

Feed Status: UP
Listen in your browser - HTML5 player(in browser, HTML5)
Click here to listen with your own player(launches your MP3 player)

KMKE 230952Z 23015G23KT 10SM BKN250 13/02 A2967 RMK AO2 PK WND 23028/0935 SLP047 T01330017

KMKE Airport Info (Airnav.com)

KMKE Flight Activity (Flightaware)

Listeners: 0 out of 2299 total

Milwaukee Ground: 121.800
Muskegon Ground: 121.600
Timmerman Ground: 121.700

KMKE Tower (Archives)
Milwaukee, Wisconsin, United States

Feed Status: UP
Listen in your browser - HTML5 player(in browser, HTML5)
Click here to listen with your own player(launches your MP3 player)

KMKE 230952Z 23015G23KT 10SM BKN250 13/02 A2967 RMK AO2 PK WND 23028/0935 SLP047 T01330017

KMKE Airport Info (Airnav.com)

KMKE Flight Activity (Flightaware)

Listeners: 0 out of 2299 total

Milwaukee Tower: 124.575

KMLI App/Dep (Archives)
Moline, Illinois, United States

Feed Status: UP
Listen in your browser - HTML5 player(in browser, HTML5)
Click here to listen with your own player(launches your MP3 player)

KMLI 230952Z AUTO 24008KT 10SM OVC100 14/03 A2977 RMK AO2 SLP079 T01440028

KMLI Airport Info (Airnav.com)

KMLI Flight Activity (Flightaware)

Listeners: 0 out of 2299 total

Quad City Approach/Departure (N/NE): 125.950
Quad City Approach/Departure (S/SE): 133.275

KMLI ATIS (Archives)
Moline, Illinois, United States

Feed Status: UP
Listen in your browser - HTML5 player(in browser, HTML5)
Click here to listen with your own player(launches your MP3 player)

KMLI 230952Z AUTO 24008KT 10SM OVC100 14/03 A2977 RMK AO2 SLP079 T01440028

KMLI Airport Info (Airnav.com)

KMLI Flight Activity (Flightaware)

Listeners: 0 out of 2299 total

Quad City ATIS: 121.200

KMLI Tower (Archives)
Moline, Illinois, United States

Feed Status: UP
Listen in your browser - HTML5 player(in browser, HTML5)
Click here to listen with your own player(launches your MP3 player)

KMLI 230952Z AUTO 24008KT 10SM OVC100 14/03 A2977 RMK AO2 SLP079 T01440028

KMLI Airport Info (Airnav.com)

KMLI Flight Activity (Flightaware)

Listeners: 0 out of 2299 total

Quad City Tower: 119.400

KMRY App/Dep (Archives)
Monterey, California, United States

Feed Status: UP
Listen in your browser - HTML5 player(in browser, HTML5)
Click here to listen with your own player(launches your MP3 player)

KMRY 230954Z AUTO VRB04KT 10SM OVC023 13/07 A2991 RMK AO2 SLP142 T01280072

KMRY Airport Info (Airnav.com)

KMRY Flight Activity (Flightaware)

Listeners: 0 out of 2299 total

NORCAL Approach (Fremont Sector/Monterey West): 133.000
NORCAL Approach (Seca Sector/Monterey East): 127.150

KMRY ATIS (Archives)
Monterey, California, United States

Feed Status: UP
Listen in your browser - HTML5 player(in browser, HTML5)
Click here to listen with your own player(launches your MP3 player)

KMRY 230954Z AUTO VRB04KT 10SM OVC023 13/07 A2991 RMK AO2 SLP142 T01280072

KMRY Airport Info (Airnav.com)

KMRY Flight Activity (Flightaware)

Listeners: 0 out of 2299 total

Monterey ATIS: 119.250

KMRY Del/Gnd/Twr (Archives)
Monterey, California, United States

Feed Status: UP
Listen in your browser - HTML5 player(in browser, HTML5)
Click here to listen with your own player(launches your MP3 player)

KMRY 230954Z AUTO VRB04KT 10SM OVC023 13/07 A2991 RMK AO2 SLP142 T01280072

KMRY Airport Info (Airnav.com)

KMRY Flight Activity (Flightaware)

Listeners: 0 out of 2299 total

Monterey Clearance Delivery: 135.450
Monterey Ground: 120.875
Monterey Tower: 118.400

KMSN Approach/Departure (Archives)
Madison, Wisconsin, United States

Feed Status: UP
Listen in your browser - HTML5 player(in browser, HTML5)
Click here to listen with your own player(launches your MP3 player)

KMSN 230953Z AUTO 23006KT 10SM CLR 12/04 A2968 RMK AO2 SLP050 T01170039

KMSN Airport Info (Airnav.com)

KMSN Flight Activity (Flightaware)

Listeners: 2 out of 2299 total

Madison Approach/Departure: 120.100
Madison Approach/Departure: 135.450

KMSN ATIS (Archives)
Madison, Wisconsin, United States

Feed Status: UP
Listen in your browser - HTML5 player(in browser, HTML5)
Click here to listen with your own player(launches your MP3 player)

KMSN 230953Z AUTO 23006KT 10SM CLR 12/04 A2968 RMK AO2 SLP050 T01170039

KMSN Airport Info (Airnav.com)

KMSN Flight Activity (Flightaware)

Listeners: 0 out of 2299 total

Madison ATIS: 124.650

KMSN Clearance Delivery (Archives)
Madison, Wisconsin, United States

Feed Status: UP
Listen in your browser - HTML5 player(in browser, HTML5)
Click here to listen with your own player(launches your MP3 player)

KMSN 230953Z AUTO 23006KT 10SM CLR 12/04 A2968 RMK AO2 SLP050 T01170039

KMSN Airport Info (Airnav.com)

KMSN Flight Activity (Flightaware)

Listeners: 0 out of 2299 total

Madison Clearance Delivery: 121.625

KMSN Emergency/Guard (Archives)
Madison, Wisconsin, United States

Feed Status: UP
Listen in your browser - HTML5 player(in browser, HTML5)
Click here to listen with your own player(launches your MP3 player)

KMSN 230953Z AUTO 23006KT 10SM CLR 12/04 A2968 RMK AO2 SLP050 T01170039

KMSN Airport Info (Airnav.com)

KMSN Flight Activity (Flightaware)

Listeners: 0 out of 2299 total

Emergency/Guard: 121.500

KMSN Ground (Archives)
Madison, Wisconsin, United States

Feed Status: UP
Listen in your browser - HTML5 player(in browser, HTML5)
Click here to listen with your own player(launches your MP3 player)

KMSN 230953Z AUTO 23006KT 10SM CLR 12/04 A2968 RMK AO2 SLP050 T01170039

KMSN Airport Info (Airnav.com)

KMSN Flight Activity (Flightaware)

Listeners: 0 out of 2299 total

Madison Ground: 121.900

KMSN Tower (Archives)
Madison, Wisconsin, United States

Feed Status: UP
Listen in your browser - HTML5 player(in browser, HTML5)
Click here to listen with your own player(launches your MP3 player)

KMSN 230953Z AUTO 23006KT 10SM CLR 12/04 A2968 RMK AO2 SLP050 T01170039

KMSN Airport Info (Airnav.com)

KMSN Flight Activity (Flightaware)

Listeners: 0 out of 2299 total

Madison Tower: 119.300

KMSN Twr/App (Archives)
Madison, Wisconsin, United States

Feed Status: UP
Listen in your browser - HTML5 player(in browser, HTML5)
Click here to listen with your own player(launches your MP3 player)

KMSN 230953Z AUTO 23006KT 10SM CLR 12/04 A2968 RMK AO2 SLP050 T01170039

KMSN Airport Info (Airnav.com)

KMSN Flight Activity (Flightaware)

Listeners: 5 out of 2299 total

Emergency / GUARD: 121.500
Madison Approach (East): 120.100
Madison Approach (West): 135.450
Madison Tower: 119.300

KMYR Gnd/Twr/App (Archives)
Myrtle Beach, South Carolina, United States

Feed Status: UP
Listen in your browser - HTML5 player(in browser, HTML5)
Click here to listen with your own player(launches your MP3 player)

KMYR 230956Z 34004KT 10SM CLR 07/06 A3021 RMK AO2 SLP229 T00670061

KMYR Airport Info (Airnav.com)

KMYR Flight Activity (Flightaware)

Listeners: 0 out of 2299 total

Myrtle Beach Approach/Departure: 119.200
Myrtle Beach Approach/Departure: 127.400
Myrtle Beach ATIS (top of hour): 123.925
Myrtle Beach Ground: 120.300
Myrtle Beach Tower: 128.450

KMYR Gnd/Twr/App (UHF) (Archives)
Myrtle Beach, South Carolina, United States

Feed Status: UP
Listen in your browser - HTML5 player(in browser, HTML5)
Click here to listen with your own player(launches your MP3 player)

KMYR 230956Z 34004KT 10SM CLR 07/06 A3021 RMK AO2 SLP229 T00670061

KMYR Airport Info (Airnav.com)

KMYR Flight Activity (Flightaware)

Listeners: 0 out of 2299 total

Emergency/Guard: 243.000
Myrtle Beach Approach/Departure (171-321 degrees) : 257.950
Myrtle Beach Approach/Departure (322-170 degrees): 350.300
Myrtle Beach Ground: 275.800
Myrtle Beach Tower: 259.300
PMSV (Pilot-to-Meteorological Service): 239.800

KPNS App/Dep 120.65 (Archives)
Pensacola, Florida, United States

Feed Status: UP
Listen in your browser - HTML5 player(in browser, HTML5)
Click here to listen with your own player(launches your MP3 player)

KPNS 230953Z 04005KT 10SM CLR 12/04 A3015 RMK AO2 SLP210 T01220039

KPNS Airport Info (Airnav.com)

KPNS Flight Activity (Flightaware)

Listeners: 0 out of 2299 total

Pensacola Approach/Departure: 120.650

KOAK Del/Gnd/Twr (Archives)
Oakland, California, United States

Feed Status: UP
Listen in your browser - HTML5 player(in browser, HTML5)
Click here to listen with your own player(launches your MP3 player)

KOAK 230953Z 22016KT 10SM FEW028 13/09 A2989 RMK AO2 SLP121 T01330094

KOAK Airport Info (Airnav.com)

KOAK Flight Activity (Flightaware)

Listeners: 3 out of 2299 total

Oakland Clearance Delivery: 121.100
Oakland Ground: 121.750
Oakland Ground (North): 121.900
Oakland Tower: 127.200
Oakland Tower (Runways 28L/10R, 28R/10L, 33/15): 118.300

NORCAL Approach (KOAK) (Archives)
Oakland, California, United States

Feed Status: UP
Listen in your browser - HTML5 player(in browser, HTML5)
Click here to listen with your own player(launches your MP3 player)

KOAK 230953Z 22016KT 10SM FEW028 13/09 A2989 RMK AO2 SLP121 T01330094

KOAK Airport Info (Airnav.com)

KOAK Flight Activity (Flightaware)

Listeners: 1 out of 2299 total

NORCAL Approach (KOAK Rwy 29/27R Final): 125.350
NORCAL Approach (Mulford Sector): 124.400

NORCAL Departure (KSFO/KOAK) (Archives)
Oakland, California, United States

Feed Status: UP
Listen in your browser - HTML5 player(in browser, HTML5)
Click here to listen with your own player(launches your MP3 player)

KOAK 230953Z 22016KT 10SM FEW028 13/09 A2989 RMK AO2 SLP121 T01330094

KOAK Airport Info (Airnav.com)

KOAK Flight Activity (Flightaware)

Listeners: 2 out of 2299 total

NORCAL Departure (Northeast Departures): 120.900
NORCAL Departure (Northeast Departures): 127.000
NORCAL Departure (Southwest Departures): 127.975
NORCAL Departure (Southwest Departures): 135.100

KOCF Gnd/Twr/App (Archives)
Ocala, Florida, United States

Feed Status: UP
Listen in your browser - HTML5 player(in browser, HTML5)
Click here to listen with your own player(launches your MP3 player)

KOCF 230951Z AUTO 01004KT 10SM CLR 11/09 A3017 RMK AO2 SLP216 T01110094 PNO $

KOCF Airport Info (Airnav.com)

KOCF Flight Activity (Flightaware)

Listeners: 0 out of 2299 total

Jacksonville Approach (OCF RCO): 118.600
Ocala Ground: 121.400
Ocala Tower: 119.250
UNICOM: 123.000

KOFF Gnd/Twr/App/ZMP
Omaha, Nebraska, United States

Feed Status: DOWN
Offline since: 2023-05-28 23:50:22 UTC

KOFF 230855Z 29006KT 10SM BKN120 BKN150 13/07 A2982 RMK AO2A DZE00 PRESRR SLP098 P0000 60000 T01310073 53010

KOFF Airport Info (Airnav.com)

Emergency/Guard: 121.500
Minneapolis Center (Sector 27 Low): 119.600
Offutt AFB Ground: 121.700
Offutt AFB Tower: 123.700
Omaha Approach/Departure (East): 124.500
Omaha Approach/Departure (West): 120.100

KOKC App/Dep (NE) (Archives)
Oklahoma City, Oklahoma, United States

Feed Status: UP
Listen in your browser - HTML5 player(in browser, HTML5)
Click here to listen with your own player(launches your MP3 player)

KOKC 230952Z 19019G26KT 10SM CLR 13/08 A2986 RMK AO2 PK WND 19029/0926 SLP105 T01330083 $

KOKC Airport Info (Airnav.com)

KOKC Flight Activity (Flightaware)

Listeners: 1 out of 2299 total

Oke City Approach/Departure: 124.200

KOKC App/Dep (SW) (Archives)
Oklahoma City, Oklahoma, United States

Feed Status: UP
Listen in your browser - HTML5 player(in browser, HTML5)
Click here to listen with your own player(launches your MP3 player)

KOKC 230952Z 19019G26KT 10SM CLR 13/08 A2986 RMK AO2 PK WND 19029/0926 SLP105 T01330083 $

KOKC Airport Info (Airnav.com)

KOKC Flight Activity (Flightaware)

Listeners: 1 out of 2299 total

Oke City Approach/Departure: 124.600

KOKC ATIS (Archives)
Oklahoma City, Oklahoma, United States

Feed Status: UP
Listen in your browser - HTML5 player(in browser, HTML5)
Click here to listen with your own player(launches your MP3 player)

KOKC 230952Z 19019G26KT 10SM CLR 13/08 A2986 RMK AO2 PK WND 19029/0926 SLP105 T01330083 $

KOKC Airport Info (Airnav.com)

KOKC Flight Activity (Flightaware)

Listeners: 0 out of 2299 total

Rogers ATIS: 125.850

KOKC Clearance Delivery (Archives)
Oklahoma City, Oklahoma, United States

Feed Status: UP
Listen in your browser - HTML5 player(in browser, HTML5)
Click here to listen with your own player(launches your MP3 player)

KOKC 230952Z 19019G26KT 10SM CLR 13/08 A2986 RMK AO2 PK WND 19029/0926 SLP105 T01330083 $

KOKC Airport Info (Airnav.com)

KOKC Flight Activity (Flightaware)

Listeners: 0 out of 2299 total

Rogers Clearance Delivery: 124.350

KOKC Emergency/Guard (Archives)
Oklahoma City, Oklahoma, United States

Feed Status: UP
Listen in your browser - HTML5 player(in browser, HTML5)
Click here to listen with your own player(launches your MP3 player)

KOKC 230952Z 19019G26KT 10SM CLR 13/08 A2986 RMK AO2 PK WND 19029/0926 SLP105 T01330083 $

KOKC Airport Info (Airnav.com)

KOKC Flight Activity (Flightaware)

Listeners: 0 out of 2299 total

Emergency/Guard: 121.500

KOKC Ground (Archives)
Oklahoma City, Oklahoma, United States

Feed Status: UP
Listen in your browser - HTML5 player(in browser, HTML5)
Click here to listen with your own player(launches your MP3 player)

KOKC 230952Z 19019G26KT 10SM CLR 13/08 A2986 RMK AO2 PK WND 19029/0926 SLP105 T01330083 $

KOKC Airport Info (Airnav.com)

KOKC Flight Activity (Flightaware)

Listeners: 0 out of 2299 total

Rogers Ground: 121.900

KOKC Tower (Archives)
Oklahoma City, Oklahoma, United States

Feed Status: UP
Listen in your browser - HTML5 player(in browser, HTML5)
Click here to listen with your own player(launches your MP3 player)

KOKC 230952Z 19019G26KT 10SM CLR 13/08 A2986 RMK AO2 PK WND 19029/0926 SLP105 T01330083 $

KOKC Airport Info (Airnav.com)

KOKC Flight Activity (Flightaware)

Listeners: 0 out of 2299 total

Rogers Tower: 119.350
Rogers Tower: 120.250
Rogers Tower (UHF): 269.450

KONT Del/Gnd/Twr/App #1 (Archives)
Ontario, California, United States

Feed Status: UP
Listen in your browser - HTML5 player(in browser, HTML5)
Click here to listen with your own player(launches your MP3 player)

KONT 230953Z 26006KT 6SM BR BKN008 OVC012 13/11 A2994 RMK AO2 SLP128 T01330111

KONT Airport Info (Airnav.com)

KONT Flight Activity (Flightaware)

Listeners: 1 out of 2299 total

Ontario Clearance Delivery: 118.100
Ontario Ground: 121.900
Ontario Tower: 120.600
SOCAL Approach/Departure (N-NE): 127.000
SOCAL Approach/Departure (NE-S): 134.000
SOCAL Approach/Departure (S-SW): 135.400
SOCAL Approach/Departure (SW-N): 125.500

KONT Delivery (Archives)
Ontario, California, United States

Feed Status: UP
Listen in your browser - HTML5 player(in browser, HTML5)
Click here to listen with your own player(launches your MP3 player)

KONT 230953Z 26006KT 6SM BR BKN008 OVC012 13/11 A2994 RMK AO2 SLP128 T01330111

KONT Airport Info (Airnav.com)

KONT Flight Activity (Flightaware)

Listeners: 0 out of 2299 total

Ontario Clearance Delivery: 118.100

KONT Ground (Archives)
Ontario, California, United States

Feed Status: UP
Listen in your browser - HTML5 player(in browser, HTML5)
Click here to listen with your own player(launches your MP3 player)

KONT 230953Z 26006KT 6SM BR BKN008 OVC012 13/11 A2994 RMK AO2 SLP128 T01330111

KONT Airport Info (Airnav.com)

KONT Flight Activity (Flightaware)

Listeners: 0 out of 2299 total

Ontario Ground: 121.900

KONT Tower (Archives)
Ontario, California, United States

Feed Status: UP
Listen in your browser - HTML5 player(in browser, HTML5)
Click here to listen with your own player(launches your MP3 player)

KONT 230953Z 26006KT 6SM BR BKN008 OVC012 13/11 A2994 RMK AO2 SLP128 T01330111

KONT Airport Info (Airnav.com)

KONT Flight Activity (Flightaware)

Listeners: 0 out of 2299 total

Ontario Tower: 120.600

SOCAL App/Dep (KONT NE) (Archives)
Ontario, California, United States

Feed Status: UP
Listen in your browser - HTML5 player(in browser, HTML5)
Click here to listen with your own player(launches your MP3 player)

KONT 230953Z 26006KT 6SM BR BKN008 OVC012 13/11 A2994 RMK AO2 SLP128 T01330111

KONT Airport Info (Airnav.com)

KONT Flight Activity (Flightaware)

Listeners: 0 out of 2299 total

SOCAL Approach/Departure (N-NE): 127.000

SOCAL App/Dep (KONT NW) (Archives)
Ontario, California, United States

Feed Status: UP
Listen in your browser - HTML5 player(in browser, HTML5)
Click here to listen with your own player(launches your MP3 player)

KONT 230953Z 26006KT 6SM BR BKN008 OVC012 13/11 A2994 RMK AO2 SLP128 T01330111

KONT Airport Info (Airnav.com)

KONT Flight Activity (Flightaware)

Listeners: 0 out of 2299 total

SOCAL Approach/Departure (SW-N): 125.500

SOCAL App/Dep (KONT SE) (Archives)
Ontario, California, United States

Feed Status: UP
Listen in your browser - HTML5 player(in browser, HTML5)
Click here to listen with your own player(launches your MP3 player)

KONT 230953Z 26006KT 6SM BR BKN008 OVC012 13/11 A2994 RMK AO2 SLP128 T01330111

KONT Airport Info (Airnav.com)

KONT Flight Activity (Flightaware)

Listeners: 0 out of 2299 total

SOCAL Approach/Departure (NE-S): 134.000

SOCAL App/Dep (KONT SW) (Archives)
Ontario, California, United States

Feed Status: UP
Listen in your browser - HTML5 player(in browser, HTML5)
Click here to listen with your own player(launches your MP3 player)

KONT 230953Z 26006KT 6SM BR BKN008 OVC012 13/11 A2994 RMK AO2 SLP128 T01330111

KONT Airport Info (Airnav.com)

KONT Flight Activity (Flightaware)

Listeners: 0 out of 2299 total

SOCAL Approach/Departure (S-SW): 135.400

KCMH App/Dep (125.95) (Archives)
Columbus, Ohio, United States

Feed Status: UP
Listen in your browser - HTML5 player(in browser, HTML5)
Click here to listen with your own player(launches your MP3 player)

KCMH 230951Z 19007KT 10SM BKN170 09/00 A3004 RMK AO2 SLP174 T00890000 $

KCMH Airport Info (Airnav.com)

KCMH Flight Activity (Flightaware)

Listeners: 0 out of 2299 total

Columbus Approach/Departure (North): 125.950

KPBI App (Final) (Archives)
West Palm Beach, Florida, United States

Feed Status: UP
Listen in your browser - HTML5 player(in browser, HTML5)
Click here to listen with your own player(launches your MP3 player)

KPBI 230953Z 02010KT 10SM FEW041 SCT050 22/14 A3007 RMK AO2 SLP181 T02170139

KPBI Airport Info (Airnav.com)

KPBI Flight Activity (Flightaware)

Listeners: 0 out of 2299 total

Palm Beach Approach (PBI Final): 125.000

KPBI App (North) (Archives)
West Palm Beach, Florida, United States

Feed Status: UP
Listen in your browser - HTML5 player(in browser, HTML5)
Click here to listen with your own player(launches your MP3 player)

KPBI 230953Z 02010KT 10SM FEW041 SCT050 22/14 A3007 RMK AO2 SLP181 T02170139

KPBI Airport Info (Airnav.com)

KPBI Flight Activity (Flightaware)

Listeners: 0 out of 2299 total

Palm Beach Approach (North): 124.600

KPBI App (North/South) (Archives)
West Palm Beach, Florida, United States

Feed Status: UP
Listen in your browser - HTML5 player(in browser, HTML5)
Click here to listen with your own player(launches your MP3 player)

KPBI 230953Z 02010KT 10SM FEW041 SCT050 22/14 A3007 RMK AO2 SLP181 T02170139

KPBI Airport Info (Airnav.com)

KPBI Flight Activity (Flightaware)

Listeners: 0 out of 2299 total

Palm Beach Approach (North): 124.600
Palm Beach Approach (South): 125.200

KPBI App (South) (Archives)
West Palm Beach, Florida, United States

Feed Status: UP
Listen in your browser - HTML5 player(in browser, HTML5)
Click here to listen with your own player(launches your MP3 player)

KPBI 230953Z 02010KT 10SM FEW041 SCT050 22/14 A3007 RMK AO2 SLP181 T02170139

KPBI Airport Info (Airnav.com)

KPBI Flight Activity (Flightaware)

Listeners: 0 out of 2299 total

Palm Beach Approach (South): 125.200

KPBI ATIS (Archives)
West Palm Beach, Florida, United States

Feed Status: UP
Listen in your browser - HTML5 player(in browser, HTML5)
Click here to listen with your own player(launches your MP3 player)

KPBI 230953Z 02010KT 10SM FEW041 SCT050 22/14 A3007 RMK AO2 SLP181 T02170139

KPBI Airport Info (Airnav.com)

KPBI Flight Activity (Flightaware)

Listeners: 0 out of 2299 total

West Palm Beach ATIS: 123.750

KPBI Clearance Delivery (Archives)
West Palm Beach, Florida, United States

Feed Status: UP
Listen in your browser - HTML5 player(in browser, HTML5)
Click here to listen with your own player(launches your MP3 player)

KPBI 230953Z 02010KT 10SM FEW041 SCT050 22/14 A3007 RMK AO2 SLP181 T02170139

KPBI Airport Info (Airnav.com)

KPBI Flight Activity (Flightaware)

Listeners: 0 out of 2299 total

Palm Beach Clearance Delivery: 121.600

KPBI Dep (North) (Archives)
West Palm Beach, Florida, United States

Feed Status: UP
Listen in your browser - HTML5 player(in browser, HTML5)
Click here to listen with your own player(launches your MP3 player)

KPBI 230953Z 02010KT 10SM FEW041 SCT050 22/14 A3007 RMK AO2 SLP181 T02170139

KPBI Airport Info (Airnav.com)

KPBI Flight Activity (Flightaware)

Listeners: 0 out of 2299 total

Palm Beach Departure (North): 128.300

KPBI Dep (North/South) (Archives)
West Palm Beach, Florida, United States

Feed Status: UP
Listen in your browser - HTML5 player(in browser, HTML5)
Click here to listen with your own player(launches your MP3 player)

KPBI 230953Z 02010KT 10SM FEW041 SCT050 22/14 A3007 RMK AO2 SLP181 T02170139

KPBI Airport Info (Airnav.com)

KPBI Flight Activity (Flightaware)

Listeners: 0 out of 2299 total

Palm Beach Departure (North): 128.300
Palm Beach Departure (South): 127.350

KPBI Dep (South) (Archives)
West Palm Beach, Florida, United States

Feed Status: UP
Listen in your browser - HTML5 player(in browser, HTML5)
Click here to listen with your own player(launches your MP3 player)

KPBI 230953Z 02010KT 10SM FEW041 SCT050 22/14 A3007 RMK AO2 SLP181 T02170139

KPBI Airport Info (Airnav.com)

KPBI Flight Activity (Flightaware)

Listeners: 0 out of 2299 total

Palm Beach Departure (South): 127.350

KPBI Emergency/Guard (Archives)
West Palm Beach, Florida, United States

Feed Status: UP
Listen in your browser - HTML5 player(in browser, HTML5)
Click here to listen with your own player(launches your MP3 player)

KPBI 230953Z 02010KT 10SM FEW041 SCT050 22/14 A3007 RMK AO2 SLP181 T02170139

KPBI Airport Info (Airnav.com)

KPBI Flight Activity (Flightaware)

Listeners: 0 out of 2299 total

Emergency/Guard: 121.500

KPBI GA Gate Hold (Archives)
West Palm Beach, Florida, United States

Feed Status: UP
Listen in your browser - HTML5 player(in browser, HTML5)
Click here to listen with your own player(launches your MP3 player)

KPBI 230953Z 02010KT 10SM FEW041 SCT050 22/14 A3007 RMK AO2 SLP181 T02170139

KPBI Airport Info (Airnav.com)

KPBI Flight Activity (Flightaware)

Listeners: 0 out of 2299 total

KPBI Gate Hold (General Aviation): 118.750

KPBI Gnd/Twr (Archives)
West Palm Beach, Florida, United States

Feed Status: UP
Listen in your browser - HTML5 player(in browser, HTML5)
Click here to listen with your own player(launches your MP3 player)

KPBI 230953Z 02010KT 10SM FEW041 SCT050 22/14 A3007 RMK AO2 SLP181 T02170139

KPBI Airport Info (Airnav.com)

KPBI Flight Activity (Flightaware)

Listeners: 0 out of 2299 total

Palm Beach Ground: 121.900
Palm Beach Tower: 119.100

KPBI Ground (Archives)
West Palm Beach, Florida, United States

Feed Status: UP
Listen in your browser - HTML5 player(in browser, HTML5)
Click here to listen with your own player(launches your MP3 player)

KPBI 230953Z 02010KT 10SM FEW041 SCT050 22/14 A3007 RMK AO2 SLP181 T02170139

KPBI Airport Info (Airnav.com)

KPBI Flight Activity (Flightaware)

Listeners: 0 out of 2299 total

Palm Beach Ground: 121.900

KPBI Tower (Archives)
West Palm Beach, Florida, United States

Feed Status: UP
Listen in your browser - HTML5 player(in browser, HTML5)
Click here to listen with your own player(launches your MP3 player)

KPBI 230953Z 02010KT 10SM FEW041 SCT050 22/14 A3007 RMK AO2 SLP181 T02170139

KPBI Airport Info (Airnav.com)

KPBI Flight Activity (Flightaware)

Listeners: 0 out of 2299 total

Palm Beach Tower: 119.100

KPDX App/Dep (North) (Archives)
Portland, Oregon, United States

Feed Status: UP
Listen in your browser - HTML5 player(in browser, HTML5)
Click here to listen with your own player(launches your MP3 player)

KPDX 230953Z 00000KT 10SM CLR 09/03 A2993 RMK AO2 SLP135 T00940028 $

KPDX Airport Info (Airnav.com)

KPDX Flight Activity (Flightaware)

Listeners: 0 out of 2299 total

Portland Approach (280-099 deg): 124.350

KPDX Approach (Final) #1
Portland, Oregon, United States

Feed Status: DOWN
Offline since: 2024-04-23 10:25:05 UTC

KPDX 230953Z 00000KT 10SM CLR 09/03 A2993 RMK AO2 SLP135 T00940028 $

KPDX Airport Info (Airnav.com)

Portland Approach (Final): 126.900

KPDX Approach (Final) #2 (Archives)
Portland, Oregon, United States

Feed Status: UP
Listen in your browser - HTML5 player(in browser, HTML5)
Click here to listen with your own player(launches your MP3 player)

KPDX 230953Z 00000KT 10SM CLR 09/03 A2993 RMK AO2 SLP135 T00940028 $

KPDX Airport Info (Airnav.com)

KPDX Flight Activity (Flightaware)

Listeners: 0 out of 2299 total

Portland Approach (Final): 126.900

KPDX ATIS (Archives)
Portland, Oregon, United States

Feed Status: UP
Listen in your browser - HTML5 player(in browser, HTML5)
Click here to listen with your own player(launches your MP3 player)

KPDX 230953Z 00000KT 10SM CLR 09/03 A2993 RMK AO2 SLP135 T00940028 $

KPDX Airport Info (Airnav.com)

KPDX Flight Activity (Flightaware)

Listeners: 0 out of 2299 total

Portland ATIS: 128.350

KPDX Clearance Delivery (Archives)
Portland, Oregon, United States

Feed Status: UP
Listen in your browser - HTML5 player(in browser, HTML5)
Click here to listen with your own player(launches your MP3 player)

KPDX 230953Z 00000KT 10SM CLR 09/03 A2993 RMK AO2 SLP135 T00940028 $

KPDX Airport Info (Airnav.com)

KPDX Flight Activity (Flightaware)

Listeners: 0 out of 2299 total

Portland Clearance Delivery: 120.125

KPDX Del/Gnd (Archives)
Portland, Oregon, United States

Feed Status: UP
Listen in your browser - HTML5 player(in browser, HTML5)
Click here to listen with your own player(launches your MP3 player)

KPDX 230953Z 00000KT 10SM CLR 09/03 A2993 RMK AO2 SLP135 T00940028 $

KPDX Airport Info (Airnav.com)

KPDX Flight Activity (Flightaware)

Listeners: 0 out of 2299 total

Portland Clearance Delivery: 120.125
Portland Ground: 121.900

KPDX Ground (Archives)
Portland, Oregon, United States

Feed Status: UP
Listen in your browser - HTML5 player(in browser, HTML5)
Click here to listen with your own player(launches your MP3 player)

KPDX 230953Z 00000KT 10SM CLR 09/03 A2993 RMK AO2 SLP135 T00940028 $

KPDX Airport Info (Airnav.com)

KPDX Flight Activity (Flightaware)

Listeners: 0 out of 2299 total

Portland Ground: 121.900

KPDX Tower (Both) (Archives)
Portland, Oregon, United States

Feed Status: UP
Listen in your browser - HTML5 player(in browser, HTML5)
Click here to listen with your own player(launches your MP3 player)

KPDX 230953Z 00000KT 10SM CLR 09/03 A2993 RMK AO2 SLP135 T00940028 $

KPDX Airport Info (Airnav.com)

KPDX Flight Activity (Flightaware)

Listeners: 2 out of 2299 total

Portland Tower: 126.350
Portland Tower: 123.775
Portland Tower: 118.700

KPDX Tower (Primary) (Archives)
Portland, Oregon, United States

Feed Status: UP
Listen in your browser - HTML5 player(in browser, HTML5)
Click here to listen with your own player(launches your MP3 player)

KPDX 230953Z 00000KT 10SM CLR 09/03 A2993 RMK AO2 SLP135 T00940028 $

KPDX Airport Info (Airnav.com)

KPDX Flight Activity (Flightaware)

Listeners: 0 out of 2299 total

Portland Tower: 123.775

KPDX Tower (Rwy 10L/28R 118.7) (Archives)
Portland, Oregon, United States

Feed Status: UP
Listen in your browser - HTML5 player(in browser, HTML5)
Click here to listen with your own player(launches your MP3 player)

KPDX 230953Z 00000KT 10SM CLR 09/03 A2993 RMK AO2 SLP135 T00940028 $

KPDX Airport Info (Airnav.com)

KPDX Flight Activity (Flightaware)

Listeners: 1 out of 2299 total

Portland Tower: 118.700

KPDX Tower (Rwy 10L/28R 126.35) (Archives)
Portland, Oregon, United States

Feed Status: UP
Listen in your browser - HTML5 player(in browser, HTML5)
Click here to listen with your own player(launches your MP3 player)

KPDX 230953Z 00000KT 10SM CLR 09/03 A2993 RMK AO2 SLP135 T00940028 $

KPDX Airport Info (Airnav.com)

KPDX Flight Activity (Flightaware)

Listeners: 1 out of 2299 total

Portland Tower: 126.350

KPNS App/Dep 118.6 (Archives)
Pensacola, Florida, United States

Feed Status: UP
Listen in your browser - HTML5 player(in browser, HTML5)
Click here to listen with your own player(launches your MP3 player)

KPNS 230953Z 04005KT 10SM CLR 12/04 A3015 RMK AO2 SLP210 T01220039

KPNS Airport Info (Airnav.com)

KPNS Flight Activity (Flightaware)

Listeners: 0 out of 2299 total

Pensacola Approach/Departure: 118.600

KPNS App/Dep 119.0 (Archives)
Pensacola, Florida, United States

Feed Status: UP
Listen in your browser - HTML5 player(in browser, HTML5)
Click here to listen with your own player(launches your MP3 player)

KPNS 230953Z 04005KT 10SM CLR 12/04 A3015 RMK AO2 SLP210 T01220039

KPNS Airport Info (Airnav.com)

KPNS Flight Activity (Flightaware)

Listeners: 0 out of 2299 total

Pensacola Approach/Departure: 119.000

KPNS App/Dep 120.65 (Archives)
Pensacola, Florida, United States

Feed Status: UP
Listen in your browser - HTML5 player(in browser, HTML5)
Click here to listen with your own player(launches your MP3 player)

KPNS 230953Z 04005KT 10SM CLR 12/04 A3015 RMK AO2 SLP210 T01220039

KPNS Airport Info (Airnav.com)

KPNS Flight Activity (Flightaware)

Listeners: 0 out of 2299 total

Pensacola Approach/Departure: 120.650

KPNS App/Dep 125.35 (Archives)
Pensacola, Florida, United States

Feed Status: UP
Listen in your browser - HTML5 player(in browser, HTML5)
Click here to listen with your own player(launches your MP3 player)

KPNS 230953Z 04005KT 10SM CLR 12/04 A3015 RMK AO2 SLP210 T01220039

KPNS Airport Info (Airnav.com)

KPNS Flight Activity (Flightaware)

Listeners: 0 out of 2299 total

Pensacola Approach/Departure: 125.350

KPNS App/Dep 127.35/278.8 (Archives)
Pensacola, Florida, United States

Feed Status: UP
Listen in your browser - HTML5 player(in browser, HTML5)
Click here to listen with your own player(launches your MP3 player)

KPNS 230953Z 04005KT 10SM CLR 12/04 A3015 RMK AO2 SLP210 T01220039

KPNS Airport Info (Airnav.com)

KPNS Flight Activity (Flightaware)

Listeners: 0 out of 2299 total

Pensacola Approach/Departure: 127.350
Pensacola Approach/Departure: 278.700
Pensacola Approach/Departure: 353.600

KPNS ATIS (Archives)
Pensacola, Florida, United States

Feed Status: UP
Listen in your browser - HTML5 player(in browser, HTML5)
Click here to listen with your own player(launches your MP3 player)

KPNS 230953Z 04005KT 10SM CLR 12/04 A3015 RMK AO2 SLP210 T01220039

KPNS Airport Info (Airnav.com)

KPNS Flight Activity (Flightaware)

Listeners: 0 out of 2299 total

Pensacola ATIS: 121.250

KPNS Clearance Delivery (Archives)
Pensacola, Florida, United States

Feed Status: UP
Listen in your browser - HTML5 player(in browser, HTML5)
Click here to listen with your own player(launches your MP3 player)

KPNS 230953Z 04005KT 10SM CLR 12/04 A3015 RMK AO2 SLP210 T01220039

KPNS Airport Info (Airnav.com)

KPNS Flight Activity (Flightaware)

Listeners: 0 out of 2299 total

Pensacola Clearance Delivery: 123.725

KPNS Del/Gnd/Twr (Archives)
Pensacola, Florida, United States

Feed Status: UP
Listen in your browser - HTML5 player(in browser, HTML5)
Click here to listen with your own player(launches your MP3 player)

KPNS 230953Z 04005KT 10SM CLR 12/04 A3015 RMK AO2 SLP210 T01220039

KPNS Airport Info (Airnav.com)

KPNS Flight Activity (Flightaware)

Listeners: 1 out of 2299 total

Pensacola Clearance Delivery: 123.725
Pensacola Clearance Delivery: 256.875
Pensacola Ground: 121.900
Pensacola Ground: 348.600
Pensacola Tower: 119.900
Pensacola Tower: 257.800

KPNS Ground (Archives)
Pensacola, Florida, United States

Feed Status: UP
Listen in your browser - HTML5 player(in browser, HTML5)
Click here to listen with your own player(launches your MP3 player)

KPNS 230953Z 04005KT 10SM CLR 12/04 A3015 RMK AO2 SLP210 T01220039

KPNS Airport Info (Airnav.com)

KPNS Flight Activity (Flightaware)

Listeners: 0 out of 2299 total

Pensacola Ground: 121.900

KPNS Tower #2 (Archives)
Pensacola, Florida, United States

Feed Status: UP
Listen in your browser - HTML5 player(in browser, HTML5)
Click here to listen with your own player(launches your MP3 player)

KPNS 230953Z 04005KT 10SM CLR 12/04 A3015 RMK AO2 SLP210 T01220039

KPNS Airport Info (Airnav.com)

KPNS Flight Activity (Flightaware)

Listeners: 0 out of 2299 total

Pensacola Tower: 119.900

KPNS Tower #3 (Archives)
Pensacola, Florida, United States

Feed Status: UP
Listen in your browser - HTML5 player(in browser, HTML5)
Click here to listen with your own player(launches your MP3 player)

KPNS 230953Z 04005KT 10SM CLR 12/04 A3015 RMK AO2 SLP210 T01220039

KPNS Airport Info (Airnav.com)

KPNS Flight Activity (Flightaware)

Listeners: 0 out of 2299 total

Pensacola Tower: 119.900

KPVD App/Dep (Archives)
Providence, Rhode Island, United States

Feed Status: UP
Listen in your browser - HTML5 player(in browser, HTML5)
Click here to listen with your own player(launches your MP3 player)

KPVD 230951Z 00000KT 10SM BCFG FEW250 02/00 A3018 RMK AO2 SLP221 BCFG S T00170000 $

KPVD Airport Info (Airnav.com)

KPVD Flight Activity (Flightaware)

Listeners: 0 out of 2299 total

Providence Approach: 127.900
Providence Approach: 125.750
Providence Approach/Departure (RHODY Sector): 123.675

KPVD ATIS (Archives)
Providence, Rhode Island, United States

Feed Status: UP
Listen in your browser - HTML5 player(in browser, HTML5)
Click here to listen with your own player(launches your MP3 player)

KPVD 230951Z 00000KT 10SM BCFG FEW250 02/00 A3018 RMK AO2 SLP221 BCFG S T00170000 $

KPVD Airport Info (Airnav.com)

KPVD Flight Activity (Flightaware)

Listeners: 0 out of 2299 total

Providence ATIS: 124.200

KPVD Clearance Delivery (Archives)
Providence, Rhode Island, United States

Feed Status: UP
Listen in your browser - HTML5 player(in browser, HTML5)
Click here to listen with your own player(launches your MP3 player)

KPVD 230951Z 00000KT 10SM BCFG FEW250 02/00 A3018 RMK AO2 SLP221 BCFG S T00170000 $

KPVD Airport Info (Airnav.com)

KPVD Flight Activity (Flightaware)

Listeners: 0 out of 2299 total

Providence Clearance Delivery: 126.650

KPVD Ground (Archives)
Providence, Rhode Island, United States

Feed Status: UP
Listen in your browser - HTML5 player(in browser, HTML5)
Click here to listen with your own player(launches your MP3 player)

KPVD 230951Z 00000KT 10SM BCFG FEW250 02/00 A3018 RMK AO2 SLP221 BCFG S T00170000 $

KPVD Airport Info (Airnav.com)

KPVD Flight Activity (Flightaware)

Listeners: 0 out of 2299 total

Providence Ground: 121.900

KPVD Tower (Archives)
Providence, Rhode Island, United States

Feed Status: UP
Listen in your browser - HTML5 player(in browser, HTML5)
Click here to listen with your own player(launches your MP3 player)

KPVD 230951Z 00000KT 10SM BCFG FEW250 02/00 A3018 RMK AO2 SLP221 BCFG S T00170000 $

KPVD Airport Info (Airnav.com)

KPVD Flight Activity (Flightaware)

Listeners: 0 out of 2299 total

Providence Tower: 120.700

KPWM App/Dep #1 (Archives)
Portland, Maine, United States

Feed Status: UP
Listen in your browser - HTML5 player(in browser, HTML5)
Click here to listen with your own player(launches your MP3 player)

KPWM 230951Z 00000KT 10SM FEW250 M01/M05 A3017 RMK AO2 SLP217 T10111050 $

KPWM Airport Info (Airnav.com)

KPWM Flight Activity (Flightaware)

Listeners: 1 out of 2299 total

Portland Approach (South): 119.750

KPWM App/Dep #2 (Archives)
Portland, Maine, United States

Feed Status: UP
Listen in your browser - HTML5 player(in browser, HTML5)
Click here to listen with your own player(launches your MP3 player)

KPWM 230951Z 00000KT 10SM FEW250 M01/M05 A3017 RMK AO2 SLP217 T10111050 $

KPWM Airport Info (Airnav.com)

KPWM Flight Activity (Flightaware)

Listeners: 0 out of 2299 total

Portland Approach (South): 119.750

KPWM Gnd/Tower (Archives)
Portland, Maine, United States

Feed Status: UP
Listen in your browser - HTML5 player(in browser, HTML5)
Click here to listen with your own player(launches your MP3 player)

KPWM 230951Z 00000KT 10SM FEW250 M01/M05 A3017 RMK AO2 SLP217 T10111050 $

KPWM Airport Info (Airnav.com)

KPWM Flight Activity (Flightaware)

Listeners: 1 out of 2299 total

Portland Clearance Delivery: 121.900
Portland Ground: 121.900
Portland Tower: 120.900

KPWM Gnd/Twr/App (Archives)
Portland, Maine, United States

Feed Status: UP
Listen in your browser - HTML5 player(in browser, HTML5)
Click here to listen with your own player(launches your MP3 player)

KPWM 230951Z 00000KT 10SM FEW250 M01/M05 A3017 RMK AO2 SLP217 T10111050 $

KPWM Airport Info (Airnav.com)

KPWM Flight Activity (Flightaware)

Listeners: 0 out of 2299 total

Portland Approach (South): 119.750
Portland Clearance Delivery: 121.900
Portland Ground: 121.900
Portland Tower: 120.900

KPWM Tower #1 (Archives)
Portland, Maine, United States

Feed Status: UP
Listen in your browser - HTML5 player(in browser, HTML5)
Click here to listen with your own player(launches your MP3 player)

KPWM 230951Z 00000KT 10SM FEW250 M01/M05 A3017 RMK AO2 SLP217 T10111050 $

KPWM Airport Info (Airnav.com)

KPWM Flight Activity (Flightaware)

Listeners: 0 out of 2299 total

Portland Tower: 120.900

KPWM Tower #2 (Archives)
Portland, Maine, United States

Feed Status: UP
Listen in your browser - HTML5 player(in browser, HTML5)
Click here to listen with your own player(launches your MP3 player)

KPWM 230951Z 00000KT 10SM FEW250 M01/M05 A3017 RMK AO2 SLP217 T10111050 $

KPWM Airport Info (Airnav.com)

KPWM Flight Activity (Flightaware)

Listeners: 0 out of 2299 total

Portland Tower: 120.900

KRDU Approach (Archives)
Raleigh/Durham, North Carolina, United States

Feed Status: UP
Listen in your browser - HTML5 player(in browser, HTML5)
Click here to listen with your own player(launches your MP3 player)

KRDU 230951Z 00000KT 10SM BCFG FEW250 03/M01 A3019 RMK T00281006

KRDU Airport Info (Airnav.com)

KRDU Flight Activity (Flightaware)

Listeners: 1 out of 2299 total

Raleigh Approach: 124.950
Raleigh Approach: 127.675

KRDU Approach/Departure (Archives)
Raleigh/Durham, North Carolina, United States

Feed Status: UP
Listen in your browser - HTML5 player(in browser, HTML5)
Click here to listen with your own player(launches your MP3 player)

KRDU 230951Z 00000KT 10SM BCFG FEW250 03/M01 A3019 RMK T00281006

KRDU Airport Info (Airnav.com)

KRDU Flight Activity (Flightaware)

Listeners: 0 out of 2299 total

Raleigh Approach: 124.950
Raleigh Approach: 127.675
Raleigh Departure: 125.300
Raleigh Departure: 132.350

KRDU Departure (Archives)
Raleigh/Durham, North Carolina, United States

Feed Status: UP
Listen in your browser - HTML5 player(in browser, HTML5)
Click here to listen with your own player(launches your MP3 player)

KRDU 230951Z 00000KT 10SM BCFG FEW250 03/M01 A3019 RMK T00281006

KRDU Airport Info (Airnav.com)

KRDU Flight Activity (Flightaware)

Listeners: 0 out of 2299 total

Raleigh Departure: 132.350
Raleigh Departure: 125.300

KRDU Departure 132.35 (Archives)
Raleigh/Durham, North Carolina, United States

Feed Status: UP
Listen in your browser - HTML5 player(in browser, HTML5)
Click here to listen with your own player(launches your MP3 player)

KRDU 230951Z 00000KT 10SM BCFG FEW250 03/M01 A3019 RMK T00281006

KRDU Airport Info (Airnav.com)

KRDU Flight Activity (Flightaware)

Listeners: 0 out of 2299 total

Raleigh Departure: 132.350

KRDU Tower (Archives)
Raleigh/Durham, North Carolina, United States

Feed Status: UP
Listen in your browser - HTML5 player(in browser, HTML5)
Click here to listen with your own player(launches your MP3 player)

KRDU 230951Z 00000KT 10SM BCFG FEW250 03/M01 A3019 RMK T00281006

KRDU Airport Info (Airnav.com)

KRDU Flight Activity (Flightaware)

Listeners: 0 out of 2299 total

Raleigh Tower (East: Rwys 05R/23L, 14/32): 127.450
Raleigh Tower (West: Rwy 05L/23R): 119.300

KRNO Clearance Delivery (Archives)
Reno, Nevada, United States

Feed Status: UP
Listen in your browser - HTML5 player(in browser, HTML5)
Click here to listen with your own player(launches your MP3 player)

KRNO 230955Z 29005KT 10SM BKN110 14/03 A2990 RMK AO2 SLP078 T01440028

KRNO Airport Info (Airnav.com)

KRNO Flight Activity (Flightaware)

Listeners: 0 out of 2299 total

Reno Clearance Delivery: 124.900

KRNO Del/Gnd/Twr (Archives)
Reno, Nevada, United States

Feed Status: UP
Listen in your browser - HTML5 player(in browser, HTML5)
Click here to listen with your own player(launches your MP3 player)

KRNO 230955Z 29005KT 10SM BKN110 14/03 A2990 RMK AO2 SLP078 T01440028

KRNO Airport Info (Airnav.com)

KRNO Flight Activity (Flightaware)

Listeners: 0 out of 2299 total

Reno Clearance Delivery: 124.900
Reno Ground: 121.900
Reno Tower: 118.700

KRNO Del/Gnd/Twr (Archives)
Reno, Nevada, United States

Feed Status: UP
Listen in your browser - HTML5 player(in browser, HTML5)
Click here to listen with your own player(launches your MP3 player)

KRNO 230955Z 29005KT 10SM BKN110 14/03 A2990 RMK AO2 SLP078 T01440028

KRNO Airport Info (Airnav.com)

KRNO Flight Activity (Flightaware)

Listeners: 0 out of 2299 total

Reno Clearance Delivery: 124.900
Reno Ground: 121.900
Reno Tower: 118.700

KRNO Del/Gnd/Twr/App/ZOA (Archives)
Reno, Nevada, United States

Feed Status: UP
Listen in your browser - HTML5 player(in browser, HTML5)
Click here to listen with your own player(launches your MP3 player)

KRNO 230955Z 29005KT 10SM BKN110 14/03 A2990 RMK AO2 SLP078 T01440028

KRNO Airport Info (Airnav.com)

KRNO Flight Activity (Flightaware)

Listeners: 4 out of 2299 total

Emergency/Guard: 121.500
NORCAL Approach (Reno North): 126.300
NORCAL Approach (Reno South): 119.200
Oakland Center (Zone 45, Lo): 128.800
Reno Clearance Delivery: 124.900
Reno Ground: 121.900
Reno Tower: 118.700

KRNO Emergency/Guard (Archives)
Reno, Nevada, United States

Feed Status: UP
Listen in your browser - HTML5 player(in browser, HTML5)
Click here to listen with your own player(launches your MP3 player)

KRNO 230955Z 29005KT 10SM BKN110 14/03 A2990 RMK AO2 SLP078 T01440028

KRNO Airport Info (Airnav.com)

KRNO Flight Activity (Flightaware)

Listeners: 0 out of 2299 total

Emergency/Guard: 121.500

KRNO Ground (Archives)
Reno, Nevada, United States

Feed Status: UP
Listen in your browser - HTML5 player(in browser, HTML5)
Click here to listen with your own player(launches your MP3 player)

KRNO 230955Z 29005KT 10SM BKN110 14/03 A2990 RMK AO2 SLP078 T01440028

KRNO Airport Info (Airnav.com)

KRNO Flight Activity (Flightaware)

Listeners: 0 out of 2299 total

Reno Ground: 121.900

KRNO NORCAL App/Dep (Archives)
Reno, Nevada, United States

Feed Status: UP
Listen in your browser - HTML5 player(in browser, HTML5)
Click here to listen with your own player(launches your MP3 player)

KRNO 230955Z 29005KT 10SM BKN110 14/03 A2990 RMK AO2 SLP078 T01440028

KRNO Airport Info (Airnav.com)

KRNO Flight Activity (Flightaware)

Listeners: 0 out of 2299 total

NORCAL Approach (Reno North): 126.300
NORCAL Approach (Reno South): 119.200

KRNO NORCAL App/Dep (North) (Archives)
Reno, Nevada, United States

Feed Status: UP
Listen in your browser - HTML5 player(in browser, HTML5)
Click here to listen with your own player(launches your MP3 player)

KRNO 230955Z 29005KT 10SM BKN110 14/03 A2990 RMK AO2 SLP078 T01440028

KRNO Airport Info (Airnav.com)

KRNO Flight Activity (Flightaware)

Listeners: 0 out of 2299 total

NORCAL Approach (Reno North): 126.300

KRNO NORCAL App/Dep (South) (Archives)
Reno, Nevada, United States

Feed Status: UP
Listen in your browser - HTML5 player(in browser, HTML5)
Click here to listen with your own player(launches your MP3 player)

KRNO 230955Z 29005KT 10SM BKN110 14/03 A2990 RMK AO2 SLP078 T01440028

KRNO Airport Info (Airnav.com)

KRNO Flight Activity (Flightaware)

Listeners: 0 out of 2299 total

NORCAL Approach (Reno South): 119.200

KRNO Tower (Archives)
Reno, Nevada, United States

Feed Status: UP
Listen in your browser - HTML5 player(in browser, HTML5)
Click here to listen with your own player(launches your MP3 player)

KRNO 230955Z 29005KT 10SM BKN110 14/03 A2990 RMK AO2 SLP078 T01440028

KRNO Airport Info (Airnav.com)

KRNO Flight Activity (Flightaware)

Listeners: 0 out of 2299 total

Reno Tower: 118.700

KROA App/Dep #1 (Archives)
Roanoke, Virginia, United States

Feed Status: UP
Listen in your browser - HTML5 player(in browser, HTML5)
Click here to listen with your own player(launches your MP3 player)

KROA 230954Z 02003KT 10SM CLR 04/M01 A3018 RMK AO2 SLP220 T00441006

KROA Airport Info (Airnav.com)

KROA Flight Activity (Flightaware)

Listeners: 0 out of 2299 total

Roanoke Approach: 118.150
Roanoke Approach: 126.900

KROA App/Dep #2 (Archives)
Roanoke, Virginia, United States

Feed Status: UP
Listen in your browser - HTML5 player(in browser, HTML5)
Click here to listen with your own player(launches your MP3 player)

KROA 230954Z 02003KT 10SM CLR 04/M01 A3018 RMK AO2 SLP220 T00441006

KROA Airport Info (Airnav.com)

KROA Flight Activity (Flightaware)

Listeners: 0 out of 2299 total

Roanoke Approach: 118.150
Roanoke Approach: 126.900
Roanoke Approach: 135.000

KROA ATIS (Archives)
Roanoke, Virginia, United States

Feed Status: UP
Listen in your browser - HTML5 player(in browser, HTML5)
Click here to listen with your own player(launches your MP3 player)

KROA 230954Z 02003KT 10SM CLR 04/M01 A3018 RMK AO2 SLP220 T00441006

KROA Airport Info (Airnav.com)

KROA Flight Activity (Flightaware)

Listeners: 0 out of 2299 total

Roanoke ATIS: 132.375

KROA Clearance Delivery (Archives)
Roanoke, Virginia, United States

Feed Status: UP
Listen in your browser - HTML5 player(in browser, HTML5)
Click here to listen with your own player(launches your MP3 player)

KROA 230954Z 02003KT 10SM CLR 04/M01 A3018 RMK AO2 SLP220 T00441006

KROA Airport Info (Airnav.com)

KROA Flight Activity (Flightaware)

Listeners: 0 out of 2299 total

Roanoke Clearance Delivery: 119.700

KROA Del/Gnd (Archives)
Roanoke, Virginia, United States

Feed Status: UP
Listen in your browser - HTML5 player(in browser, HTML5)
Click here to listen with your own player(launches your MP3 player)

KROA 230954Z 02003KT 10SM CLR 04/M01 A3018 RMK AO2 SLP220 T00441006

KROA Airport Info (Airnav.com)

KROA Flight Activity (Flightaware)

Listeners: 0 out of 2299 total

Roanoke Clearance Delivery: 119.700
Roanoke Ground: 121.900

KROA Gnd/Twr (Archives)
Roanoke, Virginia, United States

Feed Status: UP
Listen in your browser - HTML5 player(in browser, HTML5)
Click here to listen with your own player(launches your MP3 player)

KROA 230954Z 02003KT 10SM CLR 04/M01 A3018 RMK AO2 SLP220 T00441006

KROA Airport Info (Airnav.com)

KROA Flight Activity (Flightaware)

Listeners: 0 out of 2299 total

Roanoke Ground: 121.900
Roanoke Tower: 118.300

KROA Gnd/Twr/App (Archives)
Roanoke, Virginia, United States

Feed Status: UP
Listen in your browser - HTML5 player(in browser, HTML5)
Click here to listen with your own player(launches your MP3 player)

KROA 230954Z 02003KT 10SM CLR 04/M01 A3018 RMK AO2 SLP220 T00441006

KROA Airport Info (Airnav.com)

KROA Flight Activity (Flightaware)

Listeners: 0 out of 2299 total

Roanoke Approach: 126.900
Roanoke Approach: 118.150
Roanoke Ground: 121.900
Roanoke Tower: 118.300

KROA Ground (Archives)
Roanoke, Virginia, United States

Feed Status: UP
Listen in your browser - HTML5 player(in browser, HTML5)
Click here to listen with your own player(launches your MP3 player)

KROA 230954Z 02003KT 10SM CLR 04/M01 A3018 RMK AO2 SLP220 T00441006

KROA Airport Info (Airnav.com)

KROA Flight Activity (Flightaware)

Listeners: 0 out of 2299 total

Roanoke Ground: 121.900

KROA Tower (Archives)
Roanoke, Virginia, United States

Feed Status: UP
Listen in your browser - HTML5 player(in browser, HTML5)
Click here to listen with your own player(launches your MP3 player)

KROA 230954Z 02003KT 10SM CLR 04/M01 A3018 RMK AO2 SLP220 T00441006

KROA Airport Info (Airnav.com)

KROA Flight Activity (Flightaware)

Listeners: 0 out of 2299 total

Roanoke Tower: 118.300

KROC Approach (Archives)
Rochester, New York, United States

Feed Status: UP
Listen in your browser - HTML5 player(in browser, HTML5)
Click here to listen with your own player(launches your MP3 player)

KROC 230954Z 21006KT 10SM FEW180 BKN250 06/M03 A3001 RMK AO2 SLP167 T00611033

KROC Airport Info (Airnav.com)

KROC Flight Activity (Flightaware)

Listeners: 0 out of 2299 total

Rochester Approach: 119.550
Rochester Approach: 123.700

KROC Del/Gnd/Twr (Archives)
Rochester, New York, United States

Feed Status: UP
Listen in your browser - HTML5 player(in browser, HTML5)
Click here to listen with your own player(launches your MP3 player)

KROC 230954Z 21006KT 10SM FEW180 BKN250 06/M03 A3001 RMK AO2 SLP167 T00611033

KROC Airport Info (Airnav.com)

KROC Flight Activity (Flightaware)

Listeners: 1 out of 2299 total

Rochester Clearance Delivery: 118.800
Rochester Ground: 121.700
Rochester Tower: 118.300

KROC Delivery/Ground
Rochester, New York, United States

Feed Status: DOWN
Offline since: 2024-04-08 18:27:22 UTC

KROC 230954Z 21006KT 10SM FEW180 BKN250 06/M03 A3001 RMK AO2 SLP167 T00611033

KROC Airport Info (Airnav.com)

Rochester Clearance Delivery: 118.800
Rochester Ground: 121.700

KROC Tower
Rochester, New York, United States

Feed Status: DOWN
Offline since: 2024-04-08 18:27:22 UTC

KROC 230954Z 21006KT 10SM FEW180 BKN250 06/M03 A3001 RMK AO2 SLP167 T00611033

KROC Airport Info (Airnav.com)

Rochester Tower: 118.300

KROG/KXNA/KVBT/Misc (Archives)
Rogers, Arkansas, United States

Feed Status: UP
Listen in your browser - HTML5 player(in browser, HTML5)
Click here to listen with your own player(launches your MP3 player)

KROG 230958Z AUTO 13004KT 10SM CLR 09/04 A2998 RMK AO2 SLP145 T00940039 TSNO

KROG Airport Info (Airnav.com)

KROG Flight Activity (Flightaware)

Listeners: 0 out of 2299 total

Bentonville CTAF: 122.975
Northwest Regional Tower: 127.100
Razorback Approach/Departure (East): 126.600
Rogers Tower: 119.375

KRSW Gnd/Twr/App/Dep (Archives)
Fort Myers, Florida, United States

Feed Status: UP
Listen in your browser - HTML5 player(in browser, HTML5)
Click here to listen with your own player(launches your MP3 player)

KRSW 230953Z 04008KT 10SM CLR 15/11 A3009 RMK AO2 SLP185 T01500111

KRSW Airport Info (Airnav.com)

KRSW Flight Activity (Flightaware)

Listeners: 3 out of 2299 total

Ft. Myers Approach/Departure (060-240): 119.750
Ft. Myers Approach/Departure (241-330): 125.150
Ft. Myers Approach/Departure (331-059): 126.800
Ft. Myers Ground: 121.900
Ft. Myers Tower: 128.750

KSAT App/Dep (Archives)
San Antonio, Texas, United States

Feed Status: UP
Listen in your browser - HTML5 player(in browser, HTML5)
Click here to listen with your own player(launches your MP3 player)

KSAT 230951Z 17007KT 10SM OVC055 16/12 A3005 RMK AO2 SLP162 T01610122

KSAT Airport Info (Airnav.com)

KSAT Flight Activity (Flightaware)

Listeners: 0 out of 2299 total

San Antonio Approach/Departure: 127.100
San Antonio Approach/Departure: 125.700
San Antonio Approach/Departure (091-140): 128.050
San Antonio Approach/Departure (141-270): 118.050
San Antonio Approach/Departure (271-359): 125.100
San Antonio Approach/Departure (360-090): 124.450

KSAT Ground (Archives)
San Antonio, Texas, United States

Feed Status: UP
Listen in your browser - HTML5 player(in browser, HTML5)
Click here to listen with your own player(launches your MP3 player)

KSAT 230951Z 17007KT 10SM OVC055 16/12 A3005 RMK AO2 SLP162 T01610122

KSAT Airport Info (Airnav.com)

KSAT Flight Activity (Flightaware)

Listeners: 0 out of 2299 total

San Antonio Ground: 121.900

KSAT Tower (Archives)
San Antonio, Texas, United States

Feed Status: UP
Listen in your browser - HTML5 player(in browser, HTML5)
Click here to listen with your own player(launches your MP3 player)

KSAT 230951Z 17007KT 10SM OVC055 16/12 A3005 RMK AO2 SLP162 T01610122

KSAT Airport Info (Airnav.com)

KSAT Flight Activity (Flightaware)

Listeners: 0 out of 2299 total

San Antonio Tower: 119.800

KSAV App/Dep (Archives)
Savannah, Georgia, United States

Feed Status: UP
Listen in your browser - HTML5 player(in browser, HTML5)
Click here to listen with your own player(launches your MP3 player)

KSAV 230953Z 00000KT 9SM CLR 08/07 A3020 RMK AO2 SLP227 T00830067

KSAV Airport Info (Airnav.com)

KSAV Flight Activity (Flightaware)

Listeners: 0 out of 2299 total

Savannah Approach (011-109): 125.300
Savannah Approach (011-109): 353.775
Savannah Approach (110-269): 120.400
Savannah Approach (110-269): 354.000
Savannah Approach (270-010): 118.400
Savannah Approach (270-010): 371.875

KSAV Del/Gnd (Archives)
Savannah, Georgia, United States

Feed Status: UP
Listen in your browser - HTML5 player(in browser, HTML5)
Click here to listen with your own player(launches your MP3 player)

KSAV 230953Z 00000KT 9SM CLR 08/07 A3020 RMK AO2 SLP227 T00830067

KSAV Airport Info (Airnav.com)

KSAV Flight Activity (Flightaware)

Listeners: 0 out of 2299 total

Savannah Clearance: 291.775
Savannah Clearance Delivery: 119.550
Savannah Ground: 121.900
Savannah Ground: 348.600

KSAV Tower (Archives)
Savannah, Georgia, United States

Feed Status: UP
Listen in your browser - HTML5 player(in browser, HTML5)
Click here to listen with your own player(launches your MP3 player)

KSAV 230953Z 00000KT 9SM CLR 08/07 A3020 RMK AO2 SLP227 T00830067

KSAV Airport Info (Airnav.com)

KSAV Flight Activity (Flightaware)

Listeners: 0 out of 2299 total

Savannah Tower: 125.975
Savannah Tower: 257.800

KSBA App/Dep (Archives)
Santa Barbara, California, United States

Feed Status: UP
Listen in your browser - HTML5 player(in browser, HTML5)
Click here to listen with your own player(launches your MP3 player)

KSBA 230953Z AUTO 00000KT 4SM BR OVC014 13/12 A2994 RMK AO2 SLP140 T01280122 $

KSBA Airport Info (Airnav.com)

KSBA Flight Activity (Flightaware)

Listeners: 1 out of 2299 total

Santa Barbara Approach/Departure: 125.400
Santa Barbara Approach/Departure: 124.150
Santa Barbara Approach/Departure: 120.550

KSBA Del/Ground (Archives)
Santa Barbara, California, United States

Feed Status: UP
Listen in your browser - HTML5 player(in browser, HTML5)
Click here to listen with your own player(launches your MP3 player)

KSBA 230953Z AUTO 00000KT 4SM BR OVC014 13/12 A2994 RMK AO2 SLP140 T01280122 $

KSBA Airport Info (Airnav.com)

KSBA Flight Activity (Flightaware)

Listeners: 0 out of 2299 total

Santa Barbara Clearance Delivery: 132.900
Santa Barbara Ground: 121.700

KSBA Tower (Archives)
Santa Barbara, California, United States

Feed Status: UP
Listen in your browser - HTML5 player(in browser, HTML5)
Click here to listen with your own player(launches your MP3 player)

KSBA 230953Z AUTO 00000KT 4SM BR OVC014 13/12 A2994 RMK AO2 SLP140 T01280122 $

KSBA Airport Info (Airnav.com)

KSBA Flight Activity (Flightaware)

Listeners: 0 out of 2299 total

Santa Barbara Tower: 119.700

KSDF App/Dep #1 (Archives)
Louisville, Kentucky, United States

Feed Status: UP
Listen in your browser - HTML5 player(in browser, HTML5)
Click here to listen with your own player(launches your MP3 player)

KSDF 230956Z 18008KT 10SM FEW170 SCT300 11/M01 A3009 RMK AO2 SLP186 T01111006

KSDF Airport Info (Airnav.com)

KSDF Flight Activity (Flightaware)

Listeners: 0 out of 2299 total

Louisville Approach/Departure: 132.075

KSDF App/Dep #2 (Archives)
Louisville, Kentucky, United States

Feed Status: UP
Listen in your browser - HTML5 player(in browser, HTML5)
Click here to listen with your own player(launches your MP3 player)

KSDF 230956Z 18008KT 10SM FEW170 SCT300 11/M01 A3009 RMK AO2 SLP186 T01111006

KSDF Airport Info (Airnav.com)

KSDF Flight Activity (Flightaware)

Listeners: 0 out of 2299 total

Louisville Approach/Departure: 134.150

KSDF ATIS (Archives)
Louisville, Kentucky, United States

Feed Status: UP
Listen in your browser - HTML5 player(in browser, HTML5)
Click here to listen with your own player(launches your MP3 player)

KSDF 230956Z 18008KT 10SM FEW170 SCT300 11/M01 A3009 RMK AO2 SLP186 T01111006

KSDF Airport Info (Airnav.com)

KSDF Flight Activity (Flightaware)

Listeners: 0 out of 2299 total

Louisville ATIS: 118.725

KSDF Ground/Tower #1 (Archives)
Louisville, Kentucky, United States

Feed Status: UP
Listen in your browser - HTML5 player(in browser, HTML5)
Click here to listen with your own player(launches your MP3 player)

KSDF 230956Z 18008KT 10SM FEW170 SCT300 11/M01 A3009 RMK AO2 SLP186 T01111006

KSDF Airport Info (Airnav.com)

KSDF Flight Activity (Flightaware)

Listeners: 0 out of 2299 total

Louisville Ground: 121.700
Louisville Tower: 124.200

KSDF Thunder Over Louisville Air Show #2 (Archives)
Louisville, Kentucky, United States

Feed Status: UP
Listen in your browser - HTML5 player(in browser, HTML5)
Click here to listen with your own player(launches your MP3 player)

KSDF 230956Z 18008KT 10SM FEW170 SCT300 11/M01 A3009 RMK AO2 SLP186 T01111006

KSDF Airport Info (Airnav.com)

KSDF Flight Activity (Flightaware)

Listeners: 0 out of 2299 total

Air Boss (VHF): 120.300
Air to Air: 126.850

KSFB ATIS (Archives)
Orlando, Florida, United States

Feed Status: UP
Listen in your browser - HTML5 player(in browser, HTML5)
Click here to listen with your own player(launches your MP3 player)

KSFB 230953Z AUTO 03006KT 10SM CLR 14/08 A3012 RMK AO2 SLP201 T01390083

KSFB Airport Info (Airnav.com)

KSFB Flight Activity (Flightaware)

Listeners: 0 out of 2299 total

Sanford ATIS: 125.975

KSFB Clearance Delivery (Archives)
Orlando, Florida, United States

Feed Status: UP
Listen in your browser - HTML5 player(in browser, HTML5)
Click here to listen with your own player(launches your MP3 player)

KSFB 230953Z AUTO 03006KT 10SM CLR 14/08 A3012 RMK AO2 SLP201 T01390083

KSFB Airport Info (Airnav.com)

KSFB Flight Activity (Flightaware)

Listeners: 0 out of 2299 total

Sanford Clearance Delivery: 123.975

KSFB Del/Gnd (Archives)
Orlando, Florida, United States

Feed Status: UP
Listen in your browser - HTML5 player(in browser, HTML5)
Click here to listen with your own player(launches your MP3 player)

KSFB 230953Z AUTO 03006KT 10SM CLR 14/08 A3012 RMK AO2 SLP201 T01390083

KSFB Airport Info (Airnav.com)

KSFB Flight Activity (Flightaware)

Listeners: 0 out of 2299 total

Sanford Clearance Delivery: 123.975
Sanford Ground: 121.350

KSFB Ground (Archives)
Orlando, Florida, United States

Feed Status: UP
Listen in your browser - HTML5 player(in browser, HTML5)
Click here to listen with your own player(launches your MP3 player)

KSFB 230953Z AUTO 03006KT 10SM CLR 14/08 A3012 RMK AO2 SLP201 T01390083

KSFB Airport Info (Airnav.com)

KSFB Flight Activity (Flightaware)

Listeners: 0 out of 2299 total

Sanford Ground: 121.350

KSFB Tower (Both) (Archives)
Orlando, Florida, United States

Feed Status: UP
Listen in your browser - HTML5 player(in browser, HTML5)
Click here to listen with your own player(launches your MP3 player)

KSFB 230953Z AUTO 03006KT 10SM CLR 14/08 A3012 RMK AO2 SLP201 T01390083

KSFB Airport Info (Airnav.com)

KSFB Flight Activity (Flightaware)

Listeners: 0 out of 2299 total

Sanford Tower (Runways 9L/27R, 18/36): 120.300
Sanford Tower (Runways 9R/27L, 9C/27C): 135.250

KSFB Tower (Main) (Archives)
Orlando, Florida, United States

Feed Status: UP
Listen in your browser - HTML5 player(in browser, HTML5)
Click here to listen with your own player(launches your MP3 player)

KSFB 230953Z AUTO 03006KT 10SM CLR 14/08 A3012 RMK AO2 SLP201 T01390083

KSFB Airport Info (Airnav.com)

KSFB Flight Activity (Flightaware)

Listeners: 0 out of 2299 total

Sanford Tower (Runways 9L/27R, 18/36): 120.300

KSFB Tower (South) (Archives)
Orlando, Florida, United States

Feed Status: UP
Listen in your browser - HTML5 player(in browser, HTML5)
Click here to listen with your own player(launches your MP3 player)

KSFB 230953Z AUTO 03006KT 10SM CLR 14/08 A3012 RMK AO2 SLP201 T01390083

KSFB Airport Info (Airnav.com)

KSFB Flight Activity (Flightaware)

Listeners: 0 out of 2299 total

Sanford Tower (Runways 9R/27L, 9C/27C): 135.250

NORCAL Departure (KSFO/KOAK) (Archives)
San Francisco, California, United States

Feed Status: UP
Listen in your browser - HTML5 player(in browser, HTML5)
Click here to listen with your own player(launches your MP3 player)

KOAK 230953Z 22016KT 10SM FEW028 13/09 A2989 RMK AO2 SLP121 T01330094

KOAK Airport Info (Airnav.com)

KOAK Flight Activity (Flightaware)

Listeners: 2 out of 2299 total

NORCAL Departure (Northeast Departures): 120.900
NORCAL Departure (Northeast Departures): 127.000
NORCAL Departure (Southwest Departures): 127.975
NORCAL Departure (Southwest Departures): 135.100

KSGF Ground/Tower (Archives)
Springfield, Missouri, United States

Feed Status: UP
Listen in your browser - HTML5 player(in browser, HTML5)
Click here to listen with your own player(launches your MP3 player)

KSGF 230952Z 16010KT 10SM CLR 10/03 A2994 RMK AO2 SLP134 T01000028

KSGF Airport Info (Airnav.com)

KSGF Flight Activity (Flightaware)

Listeners: 0 out of 2299 total

Springfield Ground: 121.900
Springfield Tower: 119.900

KSJC D-ATIS (Archives)
San Jose, California, United States

Feed Status: UP
Listen in your browser - HTML5 player(in browser, HTML5)
Click here to listen with your own player(launches your MP3 player)

KSJC 230953Z AUTO 17007KT 10SM OVC024 14/08 A2989 RMK AO2 SLP121 T01390078

KSJC Airport Info (Airnav.com)

KSJC Flight Activity (Flightaware)

Listeners: 0 out of 2299 total

San Jose D-ATIS: 126.950

KSJC Del/Gnd/Misc (Archives)
San Jose, California, United States

Feed Status: UP
Listen in your browser - HTML5 player(in browser, HTML5)
Click here to listen with your own player(launches your MP3 player)

KSJC 230953Z AUTO 17007KT 10SM OVC024 14/08 A2989 RMK AO2 SLP121 T01390078

KSJC Airport Info (Airnav.com)

KSJC Flight Activity (Flightaware)

Listeners: 0 out of 2299 total

Alaska Airlines Ops: 131.200
American Airlines Ops: 129.200
Atlantic Aviation (San Jose Jet Center): 129.800
Emergency/Guard: 121.500
Horizon Air Ops: 132.000
San Jose Clearance Delivery: 118.000
San Jose Ground: 121.700
Signature Flight Support: 129.050
Southwest Airlines Ops: 464.625
Southwest Airlines Ops: 131.700

KSJC Ground (Archives)
San Jose, California, United States

Feed Status: UP
Listen in your browser - HTML5 player(in browser, HTML5)
Click here to listen with your own player(launches your MP3 player)

KSJC 230953Z AUTO 17007KT 10SM OVC024 14/08 A2989 RMK AO2 SLP121 T01390078

KSJC Airport Info (Airnav.com)

KSJC Flight Activity (Flightaware)

Listeners: 1 out of 2299 total

San Jose Ground: 121.700

KSJC NORCAL Approach #1 (Archives)
San Jose, California, United States

Feed Status: UP
Listen in your browser - HTML5 player(in browser, HTML5)
Click here to listen with your own player(launches your MP3 player)

KSJC 230953Z AUTO 17007KT 10SM OVC024 14/08 A2989 RMK AO2 SLP121 T01390078

KSJC Airport Info (Airnav.com)

KSJC Flight Activity (Flightaware)

Listeners: 0 out of 2299 total

Emergency/Guard: 121.500
NORCAL Approach: 135.200
NORCAL Approach "LICKE" SJC Final: 120.100

KSJC NORCAL Approach #2 (Archives)
San Jose, California, United States

Feed Status: UP
Listen in your browser - HTML5 player(in browser, HTML5)
Click here to listen with your own player(launches your MP3 player)

KSJC 230953Z AUTO 17007KT 10SM OVC024 14/08 A2989 RMK AO2 SLP121 T01390078

KSJC Airport Info (Airnav.com)

KSJC Flight Activity (Flightaware)

Listeners: 0 out of 2299 total

NORCAL Approach "LICKE" SJC Final: 120.100
NORCAL Approach "TOGA": 121.300

KSJC NORCAL Departure (Archives)
San Jose, California, United States

Feed Status: UP
Listen in your browser - HTML5 player(in browser, HTML5)
Click here to listen with your own player(launches your MP3 player)

KSJC 230953Z AUTO 17007KT 10SM OVC024 14/08 A2989 RMK AO2 SLP121 T01390078

KSJC Airport Info (Airnav.com)

KSJC Flight Activity (Flightaware)

Listeners: 0 out of 2299 total

NORCAL Departure: 121.300

KSJC Tower #1 (Archives)
San Jose, California, United States

Feed Status: UP
Listen in your browser - HTML5 player(in browser, HTML5)
Click here to listen with your own player(launches your MP3 player)

KSJC 230953Z AUTO 17007KT 10SM OVC024 14/08 A2989 RMK AO2 SLP121 T01390078

KSJC Airport Info (Airnav.com)

KSJC Flight Activity (Flightaware)

Listeners: 0 out of 2299 total

San Jose Tower: 124.000

KSJC Tower #2 (Archives)
San Jose, California, United States

Feed Status: UP
Listen in your browser - HTML5 player(in browser, HTML5)
Click here to listen with your own player(launches your MP3 player)

KSJC 230953Z AUTO 17007KT 10SM OVC024 14/08 A2989 RMK AO2 SLP121 T01390078

KSJC Airport Info (Airnav.com)

KSJC Flight Activity (Flightaware)

Listeners: 0 out of 2299 total

San Jose Tower: 124.000
San Jose Tower: 120.700

KSNA Del/Gnd
Santa Ana, California, United States

Feed Status: DOWN
Offline since: 2024-04-22 23:05:39 UTC

KSNA 230953Z AUTO 10SM BKN017 OVC024 A2994 RMK AO2 SLPNO PWINO $

KSNA Airport Info (Airnav.com)

John Wayne Clearance (IFR): 118.000
John Wayne Clearance (VFR): 121.850
John Wayne Ground (East): 120.800
John Wayne Ground (West): 132.250

KSNA Del/Gnd/Twr/App (Archives)
Santa Ana, California, United States

Feed Status: UP
Listen in your browser - HTML5 player(in browser, HTML5)
Click here to listen with your own player(launches your MP3 player)

KSNA 230953Z AUTO 10SM BKN017 OVC024 A2994 RMK AO2 SLPNO PWINO $

KSNA Airport Info (Airnav.com)

KSNA Flight Activity (Flightaware)

Listeners: 0 out of 2299 total

John Wayne Clearance Delivery: 121.850
John Wayne Ground: 120.800
John Wayne Tower: 119.900
John Wayne Tower: 126.800
SoCal Approach (NE/SW): 128.100
SoCal Approach (NW/NE): 121.300
SoCal Approach (SE): 124.100

KSRQ App/Dep (Archives)
Sarasota/Bradenton, Florida, United States

Feed Status: UP
Listen in your browser - HTML5 player(in browser, HTML5)
Click here to listen with your own player(launches your MP3 player)

KSRQ 230953Z 06006KT 10SM CLR 15/10 A3011 RMK AO2 SLP195 T01500100

KSRQ Airport Info (Airnav.com)

KSRQ Flight Activity (Flightaware)

Listeners: 0 out of 2299 total

Tampa Approach/Departure: 119.650
Tampa Approach/Departure: 124.950

KSRQ Del/Gnd (Archives)
Sarasota/Bradenton, Florida, United States

Feed Status: UP
Listen in your browser - HTML5 player(in browser, HTML5)
Click here to listen with your own player(launches your MP3 player)

KSRQ 230953Z 06006KT 10SM CLR 15/10 A3011 RMK AO2 SLP195 T01500100

KSRQ Airport Info (Airnav.com)

KSRQ Flight Activity (Flightaware)

Listeners: 0 out of 2299 total

Sarasota Clearance Delivery: 118.250
Sarasota Ground: 121.900

KSRQ Tower (Archives)
Sarasota/Bradenton, Florida, United States

Feed Status: UP
Listen in your browser - HTML5 player(in browser, HTML5)
Click here to listen with your own player(launches your MP3 player)

KSRQ 230953Z 06006KT 10SM CLR 15/10 A3011 RMK AO2 SLP195 T01500100

KSRQ Airport Info (Airnav.com)

KSRQ Flight Activity (Flightaware)

Listeners: 1 out of 2299 total

Sarasota Tower: 120.100
Sarasota Tower: 256.800

KSYR App/Dep (Archives)
Syracuse, New York, United States

Feed Status: UP
Listen in your browser - HTML5 player(in browser, HTML5)
Click here to listen with your own player(launches your MP3 player)

KSYR 230954Z 09004KT 10SM BKN230 04/M03 A3005 RMK AO2 SLP173 T00391028

KSYR Airport Info (Airnav.com)

KSYR Flight Activity (Flightaware)

Listeners: 0 out of 2299 total

Syracuse Approach: 126.125

KSYR ATIS (Archives)
Syracuse, New York, United States

Feed Status: UP
Listen in your browser - HTML5 player(in browser, HTML5)
Click here to listen with your own player(launches your MP3 player)

KSYR 230954Z 09004KT 10SM BKN230 04/M03 A3005 RMK AO2 SLP173 T00391028

KSYR Airport Info (Airnav.com)

KSYR Flight Activity (Flightaware)

Listeners: 0 out of 2299 total

Syracuse ATIS: 124.225

KSYR Clearance Delivery (Archives)
Syracuse, New York, United States

Feed Status: UP
Listen in your browser - HTML5 player(in browser, HTML5)
Click here to listen with your own player(launches your MP3 player)

KSYR 230954Z 09004KT 10SM BKN230 04/M03 A3005 RMK AO2 SLP173 T00391028

KSYR Airport Info (Airnav.com)

KSYR Flight Activity (Flightaware)

Listeners: 0 out of 2299 total

Syracuse Clearance Delivery: 125.050

KSYR Ground (Archives)
Syracuse, New York, United States

Feed Status: UP
Listen in your browser - HTML5 player(in browser, HTML5)
Click here to listen with your own player(launches your MP3 player)

KSYR 230954Z 09004KT 10SM BKN230 04/M03 A3005 RMK AO2 SLP173 T00391028

KSYR Airport Info (Airnav.com)

KSYR Flight Activity (Flightaware)

Listeners: 0 out of 2299 total

Syracuse Ground: 121.700

KSYR Ground/Tower (Archives)
Syracuse, New York, United States

Feed Status: UP
Listen in your browser - HTML5 player(in browser, HTML5)
Click here to listen with your own player(launches your MP3 player)

KSYR 230954Z 09004KT 10SM BKN230 04/M03 A3005 RMK AO2 SLP173 T00391028

KSYR Airport Info (Airnav.com)

KSYR Flight Activity (Flightaware)

Listeners: 0 out of 2299 total

Syracuse Ground: 121.700
Syracuse Tower: 120.300

KSYR Tower (Archives)
Syracuse, New York, United States

Feed Status: UP
Listen in your browser - HTML5 player(in browser, HTML5)
Click here to listen with your own player(launches your MP3 player)

KSYR 230954Z 09004KT 10SM BKN230 04/M03 A3005 RMK AO2 SLP173 T00391028

KSYR Airport Info (Airnav.com)

KSYR Flight Activity (Flightaware)

Listeners: 0 out of 2299 total


KSYR Tower/Approach (Archives)
Syracuse, New York, United States

Feed Status: UP
Listen in your browser - HTML5 player(in browser, HTML5)
Click here to listen with your own player(launches your MP3 player)

KSYR 230954Z 09004KT 10SM BKN230 04/M03 A3005 RMK AO2 SLP173 T00391028

KSYR Airport Info (Airnav.com)

KSYR Flight Activity (Flightaware)

Listeners: 5 out of 2299 total

Syracuse Approach: 134.275
Syracuse Approach: 126.125
Syracuse Tower: 120.300

KTLH Del/Gnd/Twr/App (Archives)
Tallahassee, Florida, United States

Feed Status: UP
Listen in your browser - HTML5 player(in browser, HTML5)
Click here to listen with your own player(launches your MP3 player)

KTLH 230953Z 00000KT 10SM CLR 07/06 A3018 RMK AO2 SLP219 T00720056

KTLH Airport Info (Airnav.com)

KTLH Flight Activity (Flightaware)

Listeners: 0 out of 2299 total

Tallahassee Approach/Departure: 135.800
Tallahassee Approach/Departure: 128.700
Tallahassee Approach/Departure: 133.850
Tallahassee Clearance Delivery: 126.650
Tallahassee Ground: 121.900
Tallahassee Tower: 118.700

KTOL Del/Gnd/Twr/App (Archives)
Toledo, Ohio, United States

Feed Status: UP
Listen in your browser - HTML5 player(in browser, HTML5)
Click here to listen with your own player(launches your MP3 player)

KTOL 230952Z 19009G16KT 10SM CLR 11/01 A2990 RMK AO2 SLP126 T01060011

KTOL Airport Info (Airnav.com)

KTOL Flight Activity (Flightaware)

Listeners: 0 out of 2299 total

Toledo Approach (East): 126.100
Toledo Approach (West): 134.350
Toledo Clearance Delivery: 121.750
Toledo Ground: 121.900
Toledo Tower: 118.100

KTUL Del/Gnd/Twr/App (Archives)
Tulsa, Oklahoma, United States

Feed Status: UP
Listen in your browser - HTML5 player(in browser, HTML5)
Click here to listen with your own player(launches your MP3 player)

KTUL 230953Z 17011G17KT 10SM FEW150 13/07 A2990 RMK AO2 SLP121 T01330072

KTUL Airport Info (Airnav.com)

KTUL Flight Activity (Flightaware)

Listeners: 2 out of 2299 total

Emergency/Guard: 121.500
Tulsa Approach (175-354deg): 124.000
Tulsa Approach (355-174deg): 119.100
Tulsa Approach (Final): 132.100
Tulsa Approach/Departure (KRVS): 134.700
Tulsa Clearance: 134.050
Tulsa Ground: 121.900
Tulsa Tower (Rwy 18R/36L): 118.700
Tulsa Tower (Rwys 18L/36R, 08/26): 121.200

KDMA/KTUS Twr/Ops/ZAB
Tucson, Arizona, United States

Feed Status: DOWN
Offline since: 2024-04-11 13:39:22 UTC

KTUS 230953Z 00000KT 10SM CLR 17/01 A2993 RMK AO2 SLP091 T01720006 $

KTUS Airport Info (Airnav.com)

357FS Ops: 139.725
358FS Ops: 138.500
Albuquerque Center (Sector 47 Silver City/Low/UHF): 327.150
Albuquerque Center (Sector 90 San Simon/High/UHF): 281.500
AWACS: 364.200
BigFoot: 234.800
BigFoot: 271.000
Davis-Monthan AFB: 253.500
Tucson 162FW SOS IOPS: 392.200
Tucson Tower (UHF): 257.800

KTUS Del/Gnd/Twr/App/KDMA (Archives)
Tucson, Arizona, United States

Feed Status: UP
Listen in your browser - HTML5 player(in browser, HTML5)
Click here to listen with your own player(launches your MP3 player)

KTUS 230953Z 00000KT 10SM CLR 17/01 A2993 RMK AO2 SLP091 T01720006 $

KTUS Airport Info (Airnav.com)

KTUS Flight Activity (Flightaware)

Listeners: 0 out of 2299 total

KDMA Tower: 118.850
Tucson Approach (alt): 124.000
Tucson Approach (East/South): 125.100
Tucson Approach (Mil): 269.550
Tucson Approach (North): 119.400
Tucson Approach (Practice Areas): 125.900
Tucson Clearance Delivery: 126.650
Tucson Ground: 120.025
Tucson Tower: 118.300
Tucson Tower (alt): 119.000

KTYS Del/Gnd/Twr/App (Archives)
Knoxville, Tennessee, United States

Feed Status: UP
Listen in your browser - HTML5 player(in browser, HTML5)
Click here to listen with your own player(launches your MP3 player)

KTYS 230953Z 00000KT 10SM SCT250 04/01 A3017 RMK AO2 SLP214 T00390011

KTYS Airport Info (Airnav.com)

KTYS Flight Activity (Flightaware)

Listeners: 0 out of 2299 total

Knoxville Approach/Departure: 123.900
Knoxville Approach/Departure: 120.650
Knoxville Approach/Departure: 360.800
Knoxville Approach/Departure: 353.600
Knoxville Approach/Departure: 118.000
Knoxville Clearance Delivery: 121.650
Knoxville Ground: 348.600
Knoxville Ground: 121.900
Knoxville Tower: 257.800
Knoxville Tower: 121.200

KROG/KXNA/KVBT/Misc (Archives)
Bentonville, Arkansas, United States

Feed Status: UP
Listen in your browser - HTML5 player(in browser, HTML5)
Click here to listen with your own player(launches your MP3 player)

KROG 230958Z AUTO 13004KT 10SM CLR 09/04 A2998 RMK AO2 SLP145 T00940039 TSNO

KROG Airport Info (Airnav.com)

KROG Flight Activity (Flightaware)

Listeners: 0 out of 2299 total

Bentonville CTAF: 122.975
Northwest Regional Tower: 127.100
Razorback Approach/Departure (East): 126.600
Rogers Tower: 119.375

KROG/KXNA/KVBT/Misc (Archives)
Fayetteville/Springdale/Rogers, Arkansas, United States

Feed Status: UP
Listen in your browser - HTML5 player(in browser, HTML5)
Click here to listen with your own player(launches your MP3 player)

KROG 230958Z AUTO 13004KT 10SM CLR 09/04 A2998 RMK AO2 SLP145 T00940039 TSNO

KROG Airport Info (Airnav.com)

KROG Flight Activity (Flightaware)

Listeners: 0 out of 2299 total

Bentonville CTAF: 122.975
Northwest Regional Tower: 127.100
Razorback Approach/Departure (East): 126.600
Rogers Tower: 119.375

KBTR/KHZR/L38 Del/Gnd/Twr/App/CTAF
Gonzales, Louisiana, United States

Feed Status: DOWN
Offline since: 2023-10-29 21:18:22 UTC

KBTR 230953Z AUTO 00000KT 10SM CLR 08/07 A3013 RMK AO2 SLP203 T00830067

KBTR Airport Info (Airnav.com)

Baton Rouge Approach/Departure (East): 126.500
Baton Rouge Approach/Departure (Military): 278.300
Baton Rouge Approach/Departure (West): 120.300
Baton Rouge Clearance Delivery: 119.400
Baton Rouge Ground: 121.900
Baton Rouge Tower (Military): 257.800
Baton Rouge Tower/CTAF: 118.450
Baton Rouge UNICOM: 122.950
Houston Center (App/Dep when Approach closed): 338.250
Houston Center (App/Dep when Approach closed): 126.350
Louisiana Regional L38 CTAF: 123.000
United Airlines: 129.925

PANC Del/Gnd/App (Archives)
Anchorage, Alaska, United States

Feed Status: UP
Listen in your browser - HTML5 player(in browser, HTML5)
Click here to listen with your own player(launches your MP3 player)

PANC 230953Z 29003KT 10SM FEW046 OVC065 04/M01 A3001 RMK AO2 SLP163 T00441011

PANC Airport Info (Airnav.com)

PANC Flight Activity (Flightaware)

Listeners: 4 out of 2299 total

Anchorage Approach/Dep (046-205 deg): 126.400
Anchorage Approach/Dep (206-249 deg): 123.800
Anchorage Approach/Dep (250-330 deg <=1500'): 119.100
Anchorage Approach/Dep (250-330 deg >1500'): 118.600
Anchorage Approach/Dep (331-045 deg <=2500'): 119.100
Anchorage Clearance: 119.400
Anchorage Ground: 121.900

PANC Del/Gnd/Twr/App (Archives)
Anchorage, Alaska, United States

Feed Status: UP
Listen in your browser - HTML5 player(in browser, HTML5)
Click here to listen with your own player(launches your MP3 player)

PANC 230953Z 29003KT 10SM FEW046 OVC065 04/M01 A3001 RMK AO2 SLP163 T00441011

PANC Airport Info (Airnav.com)

PANC Flight Activity (Flightaware)

Listeners: 5 out of 2299 total

Anchorage Approach/Dep (046-205 deg): 126.400
Anchorage Approach/Dep (206-249 deg): 123.800
Anchorage Approach/Dep (250-330 deg <=1500'): 119.100
Anchorage Approach/Dep (250-330 deg >1500'): 118.600
Anchorage Approach/Dep (331-045 deg <=2500'): 119.100
Anchorage Clearance: 119.400
Anchorage Ground: 121.900
Anchorage Tower: 118.300

PANC Tower (Archives)
Anchorage, Alaska, United States

Feed Status: UP
Listen in your browser - HTML5 player(in browser, HTML5)
Click here to listen with your own player(launches your MP3 player)

PANC 230953Z 29003KT 10SM FEW046 OVC065 04/M01 A3001 RMK AO2 SLP163 T00441011

PANC Airport Info (Airnav.com)

PANC Flight Activity (Flightaware)

Listeners: 3 out of 2299 total

Anchorage Tower: 118.300

PHOG ATIS (Archives)
Kahului, Hawaii, United States

Feed Status: UP
Listen in your browser - HTML5 player(in browser, HTML5)
Click here to listen with your own player(launches your MP3 player)

PHOG 230954Z AUTO 06013G24KT 10SM -RA BKN038 BKN070 21/19 A3012 RMK AO2 RAB40 SLP205 P0000 T02060194 402670200 TSNO

PHOG Airport Info (Airnav.com)

PHOG Flight Activity (Flightaware)

Listeners: 2 out of 2299 total

Maui ATIS: 128.600

PHOG Clearance Delivery (Archives)
Kahului, Hawaii, United States

Feed Status: UP
Listen in your browser - HTML5 player(in browser, HTML5)
Click here to listen with your own player(launches your MP3 player)

PHOG 230954Z AUTO 06013G24KT 10SM -RA BKN038 BKN070 21/19 A3012 RMK AO2 RAB40 SLP205 P0000 T02060194 402670200 TSNO

PHOG Airport Info (Airnav.com)

PHOG Flight Activity (Flightaware)

Listeners: 2 out of 2299 total

Maui Clearance Delivery: 120.600

PHOG Del/Gnd/Twr/App (Archives)
Kahului, Hawaii, United States

Feed Status: UP
Listen in your browser - HTML5 player(in browser, HTML5)
Click here to listen with your own player(launches your MP3 player)

PHOG 230954Z AUTO 06013G24KT 10SM -RA BKN038 BKN070 21/19 A3012 RMK AO2 RAB40 SLP205 P0000 T02060194 402670200 TSNO

PHOG Airport Info (Airnav.com)

PHOG Flight Activity (Flightaware)

Listeners: 3 out of 2299 total

HCF Approach (Maui/North): 120.200
HCF Approach (Maui/South): 119.500
Maui Clearance Delivery: 120.600
Maui Ground: 121.900
Maui Tower: 118.700

PHOG Ground (Archives)
Kahului, Hawaii, United States

Feed Status: UP
Listen in your browser - HTML5 player(in browser, HTML5)
Click here to listen with your own player(launches your MP3 player)

PHOG 230954Z AUTO 06013G24KT 10SM -RA BKN038 BKN070 21/19 A3012 RMK AO2 RAB40 SLP205 P0000 T02060194 402670200 TSNO

PHOG Airport Info (Airnav.com)

PHOG Flight Activity (Flightaware)

Listeners: 2 out of 2299 total

Maui Ground: 121.900

PHOG HCF App (N/S) (Archives)
Kahului, Hawaii, United States

Feed Status: UP
Listen in your browser - HTML5 player(in browser, HTML5)
Click here to listen with your own player(launches your MP3 player)

PHOG 230954Z AUTO 06013G24KT 10SM -RA BKN038 BKN070 21/19 A3012 RMK AO2 RAB40 SLP205 P0000 T02060194 402670200 TSNO

PHOG Airport Info (Airnav.com)

PHOG Flight Activity (Flightaware)

Listeners: 2 out of 2299 total

HCF Approach (Maui/North): 120.200
HCF Approach (Maui/South): 119.500

PHOG HCF App (North) (Archives)
Kahului, Hawaii, United States

Feed Status: UP
Listen in your browser - HTML5 player(in browser, HTML5)
Click here to listen with your own player(launches your MP3 player)

PHOG 230954Z AUTO 06013G24KT 10SM -RA BKN038 BKN070 21/19 A3012 RMK AO2 RAB40 SLP205 P0000 T02060194 402670200 TSNO

PHOG Airport Info (Airnav.com)

PHOG Flight Activity (Flightaware)

Listeners: 2 out of 2299 total

HCF Approach (Maui/North): 120.200

PHOG HCF App (South) (Archives)
Kahului, Hawaii, United States

Feed Status: UP
Listen in your browser - HTML5 player(in browser, HTML5)
Click here to listen with your own player(launches your MP3 player)

PHOG 230954Z AUTO 06013G24KT 10SM -RA BKN038 BKN070 21/19 A3012 RMK AO2 RAB40 SLP205 P0000 T02060194 402670200 TSNO

PHOG Airport Info (Airnav.com)

PHOG Flight Activity (Flightaware)

Listeners: 2 out of 2299 total

HCF Approach (Maui/South): 119.500

PHOG Tower (Archives)
Kahului, Hawaii, United States

Feed Status: UP
Listen in your browser - HTML5 player(in browser, HTML5)
Click here to listen with your own player(launches your MP3 player)

PHOG 230954Z AUTO 06013G24KT 10SM -RA BKN038 BKN070 21/19 A3012 RMK AO2 RAB40 SLP205 P0000 T02060194 402670200 TSNO

PHOG Airport Info (Airnav.com)

PHOG Flight Activity (Flightaware)

Listeners: 2 out of 2299 total

Maui Tower: 118.700

TJSJ Center/Oceanic (Archives)
San Juan, Puerto Rico, United States

Feed Status: UP
Listen in your browser - HTML5 player(in browser, HTML5)
Click here to listen with your own player(launches your MP3 player)

TJSJ 230956Z 12003KT 10SM FEW014 FEW037 SCT090 25/23 A2997 RMK AO2 SLP147 T02500233 $

TJSJ Flight Activity (Flightaware)

Listeners: 1 out of 2299 total

Emergency/Guard: 121.500
San Juan Center: 135.700
San Juan Center: 134.300
San Juan Center: 124.350
San Juan Center: 124.220
San Juan Center: 118.750
San Juan Center: 118.150
San Juan Center: 125.000
San Juan Oceanic: 126.700
San Juan Oceanic: 123.650
San Juan Oceanic: 122.200
San Juan Oceanic: 122.600
San Juan Oceanic Backup: 122.100
San Juan Oceanic Backup: 123.600